     2              OBSERVATION DATA    GPS                 RINEX VERSION / TYPE
teqc 2000Feb29 Duncan Agnew 20000428 21:02:44UTC            PGM / RUN BY / DATE
                                                            COMMENT
L2: 1 -> 1; 150 -> 5; 250 -> 9                              COMMENT
L2: 1 -> 1; 150 -> 5; 250 -> 9                              COMMENT
L2: 1 -> 1; 150 -> 5; 250 -> 9                              COMMENT
L2: 1 -> 1; 150 -> 5; 250 -> 9                              COMMENT
L2: 1 -> 1; 150 -> 5; 250 -> 9                              COMMENT
Original Marker Name: SCP4                                  COMMENT
Campaign Name: Hector Postseismic                           COMMENT
4-Character Station Name: SCP5                              COMMENT
6-Character Antenna Code: DMRCHT                            COMMENT
Vertical Measurement Point: BCR                             COMMENT
Vertical Offset to Rinex Ref. Point: 0.0348                 COMMENT
Radial Measurement Point: ECF                               COMMENT
Radial Offset to Rinex Ref. Point: 0.1897                   COMMENT
Antenna Height from Field Measurement: 0.8900 m             COMMENT
Additional Antenna Identification Info.:                    COMMENT
Turborogue and Ashtech Choke Ring                           COMMENT
antenna set to mag N                                        COMMENT
Original XYZ: -2328445.3732 -4724354.6404 3586616.7284      COMMENT
New XYZ position is based on association with SCEC monument COMMENT
E1F2H8G9+0011. Position of that monument is believed to be  COMMENT
valid to within 1 m horizontally; vertical accuracy         COMMENT
should be no worse than 3-times this value.                 COMMENT
                                                            COMMENT
Revised Rinex header created by UCSD GPS archive for        COMMENT
GSAC on 13-Aug-2000 (2000:226) 00:48:42 GMT                 COMMENT
For assistance contact dagnew@ucsd.edu                      COMMENT
or anderson@python.ucsd.edu                                 COMMENT
                                                            COMMENT
BRAVO                                                       MARKER NAME
SEO UNIV SOUTHERN CALIFORNIA                                OBSERVER / AGENCY
188 ASHTECH Z-XII3 CD00                                     REC # / TYPE / VERS
374 DORNE-MARGOL. TYPE T                                    ANT # / TYPE
 -2328421.9584 -4724303.8820  3586564.4232                  APPROX POSITION XYZ
        0.8347        0.0000        0.0000                  ANTENNA: DELTA H/E/N
     1     1     0                                          WAVELENGTH FACT L1/2
     7    C1    L1    L2    P1    P2    S1    S2            # / TYPES OF OBSERV
     0                                                      INTERVAL
  2000     4    21     0     0   30.000000                  TIME OF FIRST OBS
  2000     4    21    18    23    0.000000                  TIME OF LAST OBS
                                                            END OF HEADER
 00  4 21  0  0 30.0000000  0  6G22G26G21G23G 6G17
  23785253.359   -10302850.49949  -8013261.63445  23785252.592    23785267.742
       217.000         156.000
  21765333.374   -20100144.41949 -15407174.92247  21765333.423    21765343.909
       233.000         188.000
  23616569.262    -8855505.11049  -6369894.28445  23616568.160    23616585.094
       218.000         162.000
  20878931.789   -20774304.33749 -16175270.62548  20878931.307    20878940.713
       244.000         213.000
  21085885.104   -23914517.59949 -18619627.61947  21085885.445    21085895.653
       239.000         202.000
  20771799.101   -27452707.62349 -21095683.98847  20771798.553    20771807.865
       243.000         212.000
 00  4 21  0  1  0.0000000  0  6G22G26G21G23G 6G17
  23788406.634   -10286280.31949  -8000349.87145  23788405.540    23788420.192
       216.000         156.000
  21769844.077   -20076440.22849 -15388704.11747  21769844.430    21769854.429
       233.000         188.000
  23602011.735    -8932003.81149  -6429503.30846  23602010.928    23602027.301
       218.000         163.000
  20874320.256   -20798537.95049 -16194153.88748  20874319.809    20874329.191
       244.000         213.000
  21098537.735   -23848027.83349 -18567817.49047  21098537.766    21098548.279
       238.000         201.000
  20771027.414   -27456762.66449 -21098843.74247  20771026.857    20771036.048
       243.000         212.000
 00  4 21  0  1 30.0000000  0  6G22G26G21G23G 6G17
  23791655.167   -10269209.33449  -7987047.88945  23791654.810    23791669.056
       217.000         156.000
  21774480.333   -20052076.77649 -15369719.59547  21774480.871    21774490.413
       233.000         188.000
  23587503.833    -9008242.10749  -6488909.42046  23587502.202    23587519.564
       219.000         163.000
  20869793.980   -20822323.43949 -16212687.95948  20869793.363    20869802.830
       244.000         213.000
  21111279.301   -23781070.66949 -18515643.14847  21111279.395    21111289.840
       238.000         201.000
  20770305.838   -27460554.60149 -21101798.47647  20770305.227    20770314.450
       243.000         212.000
 00  4 21  0  2  0.0000000  0  6G22G26G21G23G 6G17
  23795000.085   -10251632.07649  -7973351.41045  23794999.655    23795013.937
       216.000         156.000
  21779240.633   -20027061.36949 -15350227.05946  21779240.526    21779250.202
       233.000         187.000
  23573044.625    -9084224.34949  -6548116.01646  23573043.122    23573060.385
       218.000         163.000
  20865349.770   -20845677.53549 -16230885.88248  20865349.089    20865358.576
       244.000         214.000
  21124108.143   -23713654.89249 -18463111.45147  21124108.144    21124118.837
       238.000         201.000
  20769628.669   -27464113.05149 -21104571.27247  20769628.056    20769637.387
       243.000         212.000
 00  4 21  0  2 30.0000000  0  6G22G26G21G23G 6G17
  23798440.629   -10233551.93449  -7959263.06545  23798439.503    23798454.846
       217.000         156.000
  21784122.327   -20001407.71249 -15330237.19646  21784122.616    21784132.270
       232.000         187.000
  23558629.047    -9159977.43849  -6607144.04946  23558628.081    23558644.623
       219.000         163.000
  20860982.845   -20868625.62249 -16248767.43748  20860982.372    20860991.629
       244.000         214.000
  21137021.938   -23645792.60249 -18410231.82047  21137021.944    21137032.517
       238.000         201.000
  20768991.532   -27467461.04749 -21107180.08047  20768990.967    20769000.337
       244.000         212.000
 00  4 21  0  3  0.0000000  0  6G22G26G21G23G 6G17
  23801973.285   -10214988.15349  -7944797.85745  23801972.977    23801988.329
       217.000         157.000
  21789124.174   -19975122.93549 -15309755.54146  21789124.233    21789133.970
       232.000         187.000
  23544251.904    -9235528.50149  -6666014.66946  23544250.604    23544267.083
       219.000         163.000
  20856687.587   -20891197.06949 -16266355.50548  20856686.976    20856696.252
       244.000         214.000
  21150019.044   -23577492.73349 -18357011.21047  21150019.086    21150029.672
       238.000         201.000
  20768391.647   -27470613.47949 -21109636.50147  20768391.112    20768400.318
       243.000         212.000
 00  4 21  0  3 30.0000000  0  6G22G26G21G23G 6G17
  23805595.040   -10195956.11549  -7929967.76445  23805594.890    23805609.647
       217.000         157.000
  21794241.735   -19948229.81449 -15288799.86046  21794242.020    21794252.278
       233.000         187.000
  23529910.759    -9310890.38649  -6724737.88346  23529908.863    23529925.625
       219.000         164.000
  20852461.281   -20913406.33349 -16283661.35348  20852460.772    20852470.008
       245.000         214.000
  21163098.610   -23508759.57749 -18303452.97747  21163098.732    21163109.271
       238.000         200.000
  20767827.642   -27473577.27349 -21111945.93047  20767827.023    20767836.105
       244.000         212.000
 00  4 21  0  4  0.0000000  0  7G22G26G21G23G 3G 6G17
  23809303.685   -10176467.25649  -7914781.71345  23809303.442    23809318.126
       217.000         157.000
  21799472.807   -19920740.32649 -15267379.47546  21799472.889    21799483.260
       233.000         187.000
  23515606.116    -9386060.37649  -6783311.56446  23515604.356    23515621.382
       219.000         164.000
  20848309.013   -20935226.33749 -16300663.88148  20848308.466    20848317.686
       246.000         214.000
  24628327.447    -6144917.04549  -4775086.07145  24628327.773    24628340.772
       201.000         142.000
  21176262.888   -23439581.25549 -18249547.86247  21176262.828    21176273.723
       238.000         200.000
  20767299.173   -27476354.42849 -21114109.92547  20767298.458    20767307.825
       244.000         212.000
 00  4 21  0  4 30.0000000  0  7G22G26G21G23G 3G 6G17
  23813101.826   -10156508.50349  -7899229.50145  23813100.164    23813116.061
       217.000         157.000
  21804820.881   -19892636.18149 -15245480.13546  21804820.917    21804831.057
       232.000         187.000
  23501343.029    -9461012.25149  -6841715.29646  23501341.850    23501357.864
       220.000         164.000
  20844232.860   -20956646.36849 -16317354.73948  20844232.128    20844241.513
       245.000         214.000
  24608778.663    -6247646.76049  -4855135.08145  24608778.007    24608792.470
       206.000         143.000
  21189514.994   -23369941.10849 -18195282.87947  21189515.184    21189525.657
       238.000         200.000
  20766811.603   -27478916.52949 -21116106.34447  20766811.146    20766820.199
       243.000         212.000
 00  4 21  0  5  0.0000000  0  7G22G26G21G23G 3G 6G17
  23816986.671   -10136093.89049  -7883322.08645  23816985.864    23817001.337
       216.000         157.000
  21810286.395   -19863914.58549 -15223099.66246  21810286.733    21810296.162
       232.000         187.000
  23487124.406    -9535730.36349  -6899936.86946  23487123.503    23487139.474
       220.000         163.000
  20840230.723   -20977677.27949 -16333742.38848  20840230.199    20840239.293
       245.000         214.000
  24589257.718    -6350230.28149  -4935070.19045  24589257.741    24589270.722
       208.000         144.000
  21202856.215   -23299832.97149 -18140653.24247  21202856.398    21202866.853
       237.000         200.000
  20766363.834   -27481269.65349 -21117939.92547  20766363.256    20766372.449
       243.000         212.000
 00  4 21  0  5 30.0000000  0  7G22G26G21G23G 3G 6G17
  23820958.170   -10115223.63149  -7867059.61345  23820957.994    23820972.558
       217.000         157.000
  21815866.922   -19834588.66149 -15200248.29046  21815866.800    21815877.083
       232.000         186.000
  23472949.583    -9610218.19449  -6957979.01246  23472948.116    23472964.308
       220.000         163.000
  20836301.105   -20998327.21449 -16349833.17448  20836300.309    20836309.559
       245.000         214.000
  24569763.819    -6452670.97549  -5014894.01345  24569763.587    24569777.284
       208.000         143.000
  21216279.650   -23229292.70949 -18085686.88347  21216279.845    21216290.360
       238.000         200.000
  20765952.250   -27483432.49649 -21119625.23547  20765951.521    20765960.936
       243.000         212.000
 00  4 21  0  6  0.0000000  0  7G22G26G21G23G 3G 6G17
  23825016.114   -10093899.37649  -7850443.39245  23825015.385    23825030.530
       216.000         157.000
  21821561.891   -19804661.32949 -15176928.28646  21821562.077    21821572.095
       232.000         186.000
  23458818.708    -9684475.09349  -7015841.20245  23458818.118    23458832.464
       219.000         162.000
  20832442.834   -21018602.24249 -16365631.82348  20832442.190    20832451.576
       245.000         214.000
  24550295.141    -6554979.15349  -5094614.57845  24550294.645    24550307.685
       209.000         143.000
  21229782.350   -23158335.75649 -18030395.82247  21229782.467    21229792.993
       238.000         200.000
  20765574.848   -27485415.59949 -21121170.48947  20765574.142    20765583.405
       243.000         212.000
 00  4 21  0  6 30.0000000  0  7G22G26G21G23G 3G 6G17
  23829158.861   -10072129.45249  -7833479.89045  23829158.996    23829174.068
       216.000         158.000
  21827370.368   -19774137.40649 -15153143.40246  21827370.406    21827380.438
       232.000         186.000
  23444729.312    -9758513.90849  -7073533.46645  23444728.982    23444744.582
       219.000         162.000
  20828650.409   -21038531.11149 -16381160.74248  20828649.906    20828659.069
       245.000         214.000
  24530849.957    -6657164.12749  -5174239.14845  24530849.956    24530863.345
       209.000         142.000
  21243363.634   -23086966.05049 -17974783.13447  21243363.635    21243374.289
       237.000         200.000
  20765230.771   -27487223.64749 -21122579.33547  20765230.280    20765239.203
       244.000         212.000
 00  4 21  0  7  0.0000000  0  7G22G26G21G23G 3G 6G17
  23833384.021   -10049926.31849  -7816178.82745  23833383.372    23833398.209
       216.000         157.000
  21833290.356   -19743027.64849 -15128902.02846  21833290.288    21833300.640
       232.000         186.000
  23430679.085    -9832346.76449  -7131065.24245  23430678.519    23430693.776
       219.000         162.000
  20824923.990   -21058113.33649 -16396419.54648  20824923.396    20824932.619
       245.000         214.000
  24511427.078    -6759231.92449  -5253772.41045  24511426.283    24511440.624
       209.000         142.000
  21257019.839   -23015202.50549 -17918863.56047  21257020.171    21257030.363
       237.000         199.000
  20764918.422   -27488865.10049 -21123858.36547  20764917.926    20764927.104
       244.000         212.000
 00  4 21  0  7 30.0000000  0  7G22G26G21G23G 3G 6G17
  23837692.854   -10027283.66049  -7798535.28345  23837691.510    23837706.896
       216.000         157.000
  21839320.933   -19711336.77849 -15104207.82946  21839321.033    21839331.188
       232.000         186.000
  23416667.240    -9905978.09949  -7188439.98545  23416666.639    23416682.824
       219.000         162.000
  20821266.658   -21077332.43649 -16411395.39748  20821266.287    20821275.284
       245.000         214.000
  24492024.567    -6861192.55049  -5333222.16945  24492023.625    24492037.905
       209.000         142.000
  21270751.992   -22943039.76449 -17862632.92147  21270752.075    21270762.606
       237.000         199.000
  20764640.323   -27490326.39349 -21124997.01747  20764639.599    20764648.802
       243.000         212.000
 00  4 21  0  8  0.0000000  0  7G22G26G21G23G 3G 6G17
  23842084.240   -10004206.78049  -7780553.36545  23842083.499    23842099.941
       216.000         157.000
  21845463.678   -19679056.46549 -15079054.32746  21845463.990    21845473.753
       232.000         186.000
  23402694.653    -9979403.22949  -7245654.05646  23402694.002    23402709.006
       220.000         163.000
  20817680.053   -21096179.98449 -16426081.72648  20817679.600    20817688.677
       246.000         214.000
  24472641.777    -6963049.74049  -5412591.34945  24472641.323    24472655.731
       208.000         140.000
  21284567.593   -22870438.58549 -17806060.64647  21284567.740    21284577.941
       237.000         199.000
  20764399.696   -27491590.61249 -21125982.10247  20764399.166    20764408.266
       244.000         212.000
 00  4 21  0  8 30.0000000  0  7G22G26G21G23G 3G 6G17
  23846557.889    -9980698.03249  -7762234.94145  23846557.632    23846572.424
       217.000         158.000
  21851720.671   -19646175.74849 -15053432.97946  21851720.778    21851730.937
       231.000         185.000
  23388761.808   -10052619.57449  -7302705.43346  23388761.238    23388775.774
       220.000         163.000
  20814163.471   -21114659.55749 -16440481.32348  20814162.705    20814171.825
       245.000         214.000
  24453278.237    -7064805.45949  -5491881.45245  24453278.148    24453292.109
       208.000         140.000
  21298467.027   -22797396.82049 -17749145.06647  21298467.078    21298478.008
       237.000         199.000
  20764198.050   -27492650.26149 -21126807.78847  20764197.435    20764206.561
       243.000         212.000
 00  4 21  0  9  0.0000000  0  7G22G26G21G23G 3G 6G17
  23851114.835    -9956751.60549  -7743575.47245  23851114.027    23851128.927
       216.000         158.000
  21858093.910   -19612683.84749 -15027335.37546  21858094.066    21858103.769
       232.000         185.000
  23374870.025   -10125620.04749  -7359588.60846  23374869.065    23374884.424
       220.000         164.000
  20810719.061   -21132759.79249 -16454585.33348  20810718.569    20810727.742
       245.000         214.000
  24433932.888    -7166465.92849  -5571097.34145  24433932.840    24433945.320
       208.000         141.000
  21312450.099   -22723915.49049 -17691886.96647  21312450.268    21312460.904
       237.000         198.000
  20764034.095   -27493511.68649 -21127479.01447  20764033.449    20764042.726
       244.000         212.000
 00  4 21  0  9 30.0000000  0  7G22G26G21G23G 3G 6G17
  23855755.177    -9932366.70049  -7724574.33145  23855754.845    23855770.334
       216.000         158.000
  21864583.704   -19578579.81749 -15000760.80246  21864583.374    21864593.703
       232.000         185.000
  23361018.136   -10198411.10449  -7416308.60646  23361016.795    23361032.810
       222.000         165.000
  20807346.809   -21150480.89249 -16468393.91448  20807346.324    20807355.455
       245.000         214.000
  24414607.518    -7268021.46249  -5650231.45145  24414606.450    24414620.350
       208.000         142.000
  21326516.789   -22649994.84049 -17634286.54147  21326517.249    21326527.834
       237.000         198.000
  20763907.131   -27494178.80049 -21127998.82847  20763906.547    20763915.841
       244.000         212.000
 00  4 21  0 10  0.0000000  0  7G22G26G21G23G 3G 6G17
  23860477.934    -9907548.77249  -7705235.78945  23860476.726    23860492.433
       215.000         158.000
  21871190.867   -19543858.82749 -14973705.47846  21871191.129    21871201.289
       232.000         185.000
  23347208.037   -10270982.50849  -7472857.44546  23347207.125    23347222.314
       221.000         165.000
  20804045.044   -21167831.48649 -16481913.79148  20804044.230    20804053.530
       244.000         214.000
  24395302.829    -7369467.87949  -5729280.53845  24395303.413    24395315.429
       207.000         142.000
  21340664.082   -22575650.39649 -17576355.89047  21340664.306    21340674.535
       236.000         198.000
  20763818.854   -27494642.62749 -21128360.24047  20763818.198    20763827.332
       243.000         212.000
 00  4 21  0 10 30.0000000  0  7G22G26G21G23G 3G 6G17
  23865282.849    -9882299.05049  -7685560.78245  23865282.908    23865296.844
       215.000         158.000
  21877914.528   -19508525.65349 -14946173.12846  21877913.915    21877924.450
       232.000         185.000
  23333441.830   -10343323.33549  -7529226.62646  23333440.775    23333455.947
       221.000         165.000
  20800815.618   -21184801.95349 -16495137.46548  20800815.045    20800824.116
       244.000         214.000
  24376019.339    -7470803.04149  -5808242.93545  24376018.783    24376032.636
       211.000         143.000
  21354886.802   -22500910.03449 -17518116.72947  21354887.299    21354897.833
       236.000         198.000
  20763770.060   -27494899.12549 -21128560.09647  20763769.661    20763778.564
       243.000         212.000
 00  4 21  0 11  0.0000000  0  7G22G26G21G23G 3G 6G17
  23870172.501    -9856604.04449  -7665538.80745  23870172.254    23870186.718
       214.000         158.000
  21884753.812   -19472584.93149 -14918167.37246  21884754.430    21884764.099
       231.000         185.000
  23319721.323   -10415423.89649  -7585408.57646  23319720.354    23319735.923
       222.000         166.000
  20797661.573   -21201376.20049 -16508052.40148  20797660.989    20797670.118
       245.000         214.000
  24356762.623    -7571997.32649  -5887095.54345  24356762.214    24356775.024
       210.000         144.000
  21369186.125   -22425766.83749 -17459563.67447  21369185.960    21369196.781
       236.000         197.000
  20763762.141   -27494940.54049 -21128592.36147  20763761.507    20763770.578
       243.000         212.000
 00  4 21  0 11 30.0000000  0  7G22G26G21G23G 3G 6G17
  23875147.122    -9830462.35149  -7645168.77645  23875146.530    23875161.186
       214.000         158.000
  21891707.385   -19436043.60349 -14889693.59946  21891707.816    21891717.670
       231.000         185.000
  23306046.541   -10487284.19549  -7641403.31546  23306045.860    23306060.730
       221.000         166.000
  20794584.090   -21217548.38449 -16520654.03848  20794583.469    20794592.770
       244.000         214.000
  24337536.399    -7673031.43649  -5965823.34445  24337536.164    24337548.969
       211.000         145.000
  21383562.574   -22350218.42349 -17400694.87247  21383562.418    21383573.442
       236.000         197.000
  20763800.470   -27494739.03549 -21128435.34047  20763799.820    20763809.052
       243.000         212.000
 00  4 21  0 12  0.0000000  0  7G22G26G21G23G 3G 6G17
  23880207.314    -9803871.18349  -7624448.49345  23880206.127    23880221.730
       214.000         158.000
  21898777.805   -19398888.26849 -14860741.38646  21898777.702    21898787.935
       231.000         185.000
  23292419.620   -10558892.92049  -7697202.02646  23292418.045    23292433.614
       222.000         167.000
  20791584.508   -21233311.12949 -16532936.63248  20791583.806    20791593.062
       245.000         214.000
  24318343.144    -7773892.18049  -6044416.03645  24318342.732    24318355.771
       210.000         146.000
  21398017.525   -22274257.51749 -17341504.63647  21398017.661    21398028.608
       235.000         197.000
  20763887.656   -27494280.76949 -21128078.24347  20763886.910    20763896.217
       243.000         212.000
 00  4 21  0 12 30.0000000  0  7G22G26G21G23G 3G 6G17
  23885355.317    -9776818.59549  -7603368.66945  23885355.662    23885369.431
       214.000         158.000
  21905963.198   -19361128.60849 -14831318.28346  21905963.427    21905973.720
       231.000         185.000
  23278840.075   -10630252.79849  -7752806.83146  23278839.665    23278854.521
       223.000         167.000
  20788664.958   -21248653.19649 -16544891.43148  20788664.427    20788673.388
       245.000         214.000
  24299187.821    -7874553.54849  -6122853.35845  24299187.043    24299200.807
       210.000         146.000
  21412553.769   -22197869.25949 -17281981.40547  21412553.578    21412565.016
       235.000         196.000
  20764022.315   -27493573.04149 -21127526.76547  20764021.757    20764030.951
       243.000         212.000
 00  4 21  0 13  0.0000000  0  7G22G26G21G23G 3G 6G17
  23890590.324    -9749308.87249  -7581932.64145  23890589.919    23890605.151
       215.000         158.000
  21913262.984   -19322767.98649 -14801426.88946  21913263.224    21913273.163
       232.000         185.000
  23265306.147   -10701372.74949  -7808224.67746  23265304.755    23265319.295
       223.000         168.000
  20785822.340   -21263590.93149 -16556531.16248  20785821.705    20785830.567
       245.000         214.000
  24280072.498    -7975004.79449  -6201126.94645  24280073.295    24280085.482
       209.000         146.000
  21427173.117   -22121044.49049 -17222118.03647  21427173.287    21427184.394
       235.000         196.000
  20764204.277   -27492616.91349 -21126781.72347  20764203.821    20764212.975
       243.000         212.000
 00  4 21  0 13 30.0000000  0  7G22G26G21G23G 3G 6G17
  23895910.007    -9721354.27649  -7560149.95545  23895909.016    23895924.652
       214.000         158.000
  21920678.301   -19283800.39949 -14771062.54646  21920678.260    21920688.551
       232.000         185.000
  23251817.639   -10772253.94249  -7863456.48146  23251815.893    23251831.041
       223.000         168.000
  20783055.723   -21278129.27449 -16567859.68048  20783055.220    20783064.097
       244.000         214.000
  24260993.626    -8075264.56749  -6279251.30845  24260993.664    24261005.105
       209.000         146.000
  21441873.169   -22043795.38149 -17161924.01447  21441873.250    21441884.345
       235.000         196.000
  20764433.451   -27491412.51649 -21125843.23047  20764432.892    20764442.043
       243.000         212.000
 00  4 21  0 14  0.0000000  0  7G22G26G21G23G 3G 6G17
  23901313.848    -9692957.67749  -7538022.85345  23901313.195    23901328.212
       214.000         158.000
  21928207.453   -19244234.77549 -14740232.19646  21928207.518    21928217.653
       231.000         185.000
  23238376.306   -10842887.61749  -7918495.41146  23238375.358    23238390.107
       223.000         169.000
  20780363.275   -21292278.03249 -16578884.62148  20780362.544    20780371.522
       245.000         214.000
  24241951.281    -8175332.43149  -6357226.13845  24241951.027    24241964.385
       210.000         146.000
  21456653.573   -21966124.01949 -17101400.96747  21456653.948    21456664.658
       235.000         195.000
  20764706.120   -27489979.59749 -21124726.66347  20764705.673    20764714.906
       243.000         212.000
 00  4 21  0 14 30.0000000  0  7G22G26G21G23G 3G 6G17
  23906801.923    -9664118.19549  -7515550.64145  23906801.046    23906816.466
       215.000         158.000
  21935848.564   -19204080.13649 -14708942.87646  21935848.688    21935858.852
       231.000         184.000
  23224981.452   -10913277.05349  -7973344.04446  23224980.660    23224995.242
       223.000         170.000
  20777740.989   -21306057.91649 -16589622.13448  20777740.410    20777749.467
       245.000         214.000
  24222940.557    -8275234.13449  -6435071.46945  24222939.538    24222954.219
       209.000         146.000
  21471514.048   -21888031.93349 -17040550.08447  21471514.210    21471525.254
       234.000         195.000
  20765019.596   -27488332.37749 -21123443.10947  20765019.106    20765028.177
       243.000         212.000
 00  4 21  0 15  0.0000000  0  7G22G26G21G23G 3G 6G17
  23912369.974    -9634858.19749  -7492750.76345  23912368.612    23912384.992
       213.000         159.000
  21943604.626   -19163321.70249 -14677183.06846  21943604.529    21943614.273
       231.000         184.000
  23211629.761   -10983439.64249  -8028015.90346  23211628.204    23211643.033
       222.000         170.000
  20775184.928   -21319489.85949 -16600088.52548  20775184.319    20775193.193
       245.000         214.000
  24203956.630    -8374994.82849  -6512806.93045  24203956.649    24203969.378
       210.000         147.000
  21486449.675   -21809544.91749 -16979391.46347  21486450.050    21486460.967
       234.000         195.000
  20765371.486   -27486483.09049 -21122002.09447  20765371.003    20765380.107
       243.000         212.000
 00  4 21  0 15 30.0000000  0  7G22G26G21G23G 3G 6G17
  23918017.474    -9605180.68449  -7469625.54345  23918017.241    23918033.169
       214.000         158.000
  21951474.029   -19121967.64249 -14644959.12746  21951474.051    21951484.248
       231.000         184.000
  23198319.334   -11053385.18849  -8082518.64446  23198317.899    23198332.712
       223.000         170.000
  20772693.485   -21332582.12449 -16610290.23248  20772692.924    20772701.783
       245.000         214.000
  24184997.094    -8474627.40849  -6590442.54245  24184995.886    24185008.895
       210.000         147.000
  21501458.456   -21730673.77949 -16917933.53647  21501458.530    21501469.680
       234.000         194.000
  20765758.359   -27484450.08449 -21120417.92647  20765757.915    20765766.951
       243.000         212.000
 00  4 21  0 16  0.0000000  0  7G22G26G21G23G 3G 6G17
  23923743.671    -9575089.90749  -7446178.30545  23923743.187    23923758.080
       213.000         158.000
  21959453.767   -19080033.95249 -14612283.52946  21959453.926    21959463.577
       231.000         184.000
  23185049.052   -11123120.09549  -8136857.25346  23185047.496    23185062.757
       223.000         171.000
  20770264.640   -21345345.56049 -16620235.70848  20770263.975    20770272.955
       245.000         214.000
  24166062.060    -8574131.29549  -6667977.87745  24166061.384    24166074.638
       209.000         147.000
  21516539.953   -21651420.38949 -16856177.75747  21516540.159    21516551.160
       234.000         194.000
  20766177.766   -27482246.07249 -21118700.50447  20766177.025    20766186.344
       243.000         212.000
 00  4 21  0 16 30.0000000  0  7G22G26G21G23G 3G 6G17
  23929546.227    -9544597.38449  -7422418.01345  23929545.550    23929561.258
       214.000         158.000
  21967544.813   -19037515.12749 -14579151.98646  21967545.235    21967555.088
       231.000         184.000
  23171817.265   -11192652.44649  -8191038.03146  23171815.736    23171831.022
       223.000         171.000
  20767897.948   -21357782.46949 -16629926.74948  20767897.324    20767906.243
       245.000         214.000
  24147149.098    -8673518.90449  -6745422.61045  24147147.837    24147161.322
       209.000         148.000
  21531691.115   -21571801.11449 -16794136.86047  21531691.220    21531702.020
       234.000         194.000
  20766628.364   -27479878.21449 -21116855.40947  20766627.943    20766636.985
       243.000         212.000
 00  4 21  0 17  0.0000000  0  7G22G26G21G23G 3G 6G17
  23935424.193    -9513709.19649  -7398349.41245  23935423.401    23935439.206
       214.000         158.000
  21975744.994   -18994423.20149 -14545573.86846  21975745.068    21975755.021
       230.000         184.000
  23158625.020   -11261976.95049  -8245056.85246  23158623.848    23158638.339
       224.000         172.000
  20765597.962   -21369868.75849 -16639344.57848  20765597.376    20765606.296
       244.000         214.000
  24128261.322    -8772774.16249  -6822764.22445  24128260.643    24128273.732
       211.000         149.000
  21546911.815   -21491816.25349 -16731811.09547  21546912.043    21546922.563
       234.000         194.000
  20767110.349   -27477345.32649 -21114881.72347  20767109.859    20767118.886
       243.000         212.000
 00  4 21  0 17 30.0000000  0  7G22G26G21G23G 3G 6G17
  23941379.182    -9482415.96849  -7373965.20545  23941378.419    23941394.627
       213.000         158.000
  21984052.365   -18950767.61849 -14511556.54246  21984052.377    21984062.872
       230.000         184.000
  23145477.700   -11331065.23549  -8298891.61446  23145476.150    23145491.194
       223.000         172.000
  20763368.119   -21381586.36749 -16648475.12848  20763367.460    20763376.396
       245.000         214.000
  24109402.347    -8871877.84049  -6899987.72745  24109402.378    24109414.595
       210.000         150.000
  21562204.746   -21411451.51849 -16669189.33247  21562204.846    21562215.749
       234.000         193.000
  20767627.031   -27474630.08749 -21112765.94647  20767626.521    20767635.522
       243.000         212.000
 00  4 21  0 18  0.0000000  0  7G22G26G21G23G 3G 6G17
  23947411.112    -9450718.11949  -7349265.69645  23947410.603    23947426.387
       213.000         158.000
  21992469.100   -18906537.44549 -14477091.47846  21992468.781    21992479.247
       230.000         183.000
  23132377.562   -11399905.87549  -8352533.41146  23132376.629    23132390.417
       222.000         172.000
  20761209.928   -21392927.34049 -16657312.19148  20761209.344    20761218.018
       245.000         214.000
  24090577.157    -8970804.29449  -6977073.14545  24090576.581    24090589.673
       211.000         151.000
  21577569.469   -21330709.74849 -16606273.76347  21577569.629    21577580.333
       233.000         193.000
  20768181.879   -27471714.22849 -21110493.83947  20768181.377    20768190.689
       243.000         211.000
 00  4 21  0 18 30.0000000  0  7G22G26G21G23G 3G 6G17
  23953520.145    -9418615.36149  -7324250.67745  23953519.144    23953535.702
       213.000         157.000
  22000995.490   -18861730.60249 -14442177.06146  22000995.867    22001005.505
       230.000         183.000
  23119323.399   -11468504.84649  -8405986.89846  23119321.956    23119336.684
       222.000         172.000
  20759123.957   -21403888.77549 -16665853.51448  20759123.418    20759132.262
       244.000         214.000
  24071787.952    -9069541.83349  -7054011.35445  24071787.538    24071800.436
       208.000         150.000
  21593009.122   -21249574.22249 -16543051.37547  21593009.690    21593020.616
       234.000         193.000
  20768779.240   -27468575.05749 -21108047.72247  20768778.804    20768787.924
       243.000         211.000
 00  4 21  0 19  0.0000000  0  7G22G26G21G23G 3G 6G17
  23959707.165    -9386102.87649  -7298916.40545  23959706.440    23959721.930
       212.000         157.000
  22009629.936   -18816356.42449 -14406820.56446  22009630.370    22009640.159
       230.000         183.000
  23106314.474   -11536866.07649  -8459255.14246  23106313.572    23106327.658
       224.000         172.000
  20757110.305   -21414470.50349 -16674098.96448  20757109.832    20757118.772
       245.000         214.000
  24053037.244    -9168076.95549  -7130791.83345  24053037.229    24053049.530
       207.000         149.000
  21608526.122   -21168032.26549 -16479512.29547  21608526.378    21608537.197
       234.000         192.000
  20769423.127   -27465191.36749 -21105411.07347  20769422.368    20769431.544
       243.000         211.000
 00  4 21  0 19 30.0000000  0  7G22G26G21G23G 3G 6G17
  23965972.513    -9353178.59749  -7273261.24145  23965971.863    23965987.740
       212.000         156.000
  22018373.839   -18770406.90949 -14371015.75346  22018374.057    22018384.014
       230.000         183.000
  23093349.455   -11604996.73249  -8512343.71246  23093348.028    23093361.912
       223.000         172.000
  20755165.522   -21424690.16349 -16682062.28248  20755164.928    20755173.719
       244.000         214.000
  24034327.004    -9266399.35749  -7207406.56745  24034325.503    24034340.014
       205.000         148.000
  21624119.815   -21086087.37949 -16415659.25547  21624120.083    21624131.421
       234.000         192.000
  20770116.630   -27461546.94349 -21102571.25747  20770115.998    20770124.932
       243.000         211.000
 00  4 21  0 20  0.0000000  0  7G22G26G21G23G 3G 6G17
  23972317.675    -9319835.11149  -7247279.42545  23972317.240    23972333.198
       212.000         156.000
  22027225.189   -18723892.75749 -14334770.96946  22027224.710    22027235.562
       230.000         183.000
  23080424.704   -11672915.58149  -8565267.24946  23080423.495    23080438.160
       224.000         172.000
  20753288.338   -21434554.59149 -16689748.80048  20753287.778    20753296.546
       245.000         214.000
  24015655.312    -9364519.32749  -7283863.53945  24015654.788    24015666.726
       207.000         148.000
  21639790.273   -21003738.97749 -16351491.77547  21639790.685    21639801.721
       233.000         192.000
  20770859.855   -27457641.20749 -21099527.82147  20770859.423    20770868.485
       243.000         211.000
 00  4 21  0 20 30.0000000  0  7G22G26G21G23G 3G 6G17
  23978742.795    -9286071.58249  -7220970.30645  23978742.152    23978757.380
       212.000         155.000
  22036184.555   -18676810.86349 -14298083.78446  22036184.757    22036195.024
       230.000         182.000
  23067540.555   -11740621.10549  -8618024.55946  23067539.225    23067553.097
       223.000         172.000
  20751480.850   -21444052.92049 -16697150.04448  20751480.209    20751489.146
       244.000         215.000
  23997017.885    -9462459.34749  -7360180.31245  23997016.661    23997030.500
       208.000         149.000
  21655539.217   -20920978.13749 -16287002.91747  21655539.382    21655550.644
       233.000         192.000
  20771650.305   -27453487.35149 -21096291.04647  20771649.556    20771658.739
       243.000         211.000
 00  4 21  0 21  0.0000000  0  7G22G26G21G23G 3G 6G17
  23985248.344    -9251884.90149  -7194331.46445  23985248.068    23985263.619
       211.000         155.000
  22045254.668   -18629147.30349 -14260943.35046  22045254.618    22045265.052
       230.000         182.000
  23054699.038   -11808102.62549  -8670607.31846  23054697.435    23054711.849
       223.000         172.000
  20749743.813   -21453180.83649 -16704262.65048  20749743.182    20749751.998
       244.000         215.000
  23978416.916    -9560207.53349  -7436347.59945  23978416.787    23978428.937
       212.000         150.000
  21671362.680   -20837825.66749 -16222208.88947  21671362.968    21671374.093
       233.000         191.000
  20772484.971   -27449101.14649 -21092873.21247  20772484.418    20772493.354
       243.000         211.000
 00  4 21  0 21 30.0000000  0  7G22G26G21G23G 3G 6G17
  23991833.731    -9217279.12749  -7167366.06345  23991833.519    23991848.914
       211.000         155.000
  22054435.752   -18580900.32149 -14223348.29846  22054436.241    22054446.068
       230.000         182.000
  23041900.870   -11875356.55049  -8723012.73346  23041899.415    23041913.856
       224.000         173.000
  20748077.017   -21461939.53249 -16711087.56048  20748076.396    20748085.175
       245.000         215.000
  23959853.140    -9657760.24049  -7512362.56645  23959852.889    23959865.900
       212.000         152.000
  21687258.388   -20754293.68449 -16157119.13747  21687258.743    21687270.276
       233.000         191.000
  20773361.336   -27444495.71549 -21089284.55947  20773360.832    20773369.994
       243.000         211.000
 00  4 21  0 22  0.0000000  0  7G22G26G21G23G 3G 6G17
  23998495.249    -9182273.29649  -7140088.92245  23998494.818    23998510.768
       210.000         154.000
  22063727.573   -18532071.59749 -14185299.95746  22063727.679    22063737.925
       229.000         182.000
  23029147.315   -11942375.91449  -8775235.37846  23029146.783    23029160.486
       223.000         173.000
  20746481.048   -21470326.19949 -16717622.58348  20746480.660    20746489.338
       244.000         215.000
  23941325.255    -9755124.25349  -7588230.51945  23941324.036    23941336.904
       212.000         153.000
  21703226.930   -20670378.82149 -16091731.03547  21703227.099    21703238.334
       232.000         191.000
  20774276.891   -27439684.30949 -21085535.40847  20774276.278    20774285.555
       242.000         211.000
 00  4 21  0 22 30.0000000  0  7G22G26G21G23G 3G 6G17
  24005228.330    -9146890.85849  -7112518.33445  24005227.377    24005244.221
       212.000         153.000
  22073131.598   -18482653.34049 -14146792.23846  22073131.449    22073141.664
       230.000         182.000
  23016438.695   -12009159.29649  -8827274.13646  23016437.982    23016451.857
       223.000         173.000
  20744955.111   -21478345.03149 -16723870.98248  20744954.657    20744963.380
       244.000         214.000
  23922835.518    -9852287.73149  -7663942.19345  23922835.146    23922847.797
       213.000         154.000
  21719267.674   -20586084.44049 -16026047.21947  21719267.914    21719278.983
       232.000         191.000
  20775230.154   -27434674.77249 -21081631.86047  20775229.588    20775238.621
       243.000         211.000
 00  4 21  0 23  0.0000000  0  7G22G26G21G23G 3G 6G17
  24012032.701    -9111134.12049  -7084656.08345  24012032.786    24012048.121
       211.000         153.000
  22082643.866   -18432665.93549 -14107841.02046  22082643.414    22082654.132
       230.000         182.000
  23003773.270   -12075715.30549  -8879135.72246  23003772.320    23003786.022
       222.000         173.000
  20743497.054   -21486007.06449 -16729841.35448  20743496.466    20743505.431
       245.000         214.000
  23904387.800    -9949230.57749  -7739481.95045  23904387.747    23904399.716
       214.000         156.000
  21735378.828   -20501420.10849 -15960075.12547  21735379.210    21735390.578
       233.000         190.000
  20776223.945   -27429452.31749 -21077562.40547  20776223.430    20776232.348
       243.000         211.000
 00  4 21  0 23 30.0000000  0  7G22G26G21G23G 3G 6G17
  24018908.572    -9075001.39849  -7056500.86745  24018908.406    24018924.168
       208.000         151.000
  22092262.311   -18382120.65949 -14068455.10046  22092262.285    22092272.379
       229.000         182.000
  22991151.979   -12142039.64249  -8930816.79246  22991151.387    22991165.142
       224.000         173.000
  20742108.135   -21493305.74849 -16735528.59748  20742107.588    20742116.401
       244.000         214.000
  23885980.164   -10045962.73549  -7814857.53145  23885979.650    23885991.962
       215.000         157.000
  21751561.856   -20416378.05949 -15893808.70647  21751562.187    21751573.515
       233.000         190.000
  20777259.664   -27424009.67749 -21073321.38147  20777259.153    20777268.195
       243.000         211.000
 00  4 21  0 24  0.0000000  0  8G22G26G21G23G 3G 6G17G29
  24025855.147    -9038496.75649  -7028055.84945  24025855.227    24025870.189
       209.000         151.000
  22101986.381   -18331020.34849 -14028636.68646  22101986.383    22101996.353
       228.000         182.000
  22978573.548   -12208139.00049  -8982322.54446  22978572.695    22978586.540
       222.000         173.000
  20740785.388   -21500256.50149 -16740944.72248  20740784.963    20740793.620
       244.000         214.000
  23867611.000   -10142493.34049  -7890076.05245  23867610.857    23867623.556
       215.000         158.000
  21767815.707   -20330964.12249 -15827252.51247  21767816.154    21767827.214
       232.000         190.000
  20778336.560   -27418350.47149 -21068911.60147  20778336.007    20778345.318
       243.000         211.000
  24447454.505    -4523318.98149  -3503994.93144  24447454.350    24447477.608
       197.000         131.000
 00  4 21  0 24 30.0000000  0  8G22G26G21G23G 3G 6G17G29
  24032877.263    -9001596.25049  -6999302.36745  24032876.756    24032893.119
       207.000         151.000
  22111815.641   -18279367.18849 -13988387.47846  22111816.458    22111824.948
       228.000         182.000
  22966038.914   -12274008.01649  -9033648.80346  22966037.803    22966051.804
       224.000         173.000
  20739530.312   -21506851.71849 -16746083.80448  20739529.702    20739538.504
       244.000         214.000
  23849283.219   -10238805.95549  -7965124.70945  23849283.075    23849295.006
       216.000         158.000
  21784139.345   -20245183.30749 -15760410.43847  21784139.194    21784151.016
       232.000         189.000
  20779457.889   -27412457.81149 -21064319.91547  20779457.411    20779466.409
       243.000         211.000
  24426809.266    -4631808.19749  -3588531.31845  24426807.043    24426831.996
       201.000         136.000
 00  4 21  0 25  0.0000000  0  8G22G26G21G23G 3G 6G17G29
  24039976.863    -8964288.22349  -6970231.34445  24039976.021    24039992.224
       208.000         150.000
  22121749.922   -18227162.42149 -13947708.45346  22121750.351    22121760.664
       229.000         182.000
  22953550.709   -12339632.92449  -9084784.86946  22953550.458    22953563.061
       225.000         174.000
  20738343.351   -21513089.01649 -16750943.99048  20738342.884    20738351.561
       244.000         214.000
  23830997.249   -10334898.94749  -8040002.23345  23830996.245    23831008.595
       212.000         158.000
  21800531.724   -20159041.29149 -15693286.91547  21800531.966    21800543.855
       232.000         189.000
  20780626.181   -27406318.35049 -21059535.91547  20780625.702    20780634.718
       242.000         211.000
  24406165.666    -4740288.50849  -3673060.78945  24406163.694    24406188.244
       203.000         141.000
 00  4 21  0 25 30.0000000  0  8G22G26G21G23G 3G 6G17G29
  24047151.655    -8926585.17249  -6940852.50645  24047151.973    24047167.659
       208.000         150.000
  22131790.144   -18174400.93749 -13906595.62246  22131790.190    22131800.108
       229.000         182.000
  22941109.717   -12405009.68549  -9135727.55646  22941108.531    22941122.618
       224.000         174.000
  20737222.109   -21518980.90449 -16755535.02348  20737221.540    20737230.289
       244.000         214.000
  23812750.701   -10430784.16749  -8114717.86045  23812750.066    23812762.139
       215.000         158.000
  21816991.264   -20072546.20849 -15625888.26747  21816991.291    21817003.208
       232.000         188.000
  20781841.668   -27399930.98649 -21054558.74447  20781841.091    20781850.265
       243.000         211.000
  24385524.805    -4848754.71349  -3757579.26745  24385522.954    24385546.926
       210.000         143.000
 00  4 21  0 26  0.0000000  0  8G22G26G21G23G 3G 6G17G29
  24054397.945    -8888506.30649  -6911180.81845  24054397.507    24054414.585
       209.000         150.000
  22141935.888   -18121084.75549 -13865050.55046  22141936.067    22141945.511
       229.000         182.000
  22928716.464   -12470135.78349  -9186474.92446  22928715.111    22928729.138
       225.000         174.000
  20736164.286   -21524539.50349 -16759866.34748  20736163.663    20736172.447
       244.000         214.000
  23794542.951   -10526466.03149  -8189275.01345  23794542.351    23794554.935
       215.000         157.000
  21833517.113   -19985702.68249 -15558218.10947  21833516.901    21833528.683
       233.000         188.000
  20783103.340   -27393300.73949 -21049392.31247  20783102.707    20783111.661
       243.000         211.000
  24364884.228    -4957219.02549  -3842096.25445  24364883.502    24364906.378
       211.000         141.000
 00  4 21  0 26 30.0000000  0  8G22G26G21G23G 3G 6G17G29
  24061713.011    -8850065.92049  -6881227.43845  24061712.353    24061729.023
       209.000         150.000
  22152185.708   -18067221.51249 -13823079.20746  22152186.390    22152195.669
       229.000         181.000
  22916371.400   -12535008.50149  -9237024.86346  22916370.707    22916384.378
       225.000         175.000
  20735170.694   -21529760.64849 -16763934.71848  20735170.210    20735178.844
       244.000         214.000
  23776373.653   -10621945.83149  -8263674.73445  23776372.680    23776386.337
       216.000         156.000
  21850108.088   -19898516.91649 -15490281.26747  21850107.895    21850119.870
       232.000         188.000
  20784413.267   -27386416.98549 -21044028.34247  20784412.621    20784421.865
       243.000         211.000
  24344243.477    -5065684.67749  -3926614.34245  24344241.922    24344265.476
       214.000         140.000
 00  4 21  0 27  0.0000000  0  8G22G26G21G23G 3G 6G17G29
  24069094.951    -8811274.19149  -6851000.27945  24069094.682    24069111.382
       205.000         149.000
  22162543.273   -18012792.12449 -13780666.70646  22162543.231    22162552.961
       228.000         181.000
  22904075.805   -12599621.55049  -9287372.46346  22904074.779    22904088.194
       225.000         175.000
  20734241.522   -21534643.42749 -16767739.43048  20734240.914    20734249.713
       244.000         214.000
  23758243.686   -10717218.68549  -8337913.18845  23758242.821    23758255.618
       215.000         155.000
  21866764.635   -19810986.68249 -15422076.00647  21866764.514    21866776.462
       232.000         188.000
  20785769.757   -27379288.45849 -21038473.63847  20785769.391    20785778.451
       243.000         211.000
  24323603.170    -5174147.85349  -4011130.48945  24323600.492    24323623.772
       214.000         137.000
 00  4 21  0 27 30.0000000  0  8G22G26G21G23G 3G 6G17G29
  24076543.603    -8772132.08549  -6820500.10845  24076543.386    24076559.401
       207.000         149.000
  22173008.229   -17957798.44949 -13737814.50046  22173008.775    22173018.210
       229.000         181.000
  22891828.887   -12663978.59149  -9337520.57246  22891828.677    22891841.284
       228.000         175.000
  20733376.318   -21539189.91849 -16771282.10148  20733375.953    20733384.602
       245.000         214.000
  23740155.166   -10812273.68549  -8411981.88945  23740154.663    23740166.000
       216.000         154.000
  21883487.161   -19723109.78349 -15353600.61847  21883487.297    21883499.244
       231.000         188.000
  20787168.589   -27371937.71649 -21032745.78447  20787168.133    20787177.361
       243.000         211.000
  24302964.659    -5282601.37049  -4095639.14545  24302963.169    24302983.928
       211.000         135.000
 00  4 21  0 28  0.0000000  0  8G22G26G21G23G 3G 6G17G29
  24084059.040    -8732638.11449  -6789725.74945  24084058.133    24084074.969
       206.000         149.000
  22183578.674   -17902250.14649 -13694530.11546  22183578.738    22183589.082
       229.000         181.000
  22879630.028   -12728083.19949  -9387471.98046  22879629.252    22879642.352
       226.000         175.000
  20732575.480   -21543398.34049 -16774561.33848  20732575.027    20732583.619
       244.000         214.000
  23722110.124   -10907100.26649  -8485872.58945  23722110.065    23722121.787
       216.000         154.000
  21900275.638   -19634885.98249 -15284854.94246  21900275.285    21900287.238
       231.000         187.000
  20788605.706   -27364385.51549 -21026860.94747  20788605.128    20788614.114
       243.000         211.000
  24282325.518    -5391058.29649  -4180150.42945  24282323.207    24282347.206
       212.000         133.000
 00  4 21  0 28 30.0000000  0  8G22G26G21G23G 3G 6G17G29
  24091645.121    -8692773.68049  -6758662.73245  24091644.502    24091660.337
       205.000         149.000
  22194252.463   -17846159.01449 -13650822.76146  22194252.968    22194262.753
       226.000         181.000
  22867475.838   -12791952.88149  -9437240.33346  22867474.976    22867487.964
       225.000         175.000
  20731838.697   -21547270.02349 -16777578.18748  20731838.167    20731846.674
       244.000         214.000
  23704111.590   -11001682.73949  -8559573.07145  23704111.335    23704123.035
       214.000         154.000
  21917128.236   -19546325.19949 -15215846.66746  21917128.058    21917140.434
       231.000         187.000
  20790080.981   -27356632.98149 -21020820.00947  20790080.437    20790089.580
       243.000         211.000
  24261687.956    -5499506.88649  -4264655.24145  24261686.514    24261710.399
       215.000         134.000
 00  4 21  0 29  0.0000000  0  8G22G26G21G23G 3G 6G17G29
  24099304.640    -8652523.62949  -6727299.21745  24099304.589    24099320.803
       208.000         148.000
  22205026.918   -17789538.92549 -13606703.22946  22205026.580    22205036.961
       228.000         180.000
  22855363.157   -12855604.58149  -9486838.83446  22855362.222    22855374.917
       226.000         176.000
  20731165.619   -21550806.84449 -16780334.09748  20731165.223    20731173.626
       244.000         214.000
  23686159.935   -11096018.78749  -8633081.54345  23686159.223    23686171.495
       213.000         154.000
  21934046.556   -19457419.33849 -15146569.50246  21934046.905    21934058.862
       232.000         186.000
  20791591.222   -27348696.65249 -21014635.85147  20791590.731    20791599.855
       243.000         211.000
  24241050.797    -5607953.52249  -4349158.53445  24241049.910    24241072.141
       211.000         136.000
 00  4 21  0 29 30.0000000  0  8G22G26G21G23G 3G 6G17G29
  24107038.704    -8611881.75149  -6695630.38045  24107038.035    24107055.023
       206.000         149.000
  22215897.737   -17732412.32849 -13562189.01346  22215898.314    22215908.150
       228.000         180.000
  22843289.838   -12919049.45449  -9536276.16546  22843289.010    22843303.063
       225.000         176.000
  20730554.838   -21554016.37949 -16782834.98348  20730554.126    20730562.717
       244.000         214.000
  23668254.842   -11190110.08449  -8706399.28345  23668254.388    23668267.703
       214.000         154.000
  21951031.876   -19368161.45949 -15077018.04546  21951032.157    21951043.769
       232.000         186.000
  20793140.689   -27340554.11049 -21008291.00947  20793140.239    20793149.219
       243.000         211.000
  24220412.234    -5716407.67149  -4433667.67545  24220409.619    24220434.414
       213.000         138.000
 00  4 21  0 30  0.0000000  0  8G22G26G21G23G 3G 6G17G29
  24114847.734    -8570845.91249  -6663654.55645  24114847.898    24114864.174
       207.000         148.000
  22226864.566   -17674781.51649 -13517281.90846  22226864.842    22226874.925
       228.000         180.000
  22831256.496   -12982284.09549  -9585549.69146  22831255.251    22831267.958
       226.000         176.000
  20730005.748   -21556901.52049 -16785083.09748  20730005.086    20730013.710
       244.000         214.000
  23650393.707   -11283970.54349  -8779537.15345  23650392.874    23650404.644
       215.000         155.000
  21968084.367   -19278550.56149 -15007191.51146  21968084.861    21968096.668
       231.000         186.000
  20794734.123   -27332180.55549 -21001766.16247  20794733.546    20794742.991
       243.000         211.000
  24199772.860    -5824865.88349  -4518179.98145  24199771.037    24199794.180
       205.000         139.000
 00  4 21  0 30 30.0000000  0  8G22G26G21G23G 3G 6G17G29
  24122731.358    -8529417.72749  -6631373.00745  24122731.121    24122748.046
       207.000         148.000
  22237928.426   -17616640.50449 -13471977.23946  22237928.832    22237938.590
       227.000         180.000
  22819263.025   -13045309.36949  -9634660.06646  22819261.844    22819275.029
       228.000         176.000
  20729518.246   -21559463.11649 -16787079.09748  20729517.893    20729526.477
       244.000         214.000
  23632573.615   -11377615.29949  -8852506.94045  23632573.360    23632584.859
       215.000         156.000
  21985204.281   -19188585.40549 -14937088.92746  21985204.839    21985216.035
       230.000         186.000
  20796373.559   -27323565.37949 -20995053.03747  20796372.991    20796382.047
       243.000         211.000
  24179135.984    -5933310.58949  -4602681.73745  24179135.543    24179157.677
       204.000         138.000
 00  4 21  0 31  0.0000000  0  8G22G26G21G23G 3G 6G17G29
  24130680.626    -8487644.49049  -6598822.59545  24130679.968    24130697.204
       207.000         147.000
  22249086.689   -17558003.25949 -13426285.90446  22249087.377    22249096.970
       228.000         179.000
  22807309.210   -13108126.25349  -9683608.06046  22807308.789    22807320.605
       227.000         176.000
  20729088.447   -21561721.64349 -16788838.94648  20729087.961    20729096.579
       244.000         214.000
  23614789.532   -11471070.66149  -8925329.15245  23614789.342    23614800.625
       218.000         156.000
  22002389.498   -19098277.09749 -14866718.96246  22002389.693    22002401.726
       230.000         185.000
  20798053.388   -27314737.83949 -20988174.43747  20798052.878    20798061.882
       243.000         211.000
  24158497.829    -6041762.09849  -4687188.80545  24158496.811    24158518.923
       204.000         136.000
 00  4 21  0 31 30.0000000  0  8G22G26G21G23G 3G 6G17G29
  24138700.960    -8445498.02649  -6565981.34845  24138700.765    24138716.715
       208.000         147.000
  22260352.405   -17498801.90349 -13380154.99246  22260352.319    22260362.798
       228.000         179.000
  22795409.122   -13170660.84349  -9732336.08146  22795408.347    22795421.015
       228.000         177.000
  20728726.590   -21563622.94049 -16790320.43148  20728725.962    20728734.563
       244.000         214.000
  23597051.070   -11564286.43449  -8997964.67545  23597050.142    23597062.691
       219.000         157.000
  22019647.602   -19007585.77649 -14796050.54746  22019648.145    22019659.755
       230.000         185.000
  20799783.635   -27305645.20249 -20981089.27247  20799783.070    20799792.009
       243.000         211.000
  24137872.056    -6150148.77149  -4771645.34245  24137870.310    24137891.812
       204.000         136.000
 00  4 21  0 32  0.0000000  0  8G22G26G21G23G 3G 6G17G29
  24146782.795    -8403028.29249  -6532888.21845  24146782.181    24146799.787
       206.000         147.000
  22271722.247   -17439053.08349 -13333597.49246  22271721.948    22271732.776
       227.000         179.000
  22783557.747   -13232939.40549  -9780864.60946  22783556.832    22783569.286
       227.000         177.000
  20728429.595   -21565183.59949 -16791536.48948  20728429.137    20728437.741
       245.000         214.000
  23579353.650   -11657286.70949  -9070432.27845  23579353.843    23579365.179
       217.000         158.000
  22036969.637   -18916558.22549 -14725120.13246  22036969.583    22036981.581
       230.000         185.000
  20801555.293   -27296335.04749 -20973834.61147  20801554.603    20801563.568
       243.000         211.000
  24117255.834    -6258485.35449  -4856062.84645  24117254.062    24117275.655
       200.000         137.000
 00  4 21  0 32 30.0000000  0  8G22G26G21G23G 3G 6G17G29
  24154921.837    -8360257.90049  -6499560.80445  24154920.497    24154938.193
       209.000         147.000
  22283197.281   -17378751.41249 -13286609.19746  22283197.613    22283206.854
       227.000         179.000
  22771752.166   -13294977.28349  -9829205.57846  22771751.245    22771763.685
       227.000         177.000
  20728200.262   -21566388.45149 -16792475.29548  20728199.646    20728208.298
       244.000         214.000
  23561701.847   -11750047.38749  -9142713.17245  23561701.344    23561712.442
       218.000         158.000
  22054354.891   -18825198.75449 -14653931.07046  22054355.238    22054366.794
       230.000         185.000
  20803368.855   -27286804.87649 -20966408.50947  20803368.198    20803377.342
       243.000         211.000
  24096650.210    -6366765.58849  -4940436.42245  24096648.547    24096671.525
       201.000         140.000
 00  4 21  0 33  0.0000000  0  8G22G26G21G23G 3G 6G17G29
  24163118.792    -8317183.25249  -6465996.30445  24163118.051    24163134.650
       207.000         147.000
  22294778.438   -17317892.11449 -13239186.39746  22294778.506    22294788.488
       227.000         178.000
  22759990.499   -13356784.12549  -9877366.52346  22759989.187    22760002.431
       228.000         178.000
  20728040.730   -21567226.69249 -16793128.42948  20728040.276    20728048.740
       245.000         214.000
  23544099.972   -11842545.42349  -9214789.40445  23544099.689    23544111.747
       218.000         159.000
  22071802.352   -18733512.33849 -14582487.24246  22071802.649    22071814.149
       230.000         184.000
  20805227.245   -27277038.91449 -20958798.67747  20805226.701    20805235.856
       243.000         211.000
  24076056.758    -6474982.38549  -5024760.59045  24076055.174    24076077.526
       201.000         142.000
 00  4 21  0 33 30.0000000  0  8G22G26G21G23G 3G 6G17G29
  24171377.011    -8273786.70849  -6432180.98345  24171376.224    24171394.310
       209.000         147.000
  22306464.455   -17256481.91849 -13191334.32146  22306464.446    22306474.710
       227.000         178.000
  22748269.038   -13418379.81149  -9925362.92946  22748267.962    22748279.893
       227.000         178.000
  20727951.559   -21567695.14249 -16793493.41948  20727950.938    20727959.618
       244.000         214.000
  23526549.242   -11934774.58749  -9286656.13545  23526549.059    23526560.459
       219.000         159.000
  22089310.696   -18641506.06449 -14510794.18146  22089310.768    22089323.262
       230.000         184.000
  20807135.950   -27267008.66049 -20950982.90147  20807135.510    20807144.537
       243.000         211.000
  24055477.808    -6583122.81849  -5109025.25545  24055476.430    24055498.474
       202.000         143.000
 00  4 21  0 34  0.0000000  0  8G22G26G21G23G 3G 6G17G29
  24179700.729    -8230046.14149  -6398097.58245  24179700.771    24179717.059
       211.000         148.000
  22318254.703   -17194523.87449 -13143055.35446  22318254.924    22318264.864
       226.000         177.000
  22736589.912   -13479753.07849  -9973186.02946  22736589.457    22736601.999
       228.000         178.000
  20727936.456   -21567774.44049 -16793555.17348  20727935.979    20727944.403
       244.000         214.000
  23509053.897   -12026712.77849  -9358296.13145  23509053.471    23509065.496
       218.000         160.000
  22106881.926   -18549168.88749 -14438843.26946  22106881.994    22106894.296
       229.000         183.000
  20809100.792   -27256683.46349 -20942937.30147  20809100.380    20809109.425
       243.000         211.000
  24034913.739    -6691185.38949  -5193229.25045  24034911.327    24034934.222
       207.000         144.000
 00  4 21  0 34 30.0000000  0  8G22G26G21G23G 3G 6G17G29
  24188094.798    -8185935.68249  -6363725.96745  24188094.720    24188111.959
       211.000         148.000
  22330149.640   -17132015.49749 -13094347.55646  22330149.939    22330159.785
       226.000         177.000
  22724956.754   -13540884.95149 -10020821.03846  22724955.830    22724967.480
       227.000         179.000
  20727995.623   -21567463.24449 -16793312.64648  20727994.978    20728003.709
       244.000         214.000
  23491615.014   -12118354.22449  -9429704.89445  23491614.304    23491626.047
       217.000         160.000
  22124520.600   -18456477.79349 -14366616.59846  22124521.183    22124533.327
       229.000         183.000
  20811125.437   -27246043.92249 -20934646.75647  20811125.088    20811133.911
       243.000         211.000
  24014366.368    -6799160.06949  -5277364.76245  24014365.261    24014386.455
       207.000         146.000
 00  4 21  0 35  0.0000000  0  8G22G26G21G23G 3G 6G17G29
  24196559.608    -8141453.66249  -6329064.82745  24196559.031    24196576.206
       212.000         148.000
  22342144.301   -17068983.20449 -13045231.51146  22342144.515    22342154.844
       225.000         177.000
  22713370.860   -13601768.29549 -10068262.38946  22713369.991    22713382.048
       228.000         179.000
  20728123.313   -21566792.15649 -16792789.68248  20728122.779    20728131.320
       244.000         214.000
  23474228.015   -12209722.77249  -9500901.01145  23474227.361    23474239.034
       217.000         161.000
  22142224.375   -18363444.41249 -14294123.20946  22142224.767    22142236.814
       229.000         183.000
  20813206.073   -27235109.93849 -20926126.77647  20813205.618    20813214.734
       243.000         211.000
  23993831.752    -6907067.90649  -5361448.19445  23993829.687    23993851.987
       209.000         148.000
 00  4 21  0 35 30.0000000  0  8G22G26G21G23G 3G 6G17G29
  24205088.791    -8096633.35049  -6294140.09045  24205088.336    24205104.930
       211.000         148.000
  22354230.558   -17005469.71049 -12995740.50546  22354230.738    22354240.447
       227.000         176.000
  22701831.723   -13662406.08049 -10115512.39146  22701830.560    22701843.161
       228.000         179.000
  20728310.146   -21565810.21649 -16792024.49548  20728309.700    20728318.146
       244.000         214.000
  23456887.979   -12300844.73149  -9571904.98245  23456887.245    23456899.502
       218.000         161.000
  22159986.460   -18270104.71949 -14221391.13646  22159986.511    22159999.110
       228.000         182.000
  20815333.714   -27223929.18949 -20917414.51347  20815333.095    20815341.993
       243.000         210.000
  23973302.468    -7014947.78149  -5445509.83345  23973300.919    23973322.267
       207.000         148.000
 00  4 21  0 36  0.0000000  0  8G22G26G21G23G 3G 6G17G29
  24213685.947    -8051455.68449  -6258936.88945  24213685.634    24213702.321
       211.000         148.000
  22366415.849   -16941435.97649 -12945844.11246  22366415.982    22366426.663
       227.000         176.000
  22690346.879   -13722758.43849 -10162539.99346  22690345.601    22690358.915
       228.000         179.000
  20728558.269   -21564506.10549 -16791008.26248  20728557.868    20728566.318
       245.000         214.000
  23439600.986   -12391688.07949  -9642691.86245  23439600.552    23439611.579
       219.000         162.000
  22177811.651   -18176433.35049 -14148400.61446  22177811.660    22177823.781
       228.000         182.000
  20817509.470   -27212495.49949 -20908505.15347  20817508.868    20817517.905
       243.000         210.000
  23952781.438    -7122784.00349  -5529537.43645  23952780.005    23952801.575
       208.000         147.000
 00  4 21  0 36 30.0000000  0  8G22G26G21G23G 3G 6G17G29
  24222351.584    -8005918.15049  -6223453.28745  24222350.506    24222368.056
       212.000         148.000
  22378699.381   -16876885.67649 -12895545.21246  22378700.008    22378709.568
       226.000         176.000
  22678914.394   -13782835.57349 -10209353.13846  22678913.435    22678925.041
       228.000         180.000
  20728862.496   -21562907.22549 -16789762.34448  20728862.007    20728870.528
       244.000         214.000
  23422367.592   -12482249.81749  -9713259.31746  23422367.163    23422378.693
       221.000         163.000
  22195699.291   -18082433.75149 -14075154.32946  22195699.497    22195712.084
       228.000         181.000
  20819730.590   -27200823.50049 -20899410.10047  20819730.121    20819739.285
       243.000         210.000
  23932269.627    -7230571.96249  -5613527.42845  23932268.146    23932289.252
       210.000         147.000
 00  4 21  0 37  0.0000000  0  8G22G26G21G23G 3G 6G17G29
  24231083.881    -7960030.34049  -6187696.75245  24231083.580    24231101.032
       212.000         149.000
  22391076.422   -16811843.94249 -12844863.36946  22391077.270    22391086.492
       226.000         176.000
  22667529.642   -13842661.92749 -10255970.87546  22667528.996    22667540.601
       228.000         180.000
  20729218.066   -21561038.68149 -16788306.30148  20729217.561    20729226.017
       244.000         214.000
  23405187.438   -12572531.57249  -9783608.61446  23405186.357    23405198.114
       221.000         164.000
  22213643.629   -17988136.12949 -14001675.82646  22213643.904    22213656.179
       227.000         181.000
  20821991.517   -27188942.31249 -20890152.03947  20821990.856    20822000.043
       243.000         210.000
  23911763.756    -7338328.53749  -5697492.96545  23911762.761    23911782.736
       205.000         146.000
 00  4 21  0 37 30.0000000  0  8G22G26G21G23G 3G 6G17G29
  24239877.765    -7913819.24149  -6151688.29545  24239876.912    24239894.281
       212.000         149.000
  22403544.891   -16746321.93549 -12793807.28446  22403545.009    22403555.462
       225.000         175.000
  22656186.620   -13902269.17749 -10302417.88546  22656186.049    22656198.483
       228.000         180.000
  20729622.325   -21558914.00449 -16786650.67148  20729621.801    20729630.099
       244.000         214.000
  23388058.951   -12662541.74949  -9853746.29746  23388058.194    23388069.244
       222.000         166.000
  22231639.357   -17893568.57549 -13927986.99446  22231639.546    22231651.675
       227.000         181.000
  20824290.668   -27176860.20549 -20880737.41347  20824290.054    20824299.097
       243.000         210.000
  23891261.380    -7446066.72949  -5781444.13345  23891260.614    23891280.635
       208.000         144.000
 00  4 21  0 38  0.0000000  0  8G22G26G21G23G 3G 6G17G29
  24248730.748    -7867297.20349  -6115437.54345  24248731.133    24248747.917
       215.000         150.000
  22416102.828   -16680329.61849 -12742384.72246  22416102.895    22416113.137
       225.000         175.000
  22644882.715   -13961670.62649 -10348704.52546  22644882.104    22644894.475
       229.000         180.000
  20730077.864   -21556520.15449 -16784785.29448  20730077.276    20730085.680
       244.000         214.000
  23370980.069   -12752291.47449  -9923681.02646  23370979.138    23370990.788
       222.000         166.000
  22249686.046   -17798732.90249 -13854089.23346  22249686.183    22249699.646
       227.000         180.000
  20826628.555   -27164574.77549 -20871164.35347  20826627.955    20826637.160
       243.000         210.000
  23870762.792    -7553784.89949  -5865379.70845  23870761.196    23870782.136
       210.000         144.000
 00  4 21  0 38 30.0000000  0  8G22G26G21G23G 3G 6G17G29
  24257644.220    -7820457.56349  -6078939.33445  24257643.753    24257660.597
       215.000         150.000
  22428749.942   -16613868.39649 -12690596.78346  22428750.569    22428760.228
       225.000         175.000
  22633617.054   -14020871.53349 -10394834.91446  22633616.773    22633628.583
       230.000         181.000
  20730589.440   -21553831.53049 -16782690.22748  20730588.902    20730597.272
       245.000         214.000
  23353951.316   -12841777.33949  -9993410.15346  23353950.686    23353962.230
       221.000         166.000
  22267785.337   -17703621.36149 -13779976.51646  22267785.313    22267797.478
       227.000         180.000
  20829006.470   -27152078.67749 -20861427.13647  20829005.819    20829015.045
       243.000         210.000
  23850271.647    -7661463.77749  -5949284.67645  23850271.071    23850291.056
       206.000         144.000
 00  4 21  0 39  0.0000000  0  8G22G26G21G23G 3G 6G17G29
  24266614.855    -7773317.43349  -6042206.97045  24266614.352    24266632.180
       215.000         150.000
  22441490.461   -16546916.83349 -12638426.76546  22441490.819    22441500.934
       225.000         175.000
  22622390.020   -14079869.10149 -10440806.85346  22622388.886    22622401.420
       228.000         181.000
  20731162.419   -21550820.48849 -16780343.92048  20731161.835    20731170.334
       244.000         214.000
  23336973.687   -12930994.84149 -10062930.17146  23336972.750    23336984.326
       220.000         166.000
  22285939.891   -17608219.15749 -13705637.30446  22285940.444    22285952.908
       227.000         179.000
  20831426.616   -27139360.66049 -20851516.99947  20831425.954    20831435.077
       243.000         210.000
  23829789.454    -7769095.70049  -6033153.03945  23829788.291    23829808.807
       208.000         145.000
 00  4 21  0 39 30.0000000  0  8G22G26G21G23G 3G 6G17G29
  24275639.555    -7725893.27749  -6005253.28945  24275639.065    24275655.707
       214.000         150.000
  22454328.287   -16479453.76549 -12585858.17246  22454329.371    22454338.308
       225.000         174.000
  22611205.939   -14138641.00249 -10486602.95646  22611205.038    22611217.194
       229.000         182.000
  20731801.631   -21547461.21849 -16777726.27048  20731801.173    20731809.474
       244.000         214.000
  23320048.594   -13019936.35749 -10132235.13246  23320048.087    23320059.795
       220.000         166.000
  22304153.458   -17512506.89749 -13631056.48846  22304153.826    22304166.306
       226.000         179.000
  20833892.957   -27126399.96649 -20841417.75747  20833892.107    20833901.328
       243.000         210.000
  23809317.311    -7876675.20149  -6116980.53945  23809316.033    23809335.444
       212.000         148.000
 00  4 21  0 40  0.0000000  0  8G22G26G21G23G 3G 6G17G29
  24284721.667    -7678167.34549  -5968064.46045  24284721.607    24284738.641
       214.000         149.000
  22467266.586   -16411462.45649 -12532877.96146  22467267.245    22467277.094
       225.000         174.000
  22600069.562   -14197162.39349 -10532203.86046  22600069.398    22600080.818
       229.000         182.000
  20732509.146   -21543742.95249 -16774828.88448  20732508.683    20732516.984
       245.000         214.000
  23303177.680   -13108593.09349 -10201318.19146  23303177.056    23303188.393
       220.000         167.000
  22322430.444   -17416461.12049 -13556215.78546  22322430.943    22322442.922
       227.000         178.000
  20836405.463   -27113196.62149 -20831129.43647  20836404.997    20836414.027
       243.000         210.000
  23788859.693    -7984178.08349  -6200748.34145  23788858.286    23788878.133
       213.000         150.000
 00  4 21  0 40 30.0000000  0  8G22G26G21G23G 3G 6G17G29
  24293861.464    -7630137.97049  -5930639.19545  24293861.260    24293878.222
       214.000         148.000
  22480305.597   -16342941.95449 -12479485.39446  22480305.488    22480315.947
       225.000         173.000
  22588979.290   -14255441.39149 -10577615.88446  22588978.546    22588989.805
       230.000         182.000
  20733281.194   -21539685.81449 -16771667.43848  20733280.738    20733289.151
       244.000         214.000
  23286361.678   -13196961.18549 -10270176.32146  23286361.008    23286372.379
       221.000         167.000
  22340770.524   -17320084.11649 -13481116.98646  22340771.646    22340783.106
       225.000         178.000
  20838966.266   -27099739.46149 -20820643.33147  20838965.644    20838974.608
       243.000         210.000
  23768418.993    -8091592.21949  -6284446.99345  23768417.387    23768437.140
       212.000         152.000
 00  4 21  0 41  0.0000000  0  8G22G26G21G23G 3G 6G17G29
  24303057.852    -7581811.32549  -5892982.26945  24303057.154    24303075.238
       214.000         148.000
  22493440.677   -16273916.82949 -12425699.60946  22493441.375    22493450.944
       225.000         173.000
  22577936.768   -14313469.49449 -10622832.41746  22577935.990    22577947.467
       230.000         182.000
  20734114.364   -21535307.27249 -16768255.55348  20734113.802    20734122.172
       245.000         214.000
  23269601.151   -13285037.74049 -10338807.28346  23269601.260    23269611.629
       221.000         168.000
  22359171.066   -17223389.41849 -13405770.62146  22359171.438    22359184.504
       227.000         178.000
  20841577.209   -27086018.94649 -20809952.02147  20841576.717    20841585.640
       243.000         210.000
  23747993.857    -8198924.74149  -6368082.05645  23747992.497    23748012.348
       213.000         154.000
 00  4 21  0 41 30.0000000  0  8G22G26G21G23G 3G 6G17G29
  24312313.492    -7533173.28549  -5855082.70145  24312313.216    24312330.600
       214.000         148.000
  22506667.828   -16204407.69249 -12371536.67846  22506668.128    22506678.184
       225.000         173.000
  22566944.578   -14371233.03549 -10667842.79746  22566943.620    22566955.564
       230.000         182.000
  20735005.419   -21530624.49249 -16764606.60048  20735004.875    20735013.369
       244.000         214.000
  23252895.635   -13372825.37649 -10407213.10546  23252895.445    23252905.936
       221.000         169.000
  22377629.033   -17126392.79549 -13330189.00046  22377629.569    22377642.311
       225.000         177.000
  20844239.157   -27072030.33049 -20799051.79547  20844238.484    20844247.818
       243.000         210.000
  23727587.890    -8306156.31149  -6451638.45245  23727585.684    23727605.135
       212.000         155.000
 00  4 21  0 42  0.0000000  0  8G22G26G21G23G 3G 6G17G29
  24321628.998    -7484220.86149  -5816938.14745  24321628.367    24321646.333
       215.000         147.000
  22519982.719   -16134437.63649 -12317014.59346  22519982.481    22519992.748
       224.000         173.000
  22555998.674   -14428753.42349 -10712663.70846  22555997.658    22556009.558
       230.000         183.000
  20735950.624   -21525657.16149 -16760735.92148  20735950.090    20735958.494
       244.000         214.000
  23236244.360   -13460327.94349 -10475396.80046  23236243.863    23236255.684
       220.000         169.000
  22396142.167   -17029106.35949 -13254381.55946  22396142.173    22396155.777
       226.000         177.000
  20846951.486   -27057776.93249 -20787945.24347  20846951.216    20846959.982
       243.000         210.000
  23707205.363    -8413264.73049  -6535098.89245  23707203.664    23707222.579
       211.000         155.000
 00  4 21  0 42 30.0000000  0  8G22G26G21G23G 3G 6G17G29
  24331001.596    -7434968.26849  -5778559.71845  24331000.809    24331017.616
       216.000         147.000
  22533381.895   -16064024.67149 -12262147.38846  22533382.274    22533392.287
       223.000         173.000
  22545094.837   -14486052.74849 -10757312.36446  22545093.876    22545105.483
       231.000         183.000
  20736950.232   -21520404.05349 -16756642.55948  20736949.808    20736958.130
       244.000         214.000
  23219649.911   -13547531.87749 -10543347.78346  23219649.001    23219661.135
       222.000         169.000
  22414707.554   -16931545.11749 -13178359.96646  22414707.841    22414720.052
       225.000         176.000
  20849716.327   -27043247.76949 -20776623.81147  20849715.722    20849724.703
       243.000         209.000
  23686843.636    -8520263.59749  -6618473.97345  23686842.180    23686861.028
       211.000         153.000
 00  4 21  0 43  0.0000000  0  8G22G26G21G23G 3G 6G17G29
  24340431.200    -7385416.31249  -5739948.00145  24340431.320    24340448.970
       217.000         147.000
  22546867.151   -15993159.47349 -12206927.78646  22546867.179    22546878.250
       224.000         173.000
  22534234.183   -14543125.09249 -10801784.15746  22534233.535    22534244.999
       230.000         183.000
  20738007.226   -21514849.45949 -16752314.27748  20738006.757    20738014.976
       244.000         214.000
  23203114.724   -13634424.26349 -10611055.98846  23203114.368    23203126.337
       220.000         169.000
  22433324.472   -16833713.39849 -13102127.63046  22433324.802    22433337.161
       225.000         176.000
  20852532.991   -27028445.96149 -20765089.93047  20852532.392    20852541.480
       243.000         210.000
  23666500.006    -8627167.40849  -6701774.98645  23666497.964    23666517.428
       210.000         150.000
 00  4 21  0 43 30.0000000  0  8G22G26G21G23G 3G 6G17G29
  24349916.860    -7335569.65749  -5701106.65345  24349916.454    24349933.344
       216.000         148.000
  22560442.389   -15921820.97949 -12151339.39346  22560441.301    22560453.052
       223.000         172.000
  22523414.699   -14599980.97349 -10846087.27646  22523414.085    22523425.598
       231.000         183.000
  20739120.567   -21508998.85049 -16747755.33148  20739119.946    20739128.269
       245.000         214.000
  23186640.146   -13720998.12449 -10678516.01046  23186640.143    23186650.462
       221.000         169.000
  22451992.234   -16735614.29449 -13025686.94546  22451991.620    22452005.511
       224.000         176.000
  20855400.528   -27013377.03549 -20753347.90447  20855399.697    20855408.803
       243.000         210.000
  23646173.907    -8733978.77549  -6785003.97645  23646172.276    23646191.520
       206.000         148.000
 00  4 21  0 44  0.0000000  0  8G22G26G21G23G 3G 6G17G29
  24359456.795    -7285437.80049  -5662043.07345  24359457.259    24359474.034
       216.000         148.000
  22574108.847   -15850003.35849 -12095377.64946  22574109.109    22574119.090
       223.000         172.000
  22512633.503   -14656636.17449 -10890234.02246  22512632.559    22512643.902
       230.000         183.000
  20740292.466   -21502840.34249 -16742956.46648  20740291.865    20740299.937
       244.000         214.000
  23170228.014   -13807244.08949 -10745720.52346  23170227.465    23170239.229
       222.000         168.000
  22470710.068   -16637252.01949 -12949041.18446  22470710.241    22470723.081
       224.000         175.000
  20858317.354   -26998048.87749 -20741403.88247  20858316.768    20858325.860
       243.000         209.000
  23625861.327    -8840719.00849  -6868177.53245  23625860.137    23625878.319
       207.000         146.000
 00  4 21  0 44 30.0000000  0  8G22G26G21G23G 3G 6G17G29
  24369049.800    -7235027.03549  -5622762.17945  24369050.497    24369066.702
       215.000         148.000
  22587868.393   -15777696.55749 -12039034.72846  22587868.534    22587878.866
       223.000         172.000
  22501893.372   -14713075.31749 -10934212.41946  22501892.194    22501903.754
       231.000         184.000
  20741524.371   -21496366.46949 -16737911.86148  20741523.952    20741532.146
       245.000         214.000
  23153877.802   -13893164.29449 -10812671.18146  23153876.755    23153887.849
       221.000         167.000
  22489477.316   -16538630.14149 -12872193.15746  22489477.669    22489490.795
       224.000         175.000
  20861284.520   -26982456.24749 -20729253.77547  20861284.084    20861292.864
       243.000         209.000
  23605559.953    -8947400.66649  -6951305.46145  23605558.522    23605577.286
       211.000         145.000
 00  4 21  0 45  0.0000000  0  8G22G26G21G23G 3G 6G17G29
  24378697.403    -7184329.21149  -5583257.60045  24378697.159    24378714.606
       215.000         147.000
  22601723.013   -15704890.16649 -11982302.50846  22601723.353    22601733.546
       223.000         172.000
  22491199.615   -14769270.69749 -10978000.86646  22491198.867    22491210.781
       230.000         184.000
  20742815.710   -21489580.35349 -16732623.95248  20742815.278    20742823.656
       244.000         214.000
  23137585.634   -13978779.68649 -10879384.34046  23137584.773    23137595.728
       219.000         167.000
  22508294.962   -16439743.57449 -12795138.87646  22508294.682    22508308.698
       224.000         175.000
  20864300.014   -26966609.67549 -20716905.79347  20864299.456    20864308.495
       242.000         209.000
  23585273.417    -9054004.36849  -7034372.66245  23585272.016    23585290.523
       211.000         145.000
 00  4 21  0 45 30.0000000  0  8G22G26G21G23G 3G 6G17G29
  24388399.261    -7133346.32249  -5543530.88445  24388399.522    24388417.076
       215.000         147.000
  22615670.940   -15631593.53749 -11925188.29946  22615670.717    22615681.334
       224.000         172.000
  22480554.456   -14825210.64549 -11021590.28346  22480553.836    22480565.127
       231.000         185.000
  20744166.973   -21482479.26749 -16727090.60948  20744166.502    20744174.708
       244.000         214.000
  23121349.684   -14064099.48249 -10945867.14746  23121349.093    23121359.880
       219.000         167.000
  22527163.755   -16340587.94549 -12717874.93946  22527164.309    22527177.205
       223.000         174.000
  20867362.408   -26950516.66549 -20704365.77947  20867361.896    20867370.786
       242.000         209.000
  23565006.367    -9160505.91849  -7117360.29045  23565004.697    23565023.241
       213.000         147.000
 00  4 21  0 46  0.0000000  0  8G22G26G21G23G 3G 6G17G29
  24398156.459    -7082072.72549  -5503577.66745  24398155.069    24398175.114
       215.000         146.000
  22629709.190   -15557822.12249 -11867704.12746  22629709.218    22629719.342
       224.000         172.000
  22469959.331   -14880887.62849 -11064974.79246  22469958.841    22469969.874
       231.000         185.000
  20745580.682   -21475050.06449 -16721301.58748  20745580.054    20745588.371
       244.000         214.000
  23105169.437   -14149126.63549 -11012121.92146  23105169.024    23105180.238
       220.000         167.000
  22546086.613   -16241148.31249 -12640389.70146  22546086.759    22546099.820
       223.000         174.000
  20870472.242   -26934174.30449 -20691631.47147  20870471.793    20870480.776
       242.000         209.000
  23544763.102    -9266882.82949  -7200250.80745  23544761.571    23544779.905
       213.000         148.000
 00  4 21  0 46 30.0000000  0  8G22G26G21G23G 3G 6G17G29
  24407970.594    -7030500.02549  -5463391.37045  24407969.854    24407988.984
       214.000         147.000
  22643837.757   -15483576.19549 -11809850.20346  22643837.537    22643848.580
       223.000         171.000
  22459417.005   -14936287.46449 -11108143.33946  22459416.490    22459427.788
       231.000         185.000
  20747055.322   -21467300.51049 -16715262.94148  20747054.583    20747063.069
       244.000         214.000
  23089045.656   -14233857.09749 -11078145.50546  23089044.867    23089055.427
       221.000         167.000
  22565065.980   -16141411.80849 -12562673.14246  22565066.290    22565080.642
       223.000         174.000
  20873630.598   -26917577.04249 -20678698.53847  20873630.137    20873639.383
       242.000         209.000
  23524546.064    -9373121.57049  -7283033.66545  23524544.557    23524562.814
       212.000         150.000
 00  4 21  0 47  0.0000000  0  8G22G26G21G23G 3G 6G17G29
  24417842.124    -6978625.69449  -5422970.05245  24417842.559    24417859.902
       214.000         147.000
  22658054.631   -15408866.15149 -11751634.62546  22658055.704    22658065.097
       223.000         171.000
  22448925.174   -14991422.01249 -11151105.16946  22448924.233    22448935.586
       231.000         185.000
  20748589.831   -21459236.43949 -16708979.21748  20748589.311    20748597.763
       244.000         214.000
  23072981.314   -14318275.21149 -11143925.69346  23072980.878    23072992.076
       221.000         167.000
  22584101.933   -16041377.72649 -12484724.70246  22584102.541    22584115.686
       223.000         173.000
  20876835.449   -26900735.40949 -20665575.18147  20876834.948    20876844.131
       243.000         209.000
  23504356.024    -9479218.60349  -7365706.10245  23504355.094    23504373.067
       213.000         152.000
 00  4 21  0 47 30.0000000  0  8G22G26G21G23G 3G 6G17G29
  24427767.829    -6926466.59549  -5382326.82445  24427767.968    24427785.270
       214.000         147.000
  22672357.767   -15333703.06149 -11693066.03546  22672358.053    22672367.714
       222.000         171.000
  22438478.836   -15046317.23249 -11193880.51046  22438478.325    22438489.234
       231.000         185.000
  20750182.688   -21450865.90649 -16702456.69048  20750182.198    20750190.416
       244.000         214.000
  23056981.552   -14402354.21749 -11209441.65646  23056981.104    23056991.582
       222.000         169.000
  22603193.381   -15941052.27849 -12406549.21846  22603193.685    22603206.790
       223.000         173.000
  20880088.435   -26883640.84749 -20652254.74247  20880088.056    20880096.973
       243.000         209.000
  23484191.544    -9585181.34649  -7448273.90845  23484190.213    23484208.286
       212.000         153.000
 00  4 21  0 48  0.0000000  0  8G22G26G21G23G 3G 6G17G29
  24437745.414    -6874034.91449  -5341471.19845  24437746.410    24437763.868
       215.000         147.000
  22686747.044   -15258087.17549 -11634144.61446  22686747.402    22686757.491
       223.000         171.000
  22428074.896   -15100989.56849 -11236482.17246  22428074.177    22428085.435
       231.000         185.000
  20751830.167   -21442208.25249 -16695710.43448  20751829.677    20751837.856
       244.000         214.000
  23041047.881   -14486085.43149 -11274686.60346  23041047.585    23041058.047
       222.000         169.000
  22622338.445   -15840444.94049 -12328154.08046  22622338.401    22622352.269
       222.000         173.000
  20883389.516   -26866293.72349 -20638737.50347  20883388.861    20883397.746
       243.000         209.000
  23464049.131    -9691028.27149  -7530751.48645  23464047.818    23464065.861
       210.000         153.000
 00  4 21  0 48 30.0000000  0  8G22G26G21G23G 3G 6G17G29
  24447771.010    -6821350.99049  -5300419.01545  24447770.721    24447788.837
       214.000         147.000
  22701222.789   -15182016.43549 -11574868.75846  22701223.480    22701232.942
       223.000         171.000
  22417712.431   -15155444.18649 -11278914.19046  22417711.821    22417722.632
       231.000         186.000
  20753528.748   -21433281.99449 -16688754.87848  20753528.091    20753536.523
       244.000         214.000
  23025180.606   -14569468.02349 -11339659.90446  23025180.139    23025191.042
       223.000         170.000
  22641532.291   -15739581.42549 -12249559.33346  22641532.733    22641545.668
       223.000         173.000
  20886737.602   -26848699.29849 -20625027.56647  20886737.153    20886746.015
       242.000         209.000
  23443924.121    -9796783.30949  -7613157.46245  23443922.390    23443940.293
       210.000         152.000
 00  4 21  0 49  0.0000000  0  8G22G26G21G23G 3G 6G17G29
  24457841.368    -6768432.06749  -5259183.73845  24457841.139    24457859.550
       212.000         146.000
  22715783.054   -15105501.79949 -11515247.01146  22715783.740    22715793.561
       223.000         170.000
  22407389.484   -15209690.85349 -11321184.16546  22407388.558    22407399.972
       232.000         186.000
  20755278.030   -21424089.11549 -16681591.56548  20755277.470    20755285.661
       244.000         214.000
  23009378.596   -14652507.51849 -11404365.86146  23009378.259    23009388.928
       223.000         171.000
  22660771.909   -15638477.31749 -12170777.11646  22660772.963    22660785.579
       222.000         172.000
  20890131.913   -26830862.04249 -20611128.40047  20890131.373    20890140.375
       242.000         209.000
  23423817.114    -9902443.92849  -7695489.89345  23423815.970    23423833.671
       208.000         152.000
 00  4 21  0 49 30.0000000  0  8G22G26G21G23G 3G 6G17G29
  24467955.426    -6715283.04049  -5217769.14645  24467954.877    24467973.954
       211.000         146.000
  22730428.121   -15028541.83649 -11455278.25646  22730428.542    22730438.429
       222.000         170.000
  22397108.565   -15263716.89849 -11363282.22746  22397107.835    22397119.369
       232.000         186.000
  20757077.253   -21414633.99749 -16674223.91048  20757076.675    20757084.835
       244.000         214.000
  22993639.208   -14735218.10449 -11468815.52946  22993638.795    22993649.803
       224.000         171.000
  22680057.278   -15537132.84849 -12091807.60446  22680058.102    22680071.262
       221.000         171.000
  20893573.057   -26812778.71349 -20597037.49547  20893572.331    20893581.583
       243.000         209.000
  23403727.948   -10008010.83749  -7777749.32245  23403726.637    23403743.834
       211.000         153.000
 00  4 21  0 50  0.0000000  0  8G22G26G21G23G 3G 6G17G29
  24478115.825    -6661890.54749  -5176164.86345  24478115.353    24478134.236
       212.000         146.000
  22745155.838   -14951147.34049 -11394970.90246  22745156.536    22745166.049
       221.000         170.000
  22386871.835   -15317510.75249 -11405199.35746  22386870.912    22386882.440
       232.000         186.000
  20758926.905   -21404913.86949 -16666649.75948  20758926.424    20758934.738
       244.000         214.000
  22977960.915   -14817607.71849 -11533015.10846  22977960.819    22977970.849
       223.000         172.000
  22699388.861   -15435545.44749 -12012648.80746  22699388.960    22699402.567
       223.000         171.000
  20897061.206   -26794448.46749 -20582754.19347  20897060.476    20897069.729
       243.000         209.000
  23383657.196   -10113481.10349  -7859933.46545  23383656.551    23383673.403
       212.000         154.000
 00  4 21  0 50 30.0000000  0  8G22G26G21G23G 3G 6G17G29
  24488324.140    -6608246.17149  -5134364.27945  24488323.586    24488342.454
       209.000         145.000
  22759963.596   -14873332.28649 -11334335.84046  22759963.945    22759974.016
       222.000         170.000
  22376681.010   -15371063.21549 -11446928.38846  22376680.187    22376691.783
       232.000         187.000
  20760828.624   -21394920.25449 -16658862.50148  20760828.128    20760836.371
       244.000         214.000
  22962344.594   -14899671.43249 -11596960.72146  22962343.580    22962354.147
       223.000         172.000
  22718767.628   -15333710.22749 -11933296.88746  22718767.365    22718781.406
       222.000         171.000
  20900597.430   -26775865.50349 -20568273.96947  20900597.008    20900606.191
       242.000         209.000
  23363608.729   -10218834.74649  -7942026.74445  23363607.661    23363625.467
       211.000         155.000
 00  4 21  0 51  0.0000000  0  8G22G26G21G23G 3G 6G17G29
  24498581.851    -6554342.30949  -5092361.52545  24498582.005    24498600.516
       208.000         144.000
  22774850.251   -14795102.68549 -11273377.75046  22774849.720    22774860.850
       222.000         170.000
  22366536.354   -15424373.11949 -11488468.41046  22366535.480    22366546.457
       233.000         187.000
  20762783.866   -21384645.23349 -16650855.96548  20762783.434    20762791.676
       244.000         213.000
  22946792.568   -14981397.55749 -11660643.28846  22946791.907    22946802.015
       224.000         172.000
  22738194.614   -15231621.59349 -11853747.52846  22738195.265    22738208.372
       222.000         171.000
  20904184.033   -26757017.72049 -20553587.39347  20904183.455    20904192.510
       242.000         209.000
  23343584.856   -10324059.27049  -8024019.41445  23343583.354    23343600.802
       215.000         156.000
 00  4 21  0 51 30.0000000  0  8G22G26G21G23G 3G 6G17G29
  24508890.115    -6500173.09049  -5050151.98045  24508890.098    24508909.950
       209.000         143.000
  22789816.384   -14716455.38349 -11212094.18046  22789816.588    22789826.851
       223.000         170.000
  22356437.560   -15477442.18349 -11529820.76546  22356437.211    22356447.885
       232.000         187.000
  20764791.887   -21374092.88349 -16642633.33548  20764791.294    20764799.646
       244.000         213.000
  22931307.110   -15062773.66949 -11724053.13046  22931306.937    22931317.788
       225.000         173.000
  22757669.563   -15129280.97949 -11774001.80946  22757669.573    22757683.517
       222.000         171.000
  20907823.105   -26737894.29249 -20538686.02547  20907822.576    20907831.685
       242.000         209.000
  23323585.434   -10429155.37249  -8105912.03645  23323584.858    23323600.771
       215.000         158.000
 00  4 21  0 52  0.0000000  0  8G22G26G21G23G 3G 6G17G29
  24519247.827    -6445743.94949  -5007739.92445  24519248.168    24519265.850
       208.000         143.000
  22804860.961   -14637395.70949 -11150489.28846  22804861.313    22804871.433
       221.000         170.000
  22346380.420   -15530292.02949 -11571002.29246  22346379.833    22346390.478
       232.000         187.000
  20766852.747   -21363262.93649 -16634194.39148  20766852.307    20766860.493
       243.000         213.000
  22915891.139   -15143784.68049 -11787178.46846  22915890.889    22915900.723
       225.000         174.000
  22777190.620   -15026697.92649 -11694067.17946  22777191.548    22777204.573
       223.000         171.000
  20911515.833   -26718488.91449 -20523564.95347  20911515.239    20911524.342
       242.000         208.000
  23303611.119   -10534119.47949  -8187701.79945  23303609.717    23303626.998
       214.000         158.000
 00  4 21  0 52 30.0000000  0  8G22G26G21G23G 3G 6G17G29
  24529652.860    -6391066.31649  -4965134.22645  24529653.484    24529670.333
       207.000         143.000
  22819985.569   -14557915.52549 -11088556.73146  22819985.573    22819996.127
       223.000         169.000
  22336363.955   -15582928.21449 -11612017.34946  22336363.737    22336374.152
       232.000         187.000
  20768966.512   -21352155.02949 -16625538.85948  20768965.994    20768974.422
       243.000         213.000
  22900544.761   -15224429.96649 -11850018.83646  22900544.483    22900554.630
       226.000         174.000
  22796755.026   -14923887.12549 -11613955.10146  22796755.854    22796768.999
       222.000         170.000
  20915262.237   -26698801.36649 -20508224.01347  20915261.626    20915270.709
       242.000         208.000
  23283663.496   -10638942.76249  -8269381.82345  23283662.456    23283679.375
       214.000         159.000
 00  4 21  0 53  0.0000000  0  8G22G26G21G23G 3G 6G17G29
  24540105.750    -6336136.96349  -4922332.36645  24540105.329    24540124.172
       208.000         142.000
  22835191.665   -14478007.38249 -11026290.68346  22835191.346    22835203.065
       224.000         169.000
  22326386.981   -15635357.07649 -11652870.85246  22326385.895    22326396.784
       232.000         187.000
  20771132.178   -21340774.23449 -16616670.68748  20771131.665    20771139.864
       244.000         213.000
  22885266.411   -15304717.82949 -11912580.69246  22885265.920    22885277.057
       225.000         175.000
  22816360.654   -14820859.82549 -11533674.30446  22816360.782    22816375.548
       222.000         170.000
  20919063.026   -26678828.18049 -20492660.49447  20919062.514    20919071.232
       242.000         208.000
  23263741.830   -10743629.64449  -8350955.55545  23263740.977    23263757.472
       216.000         160.000
 00  4 21  0 53 30.0000000  0  8G22G26G21G23G 3G 6G17G29
  24550607.363    -6280951.77449  -4879331.17745  24550605.919    24550625.124
       208.000         142.000
  22850479.108   -14397671.45049 -10963691.30546  22850479.322    22850488.974
       222.000         169.000
  22316449.360   -15687578.99649 -11693563.08947  22316448.794    22316459.343
       233.000         188.000
  20773350.252   -21329118.05249 -16607587.92748  20773349.829    20773358.158
       243.000         213.000
  22870053.592   -15384661.07349 -11974874.01046  22870053.102    22870063.567
       225.000         175.000
  22836006.862   -14717619.23849 -11453227.31746  22836007.201    22836021.271
       222.000         169.000
  20922916.510   -26658578.06849 -20476881.19647  20922916.017    20922925.007
       242.000         208.000
  23243847.259   -10848174.65849  -8432418.74245  23243846.180    23243862.852
       214.000         160.000
 00  4 21  0 54  0.0000000  0  8G22G26G21G23G 3G 6G17G29
  24561156.106    -6225518.79749  -4836136.90245  24561156.515    24561174.906
       204.000         141.000
  22865847.873   -14316908.38349 -10900759.08446  22865847.973    22865859.242
       222.000         169.000
  22306552.652   -15739585.92649 -11734087.80747  22306551.865    22306562.573
       233.000         188.000
  20775623.656   -21317171.42549 -16598278.84548  20775623.185    20775631.379
       243.000         213.000
  22854906.471   -15464259.33349 -12036898.50446  22854906.208    22854916.570
       226.000         176.000
  22855693.968   -14614163.86349 -11372612.98146  22855695.052    22855707.119
       221.000         168.000
  20926822.298   -26638052.93949 -20460887.60047  20926821.863    20926830.740
       242.000         208.000
  23223980.658   -10952572.50849  -8513767.23945  23223979.354    23223996.020
       215.000         161.000
 00  4 21  0 54 30.0000000  0  8G22G26G21G23G 3G 6G17G29
  24571752.726    -6169833.84349  -4792746.29045  24571753.099    24571771.733
       204.000         140.000
  22881299.332   -14235710.37749 -10837487.96746  22881299.366    22881310.142
       224.000         168.000
  22296702.059   -15791350.57149 -11774423.72847  22296701.255    22296712.192
       233.000         188.000
  20777953.852   -21304926.04049 -16588736.96648  20777953.442    20777961.456
       244.000         213.000
  22839824.421   -15543515.58949 -12098656.49246  22839823.739    22839834.868
       226.000         176.000
  22875422.514   -14510490.49349 -11291828.76446  22875423.134    22875436.663
       221.000         167.000
  20930780.715   -26617251.33849 -20444678.56847  20930780.052    20930789.221
       242.000         208.000
  23204142.805   -11056819.21649  -8594997.99245  23204141.667    23204158.036
       216.000         162.000
 00  4 21  0 55  0.0000000  0  8G22G26G21G23G 3G 6G17G29
  24582396.560    -6113901.17849  -4749162.66145  24582396.091    24582415.579
       203.000         140.000
  22896834.760   -14154071.04849 -10773872.94046  22896835.301    22896845.493
       223.000         168.000
  22286898.703   -15842866.72349 -11814566.02347  22286897.892    22286908.160
       233.000         188.000
  20780342.601   -21292372.94049 -16578955.31548  20780342.039    20780350.288
       243.000         213.000
  22824809.629   -15622418.40649 -12160139.07446  22824809.053    22824820.001
       225.000         176.000
  22895195.212   -14406585.04549 -11210863.71646  22895195.826    22895209.781
       221.000         167.000
  20934792.029   -26596171.87349 -20428253.01747  20934791.605    20934800.531
       242.000         208.000
  23184334.002   -11160913.66649  -8676110.09845  23184332.940    23184349.285
       218.000         162.000
 00  4 21  0 55 30.0000000  0  8G22G26G21G23G 3G 6G17G29
  24593085.082    -6057733.52949  -4705395.93945  24593085.971    24593103.582
       205.000         140.000
  22912454.269   -14071990.27849 -10709913.95846  22912455.237    22912465.064
       223.000         168.000
  22277144.580   -15894124.30449 -11854506.82747  22277143.484    22277154.263
       233.000         189.000
  20782792.375   -21279499.07049 -16568923.71048  20782791.793    20782800.033
       244.000         213.000
  22809864.491   -15700955.08549 -12221336.35146  22809863.290    22809874.592
       225.000         176.000
  22915014.362   -14302435.40849 -11129708.39846  22915015.075    22915028.941
       221.000         166.000
  20938855.089   -26574820.34349 -20411615.46747  20938854.543    20938863.428
       242.000         208.000
  23164553.758   -11264857.84749  -8757105.12545  23164552.244    23164568.740
       216.000         161.000
 00  4 21  0 56  0.0000000  0  8G22G26G21G23G 3G 6G17G29
  24603817.194    -6001337.16549  -4661450.99845  24603817.881    24603835.793
       204.000         141.000
  22928157.716   -13989468.11949 -10645611.02146  22928157.887    22928168.393
       222.000         167.000
  22267443.040   -15945105.66449 -11894232.39847  22267442.171    22267453.148
       233.000         189.000
  20785304.254   -21266299.12049 -16558638.02048  20785304.023    20785312.051
       244.000         213.000
  22794992.431   -15779107.69649 -12282234.34946  22794991.576    22795002.392
       226.000         177.000
  22934882.121   -14198030.52849 -11048354.18046  22934882.771    22934896.390
       221.000         165.000
  20942970.758   -26553192.35949 -20394762.49947  20942970.393    20942979.197
       242.000         208.000
  23144803.394   -11368644.93349  -8837977.73145  23144801.947    23144818.914
       217.000         161.000
 00  4 21  0 56 30.0000000  0  8G22G26G21G23G 3G 6G17G29
  24614593.763    -5944706.76349  -4617323.68945  24614594.041    24614612.152
       205.000         142.000
  22943945.016   -13906505.75849 -10580965.07546  22943945.827    22943956.060
       221.000         167.000
  22257794.237   -15995809.85249 -11933741.99747  22257793.290    22257804.121
       233.000         189.000
  20787874.817   -21252790.71149 -16548111.97448  20787874.294    20787882.504
       244.000         213.000
  22780194.893   -15856868.47949 -12342827.04546  22780193.820    22780204.431
       225.000         177.000
  22954798.251   -14093371.46449 -10966801.90946  22954798.254    22954812.582
       220.000         165.000
  20947138.564   -26531290.57749 -20377696.18747  20947138.138    20947146.915
       242.000         207.000
  23125085.197   -11472262.83949  -8918718.52745  23125084.057    23125099.280
       215.000         160.000
 00  4 21  0 57  0.0000000  0  8G22G26G21G23G 3G 6G17G29
  24625413.493    -5887850.10449  -4573020.09345  24625413.671    24625433.194
       206.000         142.000
  22959812.031   -13823124.56649 -10515992.77046  22959812.732    22959823.345
       219.000         167.000
  22248195.171   -16046252.57249 -11973047.85847  22248194.386    22248205.049
       234.000         189.000
  20790502.924   -21238979.79049 -16537350.20548  20790502.545    20790510.574
       243.000         213.000
  22765473.559   -15934228.88549 -12403107.74046  22765472.301    22765483.180
       225.000         177.000
  22974761.472   -13988464.70749 -10885056.62446  22974761.703    22974775.933
       220.000         165.000
  20951357.140   -26509121.78249 -20360421.81147  20951356.728    20951365.612
       241.000         207.000
  23105400.463   -11575705.04649  -8999322.41145  23105399.505    23105414.744
       217.000         160.000
 00  4 21  0 57 30.0000000  0  8G22G26G21G23G 3G 6G17G29
  24636277.216    -5830762.26249  -4528536.34545  24636277.430    24636296.612
       207.000         143.000
  22975755.583   -13739340.77249 -10450706.74346  22975755.545    22975766.294
       222.000         166.000
  22238645.457   -16096436.13649 -12012151.78347  22238644.707    22238655.094
       234.000         189.000
  20793185.344   -21224883.45149 -16526366.02948  20793184.788    20793192.962
       244.000         213.000
  22750827.253   -16011194.99549 -12463081.20146  22750825.911    22750836.546
       225.000         177.000
  22994770.909   -13883315.48049 -10803122.41246  22994770.751    22994785.790
       219.000         165.000
  20955628.245   -26486676.96849 -20342932.35247  20955627.811    20955636.975
       242.000         207.000
  23085749.353   -11678970.58249  -9079788.64945  23085747.270    23085763.677
       217.000         160.000
 00  4 21  0 58  0.0000000  0  8G22G26G21G23G 3G 6G17G29
  24647182.889    -5773453.65849  -4483880.58445  24647183.520    24647202.186
       204.000         144.000
  22991774.225   -13655162.51049 -10385113.34446  22991774.686    22991785.266
       221.000         166.000
  22229141.899   -16146377.04149 -12051066.62747  22229141.106    22229152.088
       234.000         189.000
  20795917.532   -21210525.69449 -16515178.15648  20795917.066    20795925.196
       243.000         213.000
  22736256.901   -16087762.19049 -12522743.82246  22736256.237    22736266.073
       225.000         177.000
  23014823.548   -13777938.74849 -10721010.92646  23014823.839    23014837.752
       218.000         164.000
  20959953.787   -26463946.08949 -20325219.98347  20959953.306    20959962.452
       241.000         207.000
  23066134.973   -11782043.28649  -9160104.62145  23066134.307    23066149.029
       217.000         161.000
 00  4 21  0 58 30.0000000  0  8G22G26G21G23G 3G 6G17G29
  24658128.299    -5715936.55549  -4439062.35745  24658127.713    24658147.784
       204.000         143.000
  23007865.369   -13570603.35949 -10319223.14146  23007865.626    23007876.245
       219.000         165.000
  22219678.771   -16196105.56249 -12089815.98147  22219677.947    22219688.587
       234.000         190.000
  20798695.911   -21195925.22549 -16503801.15748  20798695.453    20798703.550
       243.000         213.000
  22721761.489   -16163935.39949 -12582099.43946  22721760.942    22721770.951
       225.000         177.000
  23034915.862   -13672353.88749 -10638737.27446  23034916.079    23034930.146
       217.000         163.000
  20964333.119   -26440932.60049 -20307287.40247  20964332.465    20964341.564
       241.000         207.000
  23046556.762   -11884925.81549  -9240272.41446  23046555.342    23046571.036
       218.000         163.000
 00  4 21  0 59  0.0000000  0  8G22G26G21G23G 3G 6G17G29
  24669109.459    -5658231.30949  -4394097.53045  24669109.471    24669129.683
       201.000         142.000
  23024027.745   -13485669.57449 -10253041.02446  23024027.557    23024038.280
       219.000         165.000
  22210256.247   -16245620.73449 -12128399.09547  22210255.470    22210265.910
       234.000         190.000
  20801519.541   -21181086.79749 -16492238.73448  20801519.078    20801527.196
       244.000         213.000
  22707339.230   -16239724.41249 -12641155.69146  22707338.707    22707349.082
       226.000         177.000
  23055046.960   -13566565.27749 -10556304.85345  23055047.593    23055061.842
       217.000         162.000
  20968767.997   -26417627.07849 -20289127.26647  20968767.474    20968776.620
       241.000         207.000
  23027012.190   -11987631.65449  -9320302.54446  23027010.852    23027026.486
       219.000         163.000
 00  4 21  0 59 30.0000000  0  8G22G26G21G23G 3G 6G17G29
  24680124.302    -5600348.74749  -4348994.54445  24680123.966    24680143.693
       203.000         140.000
  23040263.974   -13400347.62649 -10186556.43246  23040264.257    23040273.916
       220.000         165.000
  22200873.757   -16294925.47449 -12166818.24147  22200872.985    22200883.168
       235.000         190.000
  20804385.946   -21166023.57749 -16480501.14748  20804385.484    20804393.648
       243.000         213.000
  22692986.950   -16315145.67649 -12699925.37546  22692986.862    22692996.324
       225.000         177.000
  23075215.467   -13460579.94249 -10473719.15045  23075215.411    23075230.549
       217.000         162.000
  20973259.375   -26394024.79849 -20270735.88547  20973258.965    20973267.865
       241.000         207.000
  23007500.253   -12090166.05949  -9400199.08645  23007499.699    23007514.437
       217.000         162.000
 00  4 21  1  0  0.0000000  0  8G22G26G21G23G 3G 6G17G29
  24691173.003    -5542288.84049  -4303753.36345  24691173.296    24691192.954
       201.000         139.000
  23056574.505   -13314635.68549 -10119767.95046  23056575.275    23056585.578
       218.000         164.000
  22191532.058   -16344015.97149 -12205070.44747  22191531.063    22191541.572
       235.000         190.000
  20807297.118   -21150725.31249 -16468580.40848  20807296.708    20807304.798
       244.000         213.000
  22678706.030   -16390191.88349 -12758402.82346  22678705.439    22678715.769
       226.000         177.000
  23095418.012   -13354415.79149 -10390994.11045  23095419.294    23095433.680
       218.000         161.000
  20977804.350   -26370140.83749 -20252125.01847  20977803.819    20977812.710
       241.000         207.000
  22988020.399   -12192531.79349  -9479964.20845  22988019.575    22988034.088
       218.000         162.000
 00  4 21  1  0 30.0000000  0  8G22G26G21G23G 3G 6G17G29
  24702258.640    -5484034.10349  -4258360.37745  24702258.932    24702278.127
       199.000         140.000
  23072959.542   -13228531.75249 -10052674.02846  23072959.922    23072970.564
       221.000         163.000
  22182233.984   -16392876.95049 -12243143.80947  22182233.120    22182243.539
       235.000         190.000
  20810254.129   -21135186.18149 -16456471.97848  20810253.591    20810261.684
       243.000         213.000
  22664494.986   -16464870.88949 -12816594.12746  22664494.947    22664504.773
       226.000         178.000
  23115653.388   -13248079.44349 -10308134.88645  23115652.887    23115668.450
       216.000         161.000
  20982402.238   -26345978.77549 -20233297.44247  20982401.885    20982410.731
       241.000         206.000
  22968569.919   -12294743.26649  -9559609.11945  22968569.310    22968583.647
       217.000         162.000
 00  4 21  1  1  0.0000000  0  8G22G26G21G23G 3G 6G17G29
  24713383.498    -5425573.60049  -4212807.05045  24713382.641    24713403.468
       200.000         138.000
  23089420.913   -13142026.92549  -9985267.71046  23089421.856    23089431.469
       219.000         163.000
  22172981.174   -16441500.17949 -12281031.91047  22172980.235    22172990.943
       235.000         191.000
  20813257.829   -21119401.49749 -16444172.21248  20813257.272    20813265.418
       243.000         213.000
  22650354.437   -16539179.45549 -12874496.79746  22650354.246    22650364.437
       226.000         178.000
  23135921.400   -13141571.12149 -10225141.66245  23135921.975    23135935.819
       218.000         161.000
  20987053.960   -26321533.93249 -20214249.51947  20987053.345    20987062.466
       241.000         206.000
  22949147.208   -12396808.76249  -9639140.29345  22949145.337    22949159.724
       216.000         162.000
 00  4 21  1  1 30.0000000  0  8G22G26G21G23G 3G 6G17G29
  24724549.677    -5366895.83349  -4167084.43945  24724549.101    24724570.311
       200.000         139.000
  23105956.468   -13055131.95349  -9917557.37945  23105956.519    23105966.568
       218.000         162.000
  22163770.544   -16489901.91649 -12318747.42847  22163770.131    22163779.863
       235.000         191.000
  20816311.555   -21103353.94549 -16431667.61248  20816311.048    20816319.112
       243.000         213.000
  22636287.520   -16613101.19349 -12932098.05546  22636286.875    22636297.056
       225.000         178.000
  23156221.930   -13034892.11149 -10142015.43845  23156222.751    23156237.826
       217.000         162.000
  20991757.220   -26296818.11849 -20194990.44147  20991756.849    20991765.891
       241.000         206.000
  22929754.272   -12498717.56449  -9718549.38446  22929753.202    22929767.953
       219.000         163.000
 00  4 21  1  2  0.0000000  0  8G22G26G21G23G 3G 6G17G29
  24735757.417    -5307999.84949  -4121191.77045  24735757.861    24735777.692
       203.000         140.000
  23122563.528   -12967861.22049  -9849554.25145  23122564.392    23122574.409
       216.000         162.000
  22154601.921   -16538082.73849 -12356290.81147  22154601.309    22154611.212
       234.000         191.000
  20819417.217   -21087033.44049 -16418950.31748  20819416.748    20819424.915
       243.000         213.000
  22622299.242   -16686609.57349 -12989377.21246  22622298.888    22622309.149
       226.000         178.000
  23176556.444   -12928034.59649 -10058750.12545  23176556.504    23176572.380
       217.000         162.000
  20996511.799   -26271832.62849 -20175521.22847  20996511.168    20996520.338
       241.000         206.000
  22910392.647   -12600462.13249  -9797830.48246  22910390.956    22910406.101
       220.000         164.000
 00  4 21  1  2 30.0000000  0  8G22G26G21G23G 3G 6G17G29
  24747005.190    -5248893.63249  -4075135.29145  24747005.205    24747024.954
       201.000         141.000
  23139240.113   -12880225.44149  -9781266.68245  23139240.437    23139251.056
       219.000         161.000
  22145473.158   -16586054.16949 -12393671.03347  22145472.149    22145483.003
       235.000         191.000
  20822574.135   -21070443.64549 -16406023.19047  20822573.682    20822581.902
       243.000         212.000
  22608390.393   -16759700.74549 -13046331.28246  22608390.137    22608400.431
       227.000         179.000
  23196927.997   -12820982.60649  -9975333.27945  23196929.530    23196942.478
       219.000         162.000
  21001320.496   -26246562.71749 -20155830.39047  21001319.869    21001329.063
       241.000         206.000
  22891063.802   -12702034.30049  -9876977.26846  22891062.617    22891076.903
       219.000         165.000
 00  4 21  1  3  0.0000000  0  8G22G26G21G23G 3G 6G17G29
  24758290.260    -5189591.65249  -4028926.27445  24758290.352    24758310.352
       202.000         142.000
  23155985.201   -12792229.51349  -9712698.47945  23155985.015    23155995.671
       218.000         161.000
  22136383.602   -16633819.82549 -12430890.90747  22136382.711    22136392.951
       235.000         191.000
  20825783.375   -21053578.89649 -16392881.81447  20825782.871    20825791.150
       243.000         212.000
  22594561.822   -16832370.08749 -13102956.66246  22594560.681    22594571.762
       227.000         179.000
  23217340.252   -12713716.87749  -9891749.86845  23217340.719    23217355.711
       217.000         162.000
  21006183.293   -26221008.50949 -20135918.02447  21006182.443    21006191.814
       241.000         206.000
  22871770.887   -12803418.10649  -9955977.27446  22871770.163    22871784.074
       220.000         166.000
 00  4 21  1  3 30.0000000  0  8G22G26G21G23G 3G 6G17G29
  24769611.371    -5130100.44049  -3982569.81945  24769610.815    24769632.219
       202.000         142.000
  23172798.014   -12703877.82849  -9643853.05745  23172797.616    23172808.082
       218.000         161.000
  22127334.222   -16681374.12249 -12467946.09847  22127333.236    22127343.547
       235.000         191.000
  20829043.759   -21036445.41049 -16379531.02947  20829043.263    20829051.467
       243.000         212.000
  22580813.484   -16904617.72649 -13159253.44646  22580813.398    22580823.642
       226.000         179.000
  23237793.164   -12606236.93149  -9807999.55845  23237793.850    23237808.483
       215.000         161.000
  21011099.729   -26195172.47649 -20115786.05147  21011099.339    21011108.201
       240.000         205.000
  22852517.407   -12904594.26449 -10034815.47546  22852517.341    22852530.552
       220.000         166.000
 00  4 21  1  4  0.0000000  0  8G22G26G21G23G 3G 6G17G29
  24780969.148    -5070415.96249  -3936062.76145  24780968.662    24780988.740
       203.000         141.000
  23189679.258   -12615166.47449  -9574727.38645  23189679.169    23189690.515
       218.000         160.000
  22118327.628   -16728703.62549 -12504826.12647  22118326.751    22118336.807
       235.000         191.000
  20832350.985   -21019065.79549 -16365988.45547  20832350.574    20832358.691
       243.000         212.000
  22567143.135   -16976455.56049 -13215230.90046  22567142.622    22567152.943
       227.000         179.000
  23258285.674   -12498548.97149  -9724087.13945  23258287.483    23258301.844
       216.000         160.000
  21016071.018   -26169048.12649 -20095429.42047  21016070.467    21016079.349
       240.000         205.000
  22833304.072   -13005559.41549 -10113489.24946  22833303.283    22833317.243
       219.000         166.000
 00  4 21  1  4 30.0000000  0  8G22G26G21G23G 3G 6G17G29
  24792364.282    -5010535.86049  -3889403.29845  24792364.463    24792384.968
       203.000         141.000
  23206629.402   -12526093.17649  -9505319.66645  23206630.034    23206639.933
       216.000         160.000
  22109364.099   -16775806.84049 -12541529.82347  22109363.196    22109373.757
       235.000         191.000
  20835701.053   -21001461.17749 -16352270.55347  20835700.575    20835708.711
       243.000         212.000
  22553545.825   -17047909.33549 -13270909.09746  22553545.385    22553555.721
       227.000         179.000
  23278815.739   -12390664.01849  -9640021.22445  23278816.401    23278832.110
       214.000         160.000
  21021096.643   -26142638.34649 -20074850.37447  21021095.978    21021105.148
       240.000         205.000
  22814130.581   -13106315.29949 -10191999.96746  22814129.067    22814143.917
       220.000         166.000
 00  4 21  1  5  0.0000000  0  8G22G26G21G23G 3G 6G17G29
  24803795.538    -4950465.05749  -3842595.22345  24803795.670    24803816.263
       201.000         141.000
  23223648.884   -12436655.47849  -9435628.02045  23223649.372    23223659.930
       219.000         160.000
  22100443.646   -16822683.78649 -12578057.21047  22100442.512    22100453.190
       235.000         191.000
  20839090.234   -20983650.75249 -16338392.28447  20839089.818    20839098.083
       243.000         212.000
  22540019.727   -17118989.12749 -13326295.87746  22540019.709    22540029.085
       227.000         179.000
  23299378.380   -12282607.81349  -9555821.89445  23299379.405    23299394.485
       215.000         160.000
  21026173.297   -26115960.30349 -20054062.29947  21026172.604    21026181.701
       240.000         205.000
  22794997.456   -13206859.33949 -10270345.62346  22794996.372    22795010.609
       221.000         167.000
 00  4 21  1  5 30.0000000  0  8G22G26G21G23G 3G 6G17G29
  24815261.883    -4890210.40049  -3795643.91845  24815261.892    24815282.840
       201.000         141.000
  23240734.144   -12346872.15349  -9365667.03545  23240734.185    23240745.281
       215.000         160.000
  22091564.930   -16869341.23349 -12614413.55447  22091564.308    22091573.970
       236.000         192.000
  20842517.378   -20965640.94949 -16324358.65047  20842516.716    20842524.928
       243.000         212.000
  22526564.720   -17189695.52149 -13381391.70446  22526564.634    22526573.913
       228.000         180.000
  23319967.888   -12174410.43249  -9471512.53945  23319968.881    23319983.442
       217.000         159.000
  21031300.283   -26089017.67949 -20033068.06247  21031299.864    21031308.718
       241.000         205.000
  22775904.672   -13307191.40549 -10348526.11146  22775903.460    22775917.724
       222.000         167.000
 00  4 21  1  6  0.0000000  0  8G22G26G21G23G 3G 6G17G29
  24826760.330    -4829787.11749  -3748561.21745  24826760.911    24826781.201
       202.000         141.000
  23257883.327   -12256752.82849  -9295444.23645  23257883.992    23257894.789
       215.000         159.000
  22082728.957   -16915774.05149 -12650594.85947  22082728.045    22082738.228
       236.000         192.000
  20845982.689   -20947430.57649 -16310168.73047  20845982.137    20845990.352
       243.000         212.000
  22513179.227   -17260036.36549 -13436202.68746  22513178.391    22513188.631
       227.000         180.000
  23340581.747   -12066085.21849  -9387103.57345  23340582.461    23340598.203
       216.000         159.000
  21036476.378   -26061817.28449 -20011872.96347  21036475.841    21036485.157
       240.000         205.000
  22756851.215   -13407316.63849 -10426545.41946  22756850.540    22756863.571
       222.000         168.000
 00  4 21  1  6 30.0000000  0  8G22G26G21G23G 3G 6G17G29
  24838288.828    -4769205.69749  -3701355.31445  24838288.651    24838309.774
       204.000         142.000
  23275099.011   -12166283.86249  -9224949.00445  23275099.754    23275109.045
       219.000         160.000
  22073939.395   -16961963.03749 -12686586.16347  22073938.790    22073949.016
       236.000         192.000
  20849493.143   -20928982.92349 -16295793.91947  20849492.527    20849500.588
       243.000         212.000
  22499869.118   -17329981.32649 -13490705.19146  22499868.775    22499878.157
       228.000         181.000
  23361221.767   -11957622.26149  -9302587.30245  23361222.902    23361238.115
       216.000         159.000
  21041704.465   -26034343.46249 -19990464.80247  21041703.921    21041713.225
       241.000         205.000
  22737838.921   -13507225.56949 -10504396.19046  22737838.182    22737851.396
       220.000         169.000
 00  4 21  1  7  0.0000000  0  8G22G26G21G23G 3G 6G17G29
  24849846.006    -4708473.75849  -3654032.11245  24849846.519    24849866.888
       205.000         143.000
  23292382.142   -12075460.59149  -9154177.67245  23292381.800    23292393.750
       216.000         160.000
  22065199.374   -17007891.77249 -12722374.67047  22065198.671    22065209.042
       236.000         193.000
  20853056.539   -20910257.06649 -16281202.32547  20853056.040    20853064.344
       243.000         212.000
  22486642.164   -17399489.31649 -13544867.19646  22486641.722    22486651.675
       229.000         181.000
  23381889.612   -11849013.19949  -9217957.18145  23381890.804    23381906.147
       217.000         159.000
  21046987.539   -26006580.78249 -19968831.55847  21046986.924    21046995.982
       240.000         205.000
  22718870.230   -13606905.12649 -10582068.22846  22718869.624    22718882.811
       221.000         169.000
 00  4 21  1  7 30.0000000  0  8G22G26G21G23G 3G 6G17G29
  24861430.117    -4647600.52249  -3606598.82145  24861429.930    24861451.498
       207.000         144.000
  23309732.177   -11984285.52749  -9083132.22145  23309731.868    23309742.800
       216.000         160.000
  22056509.565   -17053556.75449 -12757957.66247  22056508.887    22056518.843
       236.000         193.000
  20856675.218   -20891240.68749 -16266384.34947  20856674.715    20856682.902
       243.000         212.000
  22473502.028   -17468541.01149 -13598673.64846  22473501.878    22473511.062
       229.000         181.000
  23402587.499   -11740246.42149  -9133204.15345  23402589.165    23402604.275
       216.000         159.000
  21052327.351   -25978520.03549 -19946966.04547  21052326.857    21052335.981
       240.000         204.000
  22699944.713   -13706358.02749 -10659563.65246  22699943.726    22699957.280
       220.000         170.000
 00  4 21  1  8  0.0000000  0  8G22G26G21G23G 3G 6G17G29
  24873043.793    -4586571.68549  -3559044.29145  24873043.890    24873065.208
       209.000         144.000
  23327152.923   -11892739.12549  -9011797.41445  23327153.108    23327164.066
       216.000         160.000
  22047870.201   -17098956.41749 -12793333.91247  22047869.677    22047879.349
       236.000         193.000
  20860350.130   -20871928.83549 -16251336.13647  20860349.630    20860357.689
       243.000         212.000
  22460452.498   -17537116.58949 -13652109.09146  22460452.542    22460462.163
       229.000         182.000
  23423318.022   -11631308.15549  -9048317.52145  23423318.734    23423334.063
       212.000         158.000
  21057725.403   -25950153.10049 -19924861.95647  21057724.770    21057733.818
       240.000         204.000
  22681060.738   -13805592.51249 -10736888.89246  22681060.399    22681073.619
       221.000         170.000
 00  4 21  1  8 30.0000000  0  7G26G21G23G 3G 6G17G29
  23344643.589   -11800825.33649  -8940176.33545  23344643.989    23344654.399
       215.000         160.000
  22039274.644   -17144125.96749 -12828530.85047  22039274.238    22039283.585
       236.000         193.000
  20864079.864   -20852328.95949 -16236063.48747  20864079.408    20864087.535
       242.000         212.000
  22447495.526   -17605205.58849 -13705165.38146  22447495.302    22447504.704
       229.000         182.000
  23444084.405   -11522181.24049  -8963283.89845  23444084.998    23444100.899
       211.000         156.000
  21063184.035   -25921467.71449 -19902509.72847  21063183.242    21063192.512
       240.000         204.000
  22662217.719   -13904611.90049 -10814046.51846  22662216.884    22662229.879
       222.000         171.000
 00  4 21  1  9  0.0000000  0  8G26G21G23G 3G 6G17G29G 9
  23362200.035   -11708565.80249  -8868285.85145  23362200.495    23362211.853
       219.000         160.000
  22030716.207   -17189100.29049 -12863575.65947  22030715.523    22030725.529
       236.000         193.000
  20867856.724   -20832481.37049 -16220597.81547  20867856.134    20867864.414
       242.000         212.000
  22434624.918   -17672840.70949 -13757867.99346  22434624.163    22434634.062
       229.000         182.000
  23464883.977   -11412879.77549  -8878114.27445  23464884.359    23464899.296
       213.000         156.000
  21068700.604   -25892478.15849 -19879920.48747  21068700.082    21068709.182
       240.000         204.000
  22643413.211   -14003428.97049 -10891046.52146  22643412.552    22643425.180
       221.000         171.000
  24464827.978    -5152835.51449  -4003620.44745  24464828.702    24464841.048
       210.000         136.000
 00  4 21  1  9 30.0000000  0  8G26G21G23G 3G 6G17G29G 9
  23379823.767   -11615952.80949  -8796119.93345  23379824.664    23379834.889
       217.000         160.000
                   -984094.45249   -753797.83846                  22022204.719
       236.000         172.000
  20871676.376   -20812408.92749 -16204956.93247  20871675.790    20871683.942
       243.000         212.000
  22421839.114   -17740030.34249 -13810223.47646  22421838.584    22421848.270
       229.000         182.000
  23485719.442   -11303390.05349  -8792797.93245  23485720.774    23485735.649
       216.000         156.000
  21074276.757   -25863175.36449 -19857087.16547  21074276.252    21074285.268
       240.000         204.000
  22624649.896   -14102029.35149 -10967877.68446  22624648.961    22624662.513
       222.000         171.000
  24453029.447    -5214836.17649  -4051932.42445  24453029.320    24453045.491
       207.000         134.000
 00  4 21  1 10  0.0000000  0  8G26G21G23G 3G 6G17G29G 9
  23397508.106   -11523021.33749  -8723705.86045  23397508.732    23397518.956
       218.000         160.000
  22013707.583    -1028695.40049   -788551.71647  22013707.218    22013716.927
       236.000         190.000
  20875534.306   -20792135.20349 -16189159.21147  20875533.939    20875542.038
       242.000         212.000
  22409131.180   -17806810.77549 -13862260.09446  22409130.862    22409140.742
       229.000         182.000
  23506586.306   -11193735.65149  -8707353.28345  23506587.258    23506601.952
       214.000         156.000
  21079907.290   -25833586.87449 -19834031.21847  21079906.774    21079915.829
       239.000         204.000
  22605924.332   -14200431.47049 -11044554.34846  22605923.685    22605936.952
       223.000         171.000
  24441272.759    -5276616.91249  -4100073.01845  24441269.841    24441288.127
       199.000         133.000
 00  4 21  1 10 30.0000000  0  8G26G21G23G 3G 6G17G29G 9
  23415251.569   -11429778.94349  -8651049.51645  23415251.559    23415263.191
       220.000         160.000
  22005256.081    -1073107.19749   -823158.19547  22005255.798    22005265.746
       236.000         193.000
  20879430.941   -20771658.29849 -16173203.16647  20879430.341    20879438.411
       243.000         212.000
  22396501.488   -17873179.91249 -13913976.21246  22396500.605    22396511.008
       230.000         183.000
  23527485.921   -11083908.70949  -8621774.19045  23527485.791    23527501.945
       213.000         155.000
  21085592.760   -25803709.59049 -19810750.24047  21085592.248    21085601.163
       240.000         204.000
  22587240.689   -14298613.38249 -11121059.43846  22587239.689    22587252.741
       223.000         172.000
  24429558.183    -5338176.64049  -4148041.34345  24429558.479    24429571.321
       206.000         134.000
 00  4 21  1 11  0.0000000  0  8G26G21G23G 3G 6G17G29G 9
  23433054.763   -11336222.46749  -8578148.41845  23433054.824    23433065.400
       216.000         160.000
  21996846.928    -1117298.57549   -857592.92047  21996846.230    21996855.994
       236.000         194.000
  20883367.341   -20750972.32549 -16157084.21347  20883366.946    20883374.866
       242.000         212.000
  22383951.224   -17939131.55349 -13965367.00546  22383951.053    22383960.261
       229.000         183.000
  23548413.931   -10973932.58849  -8536078.86145  23548413.073    23548430.914
       212.000         154.000
  21091332.039   -25773549.50849 -19787248.89847  21091331.535    21091340.457
       240.000         204.000
  22568601.652   -14396560.62349 -11197381.66846  22568600.753    22568614.069
       222.000         172.000
  24417884.692    -5399519.56749  -4195840.80045  24417884.920    24417902.149
       207.000         136.000
 00  4 21  1 11 30.0000000  0  8G26G21G23G 3G 6G17G29G 9
  23450916.949   -11242355.94949  -8505005.74045  23450917.178    23450927.617
       218.000         160.000
  21988480.781    -1161262.79049   -891850.63247  21988480.162    21988490.453
       236.000         194.000
  20887346.656   -20730060.80349 -16140789.50647  20887346.151    20887354.374
       242.000         212.000
  22371483.742   -18004648.16349 -14016418.81346  22371482.955    22371492.725
       229.000         183.000
  23569369.145   -10863813.61349  -8450272.21945  23569369.735    23569387.055
       214.000         154.000
  21097125.491   -25743104.79749 -19763525.75747  21097125.054    21097134.069
       240.000         203.000
  22550008.526   -14494267.15249 -11273516.34146  22550007.715    22550020.507
       222.000         172.000
  24406253.576    -5460640.68049  -4243467.35945  24406252.643    24406267.150
       206.000         134.000
 00  4 21  1 12  0.0000000  0  8G26G21G23G 3G 6G17G29G 9
  23468839.777   -11148171.32349  -8431615.17845  23468840.180    23468850.906
       216.000         160.000
  21980156.924    -1205004.66849   -925935.10347  21980156.304    21980166.365
       236.000         195.000
  20891373.435   -20708899.71449 -16124300.33047  20891372.963    20891381.127
       242.000         212.000
  22359099.709   -18069726.51649 -14067129.12046  22359099.637    22359109.387
       230.000         183.000
  23590348.620   -10753567.02149  -8364366.13345  23590349.091    23590366.422
       214.000         152.000
  21102976.021   -25712360.25249 -19739568.98147  21102975.594    21102984.716
       240.000         203.000
  22531460.821   -14591734.84949 -11349464.92346  22531459.825    22531473.513
       222.000         172.000
  24394665.682    -5521534.84149  -4290917.11945  24394663.926    24394680.871
       204.000         137.000
 00  4 21  1 12 30.0000000  0  8G26G21G23G 3G 6G17G29G 9
  23486826.869   -11053648.86349  -8357961.38845  23486827.368    23486838.054
       216.000         159.000
  21971878.054    -1248510.14449   -959835.36947  21971877.506    21971887.232
       236.000         195.000
  20895448.379   -20687485.80249 -16107614.14647  20895447.832    20895455.907
       242.000         211.000
  22346801.146   -18134355.60849 -14117489.35346  22346800.052    22346810.113
       230.000         184.000
  23611351.105   -10643199.27549  -8278365.64045  23611353.210    23611368.925
       214.000         151.000
  21108886.682   -25681299.59549 -19715365.88447  21108886.092    21108895.103
       240.000         203.000
  22512961.128   -14688950.29949 -11425216.94146  22512959.962    22512973.449
       222.000         172.000
  24383124.692    -5582181.66849  -4338174.07645  24383124.614    24383138.195
       209.000         139.000
 00  4 21  1 13  0.0000000  0  8G26G21G23G 3G 6G17G29G 9
  23504880.122   -10958778.90049  -8284036.80145  23504880.240    23504890.382
       215.000         159.000
  21963643.975    -1291780.22849   -993552.20747  21963643.586    21963653.280
       236.000         195.000
  20899572.615   -20665812.48849 -16090725.83347  20899572.047    20899580.280
       242.000         211.000
  22334587.958   -18198535.86249 -14167499.84246  22334587.467    22334596.923
       230.000         184.000
  23632374.410   -10532722.40549  -8192280.12845  23632376.007    23632392.052
       214.000         150.000
  21114858.272   -25649918.64449 -19690913.20847  21114857.658    21114866.821
       240.000         203.000
  22494508.818   -14785916.61549 -11500774.83946  22494508.276    22494520.734
       223.000         172.000
  24371633.737    -5642565.97949  -4385226.53245  24371633.149    24371647.304
       213.000         141.000
 00  4 21  1 13 30.0000000  0  8G26G21G23G 3G 6G17G29G 9
  23522999.681   -10863560.01849  -8209840.33945  23522999.366    23523011.184
       216.000         158.000
  21955455.505    -1334810.55649  -1027082.22347  21955454.905    21955464.371
       236.000         195.000
  20903746.438   -20643878.90649 -16073634.71747  20903745.938    20903754.322
       242.000         211.000
  22322461.019   -18262263.17949 -14217157.39746  22322460.592    22322469.677
       231.000         184.000
  23653421.687   -10422119.64049  -8106096.51345  23653422.966    23653438.834
       213.000         150.000
  21120891.168   -25618215.64649 -19666209.58347  21120890.652    21120899.931
       240.000         203.000
  22476103.468   -14882636.12749 -11576140.42046  22476102.128    22476115.373
       222.000         172.000
  24360193.263    -5702685.66049  -4432072.80745  24360191.870    24360208.616
       207.000         143.000
 00  4 21  1 14  0.0000000  0  8G26G21G23G 3G 6G17G29G 9
  23541186.305   -10767989.02049  -8135369.49145  23541186.306    23541198.274
       213.000         158.000
  21947314.195    -1377592.95349  -1060419.04347  21947313.531    21947323.100
       236.000         195.000
  20907966.192   -20621704.13749 -16056355.66647  20907965.727    20907973.824
       242.000         211.000
  22310420.159   -18325538.00149 -14266462.35546  22310419.158    22310429.618
       231.000         184.000
  23674495.964   -10311375.28349  -8019802.60045  23674497.446    23674511.836
       212.000         150.000
  21126983.125   -25586202.42849 -19641264.22847  21126982.704    21126991.771
       239.000         203.000
  22457746.723   -14979100.52749 -11651307.21346  22457746.256    22457758.216
       223.000         173.000
  24348800.551    -5762553.48649  -4478722.79245  24348800.176    24348814.313
       209.000         143.000
 00  4 21  1 14 30.0000000  0  8G26G21G23G 3G 6G17G29G 9
  23559433.319   -10672100.47049  -8060651.20845  23559433.414    23559444.109
       216.000         158.000
  21939219.236    -1420131.78949  -1093566.07147  21939218.385    21939228.118
       236.000         195.000
  20912226.681   -20599314.94349 -16038909.52647  20912226.047    20912234.127
       242.000         211.000
  22298465.977   -18388357.12549 -14315412.22346  22298465.444    22298474.686
       231.000         185.000
  23695597.266   -10200488.75849  -7933397.89145  23695596.840    23695614.632
       210.000         149.000
  21133128.497   -25553908.35849 -19616100.01947  21133127.910    21133137.125
       239.000         203.000
  22439437.981   -15075312.59349 -11726277.39146  22439436.971    22439449.563
       223.000         174.000
  24337454.875    -5822173.99949  -4525180.06045  24337454.801    24337467.847
       217.000         144.000
 00  4 21  1 15  0.0000000  0  8G26G21G23G 3G 6G17G29G 9
  23577737.182   -10575913.20749  -7985700.17245  23577737.362    23577748.868
       219.000         157.000
  21931166.894    -1462446.95849  -1126538.82147  21931166.290    21931176.054
       236.000         195.000
  20916525.373   -20576725.14149 -16021307.06547  20916524.891    20916533.111
       243.000         211.000
  22286598.153   -18450722.57249 -14364008.57846  22286597.140    22286607.272
       231.000         185.000
  23716725.364   -10089461.48649  -7846883.49645  23716725.223    23716744.080
       212.000         149.000
  21139325.786   -25521341.24649 -19590723.05247  21139325.370    21139334.234
       240.000         203.000
  22421175.260   -15171282.73649 -11801059.05146  22421174.034    22421186.539
       223.000         174.000
  24326153.414    -5881562.95949  -4571456.93045  24326152.415    24326168.302
       213.000         144.000
 00  4 21  1 15 30.0000000  0  8G26G21G23G 3G 6G17G29G 9
  23596094.053   -10479447.46549  -7910532.12045  23596094.704    23596105.411
       215.000         156.000
  21923155.172    -1504548.44049  -1159345.06247  21923154.516    21923164.134
       236.000         195.000
  20920859.581   -20553948.63849 -16003559.12347  20920859.051    20920866.984
       242.000         211.000
  22274815.673   -18512639.55349 -14412255.47746  22274815.626    22274824.902
       231.000         185.000
  23737880.418    -9978292.56249  -7760258.71445  23737881.127    23737899.853
       211.000         148.000
  21145574.566   -25488503.71849 -19565135.37147  21145573.854    21145583.314
       240.000         202.000
  22402960.467   -15267001.03249 -11875644.46446  22402959.844    22402971.989
       224.000         175.000
  24314894.729    -5940727.25749  -4617558.74445  24314892.990    24314908.932
       211.000         145.000
 00  4 21  1 16  0.0000000  0  8G26G21G23G 3G 6G17G29G 9
  23614501.294   -10382717.10649  -7835157.87945  23614501.301    23614511.987
       210.000         155.000
  21915180.026    -1546457.68049  -1192001.50547  21915179.317    21915188.895
       236.000         196.000
  20925229.786   -20530983.04649 -15985663.84447  20925229.275    20925237.409
       243.000         211.000
  22263119.242   -18574104.40249 -14460150.07046  22263118.594    22263128.195
       231.000         185.000
  23759058.434    -9867002.58649  -7673539.62745  23759058.976    23759076.024
       212.000         148.000
  21151876.471   -25455387.15149 -19539330.26747  21151875.971    21151885.060
       239.000         202.000
  22384794.917   -15362460.56149 -11950028.25346  22384794.129    22384806.009
       224.000         175.000
  24303681.406    -5999652.52149  -4663474.27345  24303680.602    24303695.038
       210.000         143.000
 00  4 21  1 16 30.0000000  0  8G26G21G23G 3G 6G17G29G 9
  23632958.505   -10285724.06049  -7759578.94745  23632959.103    23632970.630
       218.000         155.000
  21907241.140    -1588176.41449  -1224509.49947  21907240.483    21907250.110
       237.000         196.000
  20929638.579   -20507814.77549 -15967610.63347  20929637.873    20929646.194
       243.000         211.000
  22251510.116   -18635110.52249 -14507687.21046  22251509.461    22251519.296
       232.000         185.000
  23780255.649    -9755611.89449  -7586742.06045  23780255.442    23780273.400
       211.000         150.000
  21158236.376   -25421965.73749 -19513287.62347  21158235.798    21158244.859
       240.000         202.000
  22366679.380   -15457657.28149 -12024207.24546  22366678.421    22366691.024
       224.000         175.000
  24292516.880    -6058321.43049  -4709190.08045  24292516.301    24292530.761
       210.000         143.000
 00  4 21  1 17  0.0000000  0  8G26G21G23G 3G 6G17G29G 9
  23651470.563   -10188442.61349  -7683775.27545  23651470.748    23651482.513
       216.000         153.000
  21899339.430    -1629699.79849  -1256865.27047  21899338.523    21899348.012
       236.000         196.000
  20934088.165   -20484431.92649 -15949390.21447  20934087.573    20934095.723
       242.000         211.000
  22239988.316   -18695657.63549 -14554866.68046  22239987.987    22239997.159
       231.000         186.000
  23801474.529    -9644107.40149  -7499855.86545  23801475.022    23801492.019
       213.000         151.000
  21164657.397   -25388223.04349 -19486994.62447  21164656.963    21164666.098
       239.000         202.000
  22348617.062   -15552574.16749 -12098168.19146  22348616.465    22348628.260
       224.000         175.000
  24281401.577    -6116731.86849  -4754704.45145  24281402.125    24281415.353
       212.000         142.000
 00  4 21  1 17 30.0000000  0  8G26G21G23G 3G 6G17G29G 9
  23670037.655   -10090872.01049  -7607746.30945  23670038.333    23670050.100
       212.000         152.000
  21891477.427    -1671014.38049  -1289058.34047  21891476.706    21891486.173
       236.000         196.000
  20938579.008   -20460832.24449 -15931000.83547  20938578.554    20938586.612
       242.000         211.000
  22228555.400   -18755737.60549 -14601682.14446  22228555.341    22228564.257
       232.000         186.000
  23822717.220    -9532477.71149  -7412872.08045  23822717.476    23822735.519
       214.000         152.000
  21171139.737   -25354158.32449 -19460450.70247  21171139.195    21171148.541
       239.000         202.000
  22330608.276   -15647209.93049 -12171910.09446  22330607.362    22330619.575
       225.000         175.000
  24270336.595    -6174877.86349  -4800012.78245  24270334.477    24270351.521
       205.000         141.000
 00  4 21  1 18  0.0000000  0  8G26G21G23G 3G 6G17G29G 9
  23688661.192    -9993005.02549  -7531486.35745  23688661.171    23688673.693
       210.000         151.000
  21883656.482    -1712113.45749  -1321083.49447  21883655.780    21883665.365
       237.000         196.000
  20943110.297   -20437020.06249 -15912445.87447  20943109.707    20943117.951
       242.000         211.000
  22217213.132   -18815341.16449 -14648126.38446  22217212.634    22217222.059
       232.000         186.000
  23843982.804    -9420727.98149  -7325794.75345  23843982.774    23844002.321
       211.000         152.000
  21177681.854   -25319779.35149 -19433661.90047  21177681.236    21177690.301
       239.000         202.000
  22312650.914   -15741575.61949 -12245441.54346  22312650.154    22312662.150
       226.000         176.000
  24259322.213    -6232757.42149  -4845113.51545  24259320.102    24259336.879
       202.000         139.000
 00  4 21  1 18 30.0000000  0  8G26G21G23G 3G 6G17G29G 9
  23707340.671    -9894843.96749  -7454997.27545  23707340.580    23707351.701
       206.000         150.000
  21875878.123    -1752988.56749  -1352934.12447  21875877.365    21875886.815
       237.000         196.000
  20947678.427   -20413014.50249 -15893740.22947  20947677.974    20947686.103
       242.000         211.000
  22205959.075   -18874481.14649 -14694209.39046  22205958.575    22205967.965
       232.000         186.000
  23865273.299    -9308847.59049  -7238615.62545  23865274.754    23865291.002
       211.000         153.000
  21184280.546   -25285103.00349 -19406641.37847  21184279.908    21184289.112
       239.000         202.000
  22294742.805   -15835682.31649 -12318771.18746  22294742.321    22294754.167
       227.000         177.000
  24248357.568    -6290375.61149  -4890010.55045  24248356.842    24248370.278
       201.000         137.000
 00  4 21  1 19  0.0000000  0  8G26G21G23G 3G 6G17G29G 9
  23726074.176    -9796398.64049  -7378286.69245  23726073.531    23726085.285
       215.000         150.000
  21868140.872    -1793647.73549  -1384616.48447  21868140.112    21868149.450
       237.000         197.000
  20952283.058   -20388816.97949 -15874885.00447  20952282.487    20952290.658
       242.000         211.000
  22194793.039   -18933158.47249 -14739931.88646  22194792.505    22194801.510
       232.000         187.000
  23886587.418    -9196842.81149  -7151339.59145  23886587.899    23886605.482
       213.000         155.000
  21190930.510   -25250157.13949 -19379410.84147  21190929.964    21190939.122
       240.000         202.000
  22276880.633   -15929547.78349 -12391912.86246  22276880.297    22276892.317
       227.000         177.000
  24237442.215    -6347735.05849  -4934705.98945  24237441.129    24237455.195
       203.000         138.000
 00  4 21  1 19 30.0000000  0  8G26G21G23G 3G 6G17G29G 9
  23744858.510    -9697686.57849  -7301368.24545  23744858.497    23744869.672
       211.000         149.000
  21860444.482    -1834092.23949  -1416131.57747  21860443.780    21860453.167
       237.000         197.000
  20956923.448   -20364431.42749 -15855883.26547  20956922.854    20956930.998
       243.000         211.000
  22183715.993   -18991368.53449 -14785290.28446  22183715.443    22183724.808
       232.000         187.000
  23907917.066    -9084756.58949  -7064000.08245  23907918.313    23907936.041
       213.000         156.000
  21197629.993   -25214951.18149 -19351977.63247  21197629.516    21197638.679
       239.000         202.000
  22259062.906   -16023179.66849 -12464872.51946  22259062.132    22259073.951
       227.000         177.000
  24226577.753    -6404827.04149  -4979193.03745  24226576.440    24226591.737
       204.000         138.000
 00  4 21  1 20  0.0000000  0  8G26G21G23G 3G 6G17G29G 9
  23763694.286    -9598704.35449  -7224239.29545  23763694.457    23763705.069
       211.000         148.000
  21852788.139    -1874326.37949  -1447482.75347  21852787.680    21852796.977
       237.000         197.000
  20961601.495   -20339847.99949 -15836727.33647  20961600.966    20961609.190
       242.000         211.000
  22172726.154   -19049120.14349 -14830291.45146  22172725.801    22172735.527
       232.000         187.000
  23929258.684    -8972607.43149  -6976611.54845  23929259.728    23929277.171
       212.000         155.000
  21204379.820   -25179480.63249 -19324338.25347  21204379.404    21204388.506
       239.000         201.000
  22241290.932   -16116571.10849 -12537644.83046  22241290.855    22241302.364
       227.000         178.000
  24215766.349    -6461640.34749  -5023462.86245  24215764.065    24215779.364
       205.000         139.000
 00  4 21  1 20 30.0000000  0  8G26G21G23G 3G 6G17G29G 9
  23782581.068    -9499453.61249  -7146901.10945  23782580.272    23782592.769
       212.000         148.000
  21845171.839    -1914349.87649  -1478669.79747  21845171.243    21845180.304
       237.000         197.000
  20966321.355   -20315045.04849 -15817400.35347  20966320.958    20966328.951
       242.000         211.000
  22161823.802   -19106412.19949 -14874934.53246  22161823.759    22161832.639
       232.000         187.000
  23950611.666    -8860398.10649  -6889176.15845  23950613.405    23950630.509
       211.000         152.000
  21211185.268   -25143717.79649 -19296471.12747  21211184.812    21211193.922
       239.000         201.000
  22223565.807   -16209716.21649 -12610225.18746  22223564.936    22223577.029
       227.000         178.000
  24205010.222    -6518163.63249  -5067506.72945  24205009.641    24205024.096
       206.000         141.000
 00  4 21  1 21  0.0000000  0  8G26G21G23G 3G 6G17G29G 9
  23801520.574    -9399926.06949  -7069347.23645  23801520.950    23801531.198
       208.000         147.000
  21837598.657    -1954146.99849  -1509680.44647  21837598.065    21837607.088
       238.000         197.000
  20971086.779   -20290002.65049 -15797886.78847  20971086.339    20971094.318
       242.000         211.000
  22151013.085   -19163222.57349 -14919202.27447  22151012.793    22151022.092
       232.000         188.000
  23971974.980    -8748134.78549  -6801698.69245  23971976.256    23971993.362
       210.000         150.000
  21218051.007   -25107638.00749 -19268357.02647  21218050.479    21218059.527
       239.000         201.000
  22205892.560   -16302588.66649 -12682593.09246  22205892.051    22205904.061
       227.000         179.000
  24194312.460    -6574380.27749  -5111311.71145  24194310.647    24194325.291
       204.000         143.000
 00  4 21  1 21 30.0000000  0  8G26G21G23G 3G 6G17G29G 9
  23820513.892    -9300115.93249  -6991573.14345  23820514.241    23820525.017
       210.000         147.000
  21830071.476    -1993702.00349  -1540502.43547  21830070.816    21830080.138
       237.000         197.000
  20975896.844   -20264725.55149 -15778190.34147  20975896.209    20975904.271
       242.000         211.000
  22140293.898   -19219551.86049 -14963095.15247  22140293.204    22140302.784
       232.000         188.000
  23993351.075    -8635804.05349  -6714168.65045  23993352.568    23993371.021
       208.000         147.000
  21224982.020   -25071215.43949 -19239975.82647  21224981.501    21224990.614
       239.000         201.000
  22188275.817   -16395164.23749 -12754729.65246  22188275.287    22188286.843
       226.000         179.000
  24183676.798    -6630270.15949  -5154862.02045  24183676.139    24183690.355
       203.000         144.000
 00  4 21  1 22  0.0000000  0  8G26G21G23G 3G 6G17G29G 9
  23839560.972    -9200023.19949  -6913578.85945  23839561.285    23839572.154
       212.000         147.000
  21822590.116    -2033016.43549  -1571136.97747  21822589.436    21822598.862
       238.000         198.000
  20980751.092   -20239216.27649 -15758312.97647  20980750.539    20980758.716
       242.000         211.000
  22129668.625   -19275387.67049 -15006603.50147  22129668.080    22129677.260
       233.000         188.000
  24014744.754    -8523381.12149  -6626566.79045  24014744.708    24014763.866
       208.000         144.000
  21231981.793   -25034431.35949 -19211312.91747  21231981.265    21231990.431
       239.000         201.000
  22170715.988   -16487440.78849 -12826633.21446  22170714.584    22170726.874
       227.000         180.000
  24173102.862    -6685835.53649  -5198159.46445  24173101.620    24173116.502
       206.000         145.000
 00  4 21  1 22 30.0000000  0  8G26G21G23G 3G 6G17G29G 9
  23858659.010    -9099662.55549  -6835375.79745  23858659.744    23858669.959
       217.000         148.000
  21815153.656    -2072094.97849  -1601587.70847  21815153.144    21815162.218
       238.000         198.000
  20985647.960   -20213482.93749 -15738261.02147  20985647.529    20985655.498
       242.000         211.000
  22119140.505   -19330713.20849 -15049714.24947  22119140.148    22119148.961
       233.000         188.000
  24036156.793    -8410861.63849  -6538889.70345  24036157.055    24036177.164
       205.000         142.000
  21239049.438   -24997290.72349 -19182372.16047  21239048.992    21239058.047
       238.000         201.000
  22153215.844   -16579403.60449 -12898292.30746  22153214.829    22153226.594
       227.000         180.000
  24162591.373    -6741072.82449  -5241201.25645  24162590.806    24162605.523
       210.000         147.000
 00  4 21  1 23  0.0000000  0  8G26G21G23G 3G 6G17G29G 9
  23877807.163    -8999038.46149  -6756967.45345  23877806.439    23877819.342
       212.000         149.000
  21807759.870    -2110949.32549  -1631863.74147  21807758.913    21807768.068
       238.000         198.000
  20990583.730   -20187545.06449 -15718049.68447  20990583.222    20990591.250
       243.000         211.000
  22108710.410   -19385523.20849 -15092423.28147  22108709.559    22108719.131
       233.000         188.000
  24057588.343    -8298239.64649  -6451132.72545  24057588.318    24057609.614
       206.000         141.000
  21246179.631   -24959821.39549 -19153175.29347  21246179.106    21246188.271
       239.000         201.000
  22135776.742   -16671045.73149 -12969701.51446  22135776.021    22135788.052
       227.000         180.000
  24152139.978    -6795994.05849  -5283996.79045  24152139.712    24152152.350
       207.000         148.000
 00  4 21  1 23 30.0000000  0  8G26G21G23G 3G 6G17G29G 9
  23897003.984    -8898158.75749  -6678359.94445  23897003.769    23897015.228
       212.000         149.000
  21800403.500    -2149606.87949  -1661986.43847  21800402.755    21800411.585
       238.000         198.000
  20995556.506   -20161413.01749 -15697687.04347  20995555.939    20995564.093
       242.000         211.000
  22098377.457   -19439822.90749 -15134734.67247  22098377.182    22098386.495
       233.000         188.000
  24079039.729    -8185513.59749  -6363294.70445  24079040.657    24079058.304
       208.000         143.000
  21253368.683   -24922042.61049 -19123737.30847  21253368.249    21253377.623
       238.000         201.000
  22118396.187   -16762380.28449 -13040871.05446  22118395.793    22118407.071
       228.000         181.000
  24141743.741    -6850625.53049  -5326566.51945  24141742.789    24141756.363
       209.000         148.000
 00  4 21  1 24  0.0000000  0  8G26G21G23G 3G 6G17G29G 9
  23916246.519    -8797038.72949  -6599565.17245  23916247.057    23916258.823
       216.000         149.000
  21793081.325    -2188084.81349  -1691969.16647  21793080.684    21793089.692
       238.000         198.000
  21000566.421   -20135085.79249 -15677172.31147  21000565.861    21000573.946
       242.000         211.000
  22088142.918   -19493605.41549 -15176643.06847  22088142.507    22088151.560
       233.000         188.000
  24100510.321    -8072686.53349  -6275377.95445  24100511.613    24100530.063
       211.000         146.000
  21260614.056   -24883967.99749 -19094068.79847  21260613.663    21260623.166
       238.000         200.000
  22101073.227   -16853412.39149 -13111804.92746  22101072.526    22101083.811
       228.000         181.000
  24131399.532    -6904984.03049  -5368923.55645  24131399.200    24131413.525
       209.000         148.000
 00  4 21  1 24 30.0000000  0  8G26G21G23G 3G 6G17G29G 9
  23935533.178    -8695686.67849  -6520589.58445  23935533.515    23935543.896
       213.000         150.000
  21785794.899    -2226374.75849  -1721805.40847  21785794.288    21785803.477
       237.000         198.000
  21005613.037   -20108565.60849 -15656507.21847  21005612.597    21005620.798
       242.000         210.000
  22078004.535   -19546882.47049 -15218157.60447  22078003.766    22078013.698
       233.000         189.000
  24121999.990    -7959759.61949  -6187383.36745  24122001.096    24122020.264
       211.000         149.000
  21267912.959   -24845612.12949 -19064181.13247  21267912.381    21267921.548
       238.000         200.000
  22083808.377   -16944138.76949 -13182500.57146  22083807.628    22083818.887
       230.000         181.000
  24121107.805    -6959066.65149  -5411065.62145  24121107.565    24121120.991
       208.000         149.000
 00  4 21  1 25  0.0000000  0  8G26G21G23G 3G 6G17G29G 9
  23954864.847    -8594098.48649  -6441430.00845  23954865.901    23954876.261
       213.000         150.000
  21778546.908    -2264462.93649  -1751484.44147  21778546.086    21778555.404
       238.000         198.000
  21010694.500   -20081862.49249 -15635699.58747  21010694.109    21010702.076
       242.000         211.000
  22067959.991   -19599666.76149 -15259288.17347  22067959.759    22067968.826
       233.000         189.000
  24143507.515    -7846738.86649  -6099315.67645  24143508.567    24143526.866
       213.000         150.000
  21275266.346   -24806969.83949 -19034070.27647  21275265.900    21275275.161
       238.000         200.000
  22066599.907   -17034568.75649 -13252965.25846  22066599.211    22066611.017
       227.000         182.000
  24110867.305    -7012880.04649  -5452997.87745  24110867.164    24110879.938
       211.000         149.000
 00  4 21  1 25 30.0000000  0  8G26G21G23G 3G 6G17G29G 9
  23974238.990    -8492286.95749  -6362096.39845  23974239.449    23974250.569
       216.000         151.000
  21771340.223    -2302333.98549  -1780994.27447  21771339.285    21771348.430
       238.000         198.000
  21015810.458   -20054977.89649 -15614750.54247  21015810.067    21015818.025
       242.000         210.000
  22058008.371   -19651962.90049 -15300038.36647  22058007.879    22058017.111
       233.000         189.000
  24165030.173    -7733638.45549  -6011185.88845  24165030.697    24165050.296
       212.000         150.000
  21282677.644   -24768023.31949 -19003722.35947  21282677.249    21282686.255
       238.000         200.000
  22049448.010   -17124701.72249 -13323198.51346  22049447.365    22049458.789
       227.000         182.000
  24100682.588    -7066399.67849  -5494701.23845  24100681.955    24100696.050
       212.000         149.000
 00  4 21  1 26  0.0000000  0  8G26G21G23G 3G 6G17G29G 9
  23993656.629    -8390246.86149  -6282584.68145  23993657.157    23993667.988
       211.000         151.000
  21764178.224    -2339970.17749  -1810321.09647  21764177.753    21764186.954
       238.000         198.000
  21020961.387   -20027909.54249 -15593658.31347  21020960.742    21020968.827
       242.000         210.000
  22048148.964   -19703774.23549 -15340410.79647  22048148.634    22048157.903
       233.000         189.000
  24186565.971    -7620468.60449  -5923002.00745  24186568.477    24186585.295
       210.000         148.000
  21290149.034   -24728760.92349 -18973128.31147  21290148.407    21290157.575
       238.000         200.000
  22032351.397   -17214544.07749 -13393205.31446  22032350.681    22032362.008
       228.000         183.000
  24090558.845    -7119599.88049  -5536155.72345  24090557.904    24090571.909
       210.000         148.000
 00  4 21  1 26 30.0000000  0  8G26G21G23G 3G 6G17G29G 9
  24013120.920    -8287961.33249  -6202881.71945  24013121.092    24013132.637
       216.000         151.000
  21757061.998    -2377365.98649  -1839460.61847  21757061.430    21757070.227
       238.000         199.000
  21026146.814   -20000659.96949 -15572424.87447  21026146.372    21026154.597
       242.000         210.000
  22038381.533   -19755102.26049 -15380406.61847  22038381.666    22038390.082
       233.000         190.000
  24208113.376    -7507237.56749  -5834770.48345  24208114.351    24208134.260
       207.000         146.000
  21297679.926   -24689185.80549 -18942290.57747  21297679.403    21297688.735
       238.000         199.000
  22015311.782   -17304086.96749 -13462978.77146  22015311.317    22015322.106
       228.000         183.000
  24080497.575    -7172471.76749  -5577354.37945  24080496.809    24080510.435
       210.000         149.000
 00  4 21  1 27  0.0000000  0  8G26G21G23G 3G 6G17G29G 9
  24032632.647    -8185426.75449  -6122984.69145  24032632.455    24032644.036
       213.000         151.000
  21749988.201    -2414538.77749  -1868426.35947  21749987.527    21749996.618
       238.000         199.000
  21031367.923   -19973222.78949 -15551045.24447  21031367.467    21031375.475
       242.000         210.000
  22028707.474   -19805939.77649 -15420020.23247  22028707.213    22028716.272
       233.000         190.000
  24229668.185    -7393967.48649  -5746508.51745  24229668.859    24229688.886
       205.000         143.000
  21305270.970   -24649294.76149 -18911206.66747  21305270.628    21305279.756
       238.000         199.000
  21998327.581   -17393338.61949 -13532525.29846  21998327.055    21998337.744
       229.000         183.000
  24070499.461    -7225011.19349  -5618293.95845  24070498.161    24070513.071
       210.000         150.000
 00  4 21  1 27 30.0000000  0  8G26G21G23G 3G 6G17G29G 9
  24052191.717    -8082643.41249  -6042893.81445  24052191.844    24052202.282
       212.000         152.000
  21742953.820    -2451504.40449  -1897230.67047  21742953.227    21742962.254
       238.000         199.000
  21036627.126   -19945585.52849 -15529509.70747  21036626.696    21036634.675
       242.000         210.000
  22019130.323   -19856267.85149 -15459236.87247  22019130.103    22019139.473
       233.000         190.000
  24251230.001    -7280660.94349  -5658218.18145  24251230.832    24251250.519
       202.000         143.000
  21312920.939   -24609093.82049 -18879881.27947  21312920.492    21312929.641
       238.000         199.000
  21981398.710   -17482299.63149 -13601845.34546  21981398.105    21981408.697
       229.000         184.000
  24060566.306    -7277209.83049  -5658968.00245  24060566.007    24060579.369
       210.000         150.000
 00  4 21  1 28  0.0000000  0  8G26G21G23G 3G 6G17G29G 9
  24071800.264    -7979599.98649  -5962600.28845  24071800.579    24071812.060
       210.000         151.000
  21735955.264    -2488281.74349  -1925888.26847  21735954.542    21735963.500
       238.000         199.000
  21041924.739   -19917746.39749 -15507816.87447  21041924.269    21041932.225
       242.000         210.000
  22009650.686   -19906083.52849 -15498054.25147  22009650.096    22009659.525
       234.000         190.000
  24272799.935    -7167311.84149  -5569894.62845  24272801.409    24272821.755
       203.000         143.000
  21320628.951   -24568588.22149 -18848318.50347  21320628.156    21320637.962
       238.000         199.000
  21964526.888   -17570960.76349 -13670931.73746  21964526.475    21964536.815
       229.000         184.000
  24050693.999    -7329088.32649  -5699392.58545  24050694.141    24050706.415
       212.000         150.000
 00  4 21  1 28 30.0000000  0  8G26G21G23G 3G 6G17G29G 9
  24091455.092    -7876313.76649  -5882117.57145  24091455.273    24091467.066
       208.000         151.000
  21728991.472    -2524876.41949  -1954403.53447  21728990.813    21728999.964
       238.000         199.000
  21047258.556   -19889717.19049 -15485975.92947  21047257.967    21047266.202
       242.000         210.000
  22000270.253   -19955377.82049 -15536465.35747  22000270.340    22000278.712
       234.000         190.000
  24294378.393    -7053918.28149  -5481536.47545  24294379.391    24294399.603
       200.000         143.000
  21328395.508   -24527774.84849 -18816515.88747  21328395.119    21328404.201
       237.000         199.000
  21947715.179   -17659306.13249 -13739772.08146  21947714.683    21947725.689
       229.000         185.000
  24040881.326    -7380653.37949  -5739572.95145  24040881.004    24040894.626
       213.000         150.000
 00  4 21  1 29  0.0000000  0  8G26G21G23G 3G 6G17G29G 9
  24111152.668    -7772802.55949  -5801459.54445  24111153.046    24111164.735
       210.000         150.000
  21722061.535    -2561293.18749  -1982780.16247  21722060.900    21722070.035
       238.000         199.000
  21052626.748   -19861507.02449 -15463993.97447  21052626.260    21052634.400
       242.000         210.000
  21990989.434   -20004148.66049 -15574468.56347  21990988.945    21990998.382
       233.000         190.000
  24315964.865    -6940482.38849  -5393145.32145  24315965.018    24315985.363
       204.000         142.000
  21336222.952   -24486641.51649 -18784463.96047  21336222.371    21336231.643
       237.000         198.000
  21930964.276   -17747331.91849 -13808363.39846  21930963.870    21930974.262
       229.000         185.000
  24031129.669    -7431898.15949  -5779503.73345  24031128.756    24031141.821
       212.000         150.000
 00  4 21  1 29 30.0000000  0  8G26G21G23G 3G 6G17G29G 9
  24130892.248    -7669070.54349  -5720629.46845  24130892.521    24130903.838
       213.000         150.000
  21715165.550    -2597531.68749  -2011017.88747  21715164.954    21715173.835
       239.000         200.000
  21058025.722   -19833135.16449 -15441886.02647  21058025.013    21058033.252
       242.000         210.000
  21981806.665   -20052404.34549 -15612070.35347  21981806.482    21981815.282
       233.000         190.000
  24337563.747    -6826981.08649  -5304703.19545  24337565.214    24337584.355
       204.000         140.000
  21344111.867   -24445185.10549 -18752160.28547  21344111.649    21344120.844
       237.000         198.000
  21914277.719   -17835019.30249 -13876691.03646  21914277.032    21914287.923
       229.000         185.000
  24021438.502    -7482824.32249  -5819186.24645  24021437.515    24021450.578
       214.000         152.000
 00  4 21  1 30  0.0000000  0  9G26G21G23G 3G 6G17G29G 9G31
  24150677.516    -7565098.37049  -5639612.23645  24150678.733    24150688.766
       213.000         149.000
  21708310.320    -2633556.07149  -2039088.77447  21708309.870    21708318.641
       239.000         200.000
  21063459.789   -19804578.96949 -15419634.44147  21063459.381    21063467.389
       242.000         210.000
  21972726.416   -20100121.16049 -15649252.24347  21972726.278    21972734.989
       233.000         190.000
  24359181.367    -6713381.46449  -5216184.56445  24359183.158    24359202.698
       205.000         137.000
  21352070.151   -24403364.21549 -18719572.60647  21352069.640    21352079.238
       236.000         198.000
  21897661.957   -17922334.73949 -13944728.83746  21897661.514    21897672.575
       230.000         185.000
  24011814.776    -7533396.60549  -5858593.00345  24011812.288    24011827.165
       210.000         151.000
  24487788.101    -5554545.63549  -4283027.48045  24487787.827    24487799.854
       207.000         145.000
 00  4 21  1 30 30.0000000  0  9G26G21G23G 3G 6G17G29G 9G31
  24170500.044    -7460930.47949  -5558442.50445  24170500.201    24170512.275
       205.000         149.000
  21701490.126    -2669396.09849  -2067016.00447  21701489.382    21701498.500
       239.000         200.000
  21068921.404   -19775878.03849 -15397270.07447  21068920.880    21068928.870
       242.000         210.000
  21963742.277   -20147333.06049 -15686040.69247  21963741.858    21963751.075
       233.000         190.000
  24380809.135    -6599728.50849  -5127624.41144  24380810.576    24380828.951
       208.000         131.000
  21360090.017   -24361219.59349 -18686732.67547  21360089.208    21360098.637
       237.000         198.000
  21881108.656   -18009322.26049 -14012511.12146  21881108.174    21881119.168
       229.000         186.000
  24002256.284    -7583625.38249  -5897732.10445  24002255.145    24002268.731
       211.000         151.000
  24470419.047    -5645820.69749  -4354150.84045  24470418.662    24470430.059
       207.000         145.000
 00  4 21  1 31  0.0000000  0  9G26G21G23G 3G 6G17G29G 9G31
  24190358.113    -7356575.70549  -5477127.16845  24190359.263    24190369.474
       209.000         148.000
  21694704.128    -2705056.63949  -2094803.37547  21694703.429    21694712.072
       239.000         200.000
  21074411.909   -19747025.22949 -15374787.36147  21074411.399    21074419.360
       242.000         210.000
  21954851.064   -20194056.35549 -15722448.40447  21954850.913    21954859.736
       234.000         191.000
  24402446.579    -6486024.98749  -5039024.52144  24402448.546    24402469.291
       210.000         130.000
  21368170.225   -24318757.92249 -18653645.68847  21368169.574    21368178.883
       237.000         198.000
  21864615.829   -18095991.92849 -14080045.73046  21864615.422    21864625.660
       229.000         186.000
  23992763.745    -7633508.41949  -5936601.79445  23992763.445    23992775.524
       215.000         153.000
  24453103.710    -5736813.09649  -4425053.94145  24453103.039    24453114.794
       210.000         144.000
 00  4 21  1 31 30.0000000  0  9G26G21G23G 3G 6G17G29G 9G31
  24210251.507    -7252035.44049  -5395667.26745  24210252.141    24210263.241
       207.000         147.000
  21687953.410    -2740531.53649  -2122446.08847  21687952.913    21687961.640
       239.000         200.000
  21079935.190   -19717999.93849 -15352170.24847  21079934.655    21079942.808
       242.000         210.000
  21946054.086   -20240284.68049 -15758470.43247  21946053.893    21946062.788
       234.000         191.000
  24424093.241    -6372272.84649  -4950386.77444  24424094.251    24424113.621
       216.000         129.000
  21376309.499   -24275985.89749 -18620316.87947  21376308.879    21376318.055
       237.000         197.000
  21848181.392   -18182354.66749 -14147341.18046  21848181.189    21848191.496
       230.000         186.000
  23983338.199    -7683039.73349  -5975197.40845  23983337.041    23983350.251
       214.000         154.000
  24435844.804    -5827509.01349  -4495726.02045  24435844.407    24435855.547
       210.000         143.000
 00  4 21  1 32  0.0000000  0  9G26G21G23G 3G 6G17G29G 9G31
  24230181.045    -7147305.10849  -5314059.27145  24230181.025    24230192.764
       209.000         145.000
  21681239.873    -2775811.19549  -2149936.67147  21681239.330    21681247.991
       239.000         200.000
  21085494.525   -19688785.54049 -15329405.77847  21085494.036    21085502.140
       242.000         209.000
  21937354.159   -20286003.22849 -15794095.22247  21937353.946    21937362.631
       234.000         191.000
  24445745.934    -6258489.05449  -4861724.42745  24445746.852    24445768.584
       215.000         132.000
  21384504.889   -24232918.87049 -18586758.18747  21384504.306    21384513.689
       236.000         197.000
  21831805.559   -18268409.67449 -14214396.83846  21831804.846    21831815.765
       230.000         187.000
  23973980.882    -7732211.18749  -6013512.63945  23973980.219    23973993.648
       214.000         153.000
  24418646.262    -5917887.99549  -4566151.13245  24418646.003    24418657.760
       212.000         142.000
 00  4 21  1 32 30.0000000  0  9G26G21G23G 3G 6G17G29G 9G31
  24250147.262    -7042382.34749  -5232301.34045  24250147.922    24250159.192
       210.000         144.000
  21674563.513    -2810895.50049  -2177275.03147  21674562.922    21674571.850
       238.000         200.000
  21091090.800   -19659376.82849 -15306489.89447  21091090.232    21091098.349
       242.000         209.000
  21928751.295   -20331211.54749 -15829322.43647  21928750.952    21928760.024
       234.000         191.000
  24467404.955    -6144671.89449  -4773036.07845  24467406.017    24467425.777
       217.000         137.000
  21392755.326   -24189562.54549 -18552974.07047  21392754.774    21392764.181
       237.000         197.000
  21815490.026   -18354147.65849 -14281205.46146  21815489.511    21815500.207
       230.000         187.000
  23964692.139    -7781022.75649  -6051547.42445  23964691.959    23964705.045
       215.000         153.000
  24401510.039    -6007938.66349  -4636320.41045  24401508.937    24401521.557
       210.000         141.000
 00  4 21  1 33  0.0000000  0  9G26G21G23G 3G 6G17G29G 9G31
  24270149.077    -6937272.56649  -5150397.68545  24270148.606    24270161.235
       200.000         143.000
  21667924.937    -2845781.12349  -2204458.57047  21667924.258    21667932.989
       238.000         200.000
  21096725.825   -19629764.63049 -15283415.44847  21096725.221    21096733.369
       242.000         209.000
  21920248.498   -20375893.79649 -15864139.72347  21920247.968    21920257.304
       234.000         191.000
  24489069.903    -6030823.68749  -4684323.57645  24489070.789    24489091.669
       216.000         141.000
  21401060.660   -24145917.85349 -18518965.25347  21401060.074    21401069.415
       236.000         197.000
  21799235.961   -18439562.43349 -14347762.24146  21799235.543    21799245.636
       231.000         187.000
  23955468.924    -7829490.68849  -6089314.45845  23955467.465    23955480.874
       215.000         153.000
  24384436.954    -6097657.89349  -4706231.41545  24384436.146    24384447.863
       210.000         141.000
 00  4 21  1 33 30.0000000  0  9G26G21G23G 3G 6G17G29G 9G31
  24290189.572    -6831959.10349  -5068335.30045  24290189.042    24290200.852
       201.000         142.000
  21661323.786    -2880470.17249  -2231488.93447  21661323.218    21661332.182
       239.000         200.000
  21102398.430   -19599955.07549 -15260187.21747  21102397.834    21102405.907
       242.000         209.000
  21911849.071   -20420032.93449 -15898533.80947  21911848.713    21911858.135
       234.000         192.000
  24510739.587    -5916950.37349  -4595591.49145  24510740.388    24510760.588
       213.000         143.000
  21409420.273   -24101988.18749 -18484734.38447  21409419.817    21409428.954
       236.000         197.000
  21783046.543   -18524637.79849 -14414054.54947  21783046.121    21783056.651
       231.000         188.000
  23946311.244    -7877613.68149  -6126812.69545  23946310.214    23946323.943
       214.000         153.000
  24367425.858    -6187051.12349  -4775888.38445  24367424.633    24367436.949
       209.000         140.000
 00  4 21  1 34  0.0000000  0  8G26G21G23G 3G17G29G 9G31
  24310266.847    -6726452.06449  -4986122.08845  24310266.293    24310278.732
       203.000         141.000
  21654759.001    -2914968.23249  -2258370.48547  21654758.303    21654767.092
       238.000         200.000
  21108102.616   -19569979.15949 -15236829.35547  21108102.105    21108109.949
       242.000         209.000
  21903549.968   -20463644.81849 -15932517.05347  21903549.678    21903558.362
       234.000         192.000
  21417835.076   -24057768.18649 -18450277.27447  21417834.782    21417843.648
       236.000         196.000
  21766920.759   -18609378.60149 -14480086.16747  21766919.955    21766930.680
       231.000         188.000
  23937217.551    -7925400.63249  -6164049.09645  23937218.289    23937229.878
       215.000         152.000
  24350471.959    -6276143.94549  -4845311.28645  24350471.250    24350483.037
       209.000         140.000
 00  4 21  1 34 30.0000000  0  9G26G21G23G 3G17G29G 9G15G31
  24330380.201    -6620756.22649  -4903761.75345  24330380.868    24330392.336
       207.000         141.000
  21648232.567    -2949264.53949  -2285094.82347  21648231.941    21648240.620
       239.000         200.000
  21113838.407   -19539837.26549 -15213342.16347  21113837.824    21113845.912
       242.000         209.000
  21895351.747   -20506726.55749 -15966087.19447  21895351.434    21895360.397
       234.000         192.000
  21426311.480   -24013224.30649 -18415567.80047  21426310.874    21426320.437
       236.000         196.000
  21750859.901   -18693778.17549 -14545851.88547  21750859.623    21750869.712
       231.000         188.000
  23928190.772    -7972835.60449  -6201011.20145  23928190.548    23928203.836
       214.000         151.000
  24272522.861    -5786317.54049  -4484898.85245  24272521.163    24272535.553
       195.000         137.000
  24333572.991    -6364947.68249  -4914508.92445  24333572.428    24333584.288
       207.000         140.000
 00  4 21  1 35  0.0000000  0  9G26G21G23G 3G17G29G 9G15G31
  24350533.034    -6514852.51849  -4821239.44145  24350533.187    24350543.983
       210.000         140.000
  21641749.014    -2983335.59449  -2311643.64047  21641748.539    21641757.155
       239.000         200.000
  21119608.462   -19509515.47849 -15189714.79347  21119608.050    21119616.113
       242.000         209.000
  21887257.726   -20549260.87249 -15999230.77447  21887257.637    21887266.245
       234.000         192.000
  21434854.265   -23968331.91249 -18380586.75247  21434853.550    21434863.449
       236.000         196.000
  21734868.020   -18777815.46749 -14611335.31647  21734867.614    21734877.772
       231.000         189.000
  23919235.904    -8019893.19549  -6237679.26545  23919235.748    23919247.089
       215.000         152.000
  24254959.131    -5878614.62149  -4556818.47045  24254957.702    24254971.610
       198.000         138.000
  24316732.339    -6453445.36549  -4983468.04845  24316731.767    24316743.741
       207.000         140.000
 00  4 21  1 35 30.0000000  0  9G26G21G23G 3G17G29G 9G15G31
  24370724.875    -6408744.03949  -4738557.55345  24370724.928    24370736.726
       208.000         141.000
  21635309.564    -3017174.99449  -2338011.94147  21635308.877    21635317.805
       239.000         200.000
  21125410.018   -19479028.14949 -15165958.43047  21125409.423    21125417.573
       242.000         209.000
  21879263.741   -20591269.23049 -16031964.51747  21879263.371    21879272.540
       234.000         192.000
  21443464.094   -23923087.13549 -18345331.10447  21443463.679    21443472.955
       236.000         196.000
  21718944.770   -18861491.81449 -14676537.48947  21718944.198    21718954.698
       231.000         189.000
  23910354.789    -8066562.11149  -6274044.43745  23910354.276    23910367.870
       216.000         152.000
  24237389.288    -5970944.09049  -4628763.33245  24237387.586    24237401.344
       201.000         140.000
  24299949.174    -6541641.23649  -5052192.01845  24299949.385    24299959.101
       206.000         140.000
 00  4 21  1 36  0.0000000  0  9G26G21G23G 3G17G29G 9G15G31
  24390951.370    -6302453.20849  -4655733.58345  24390950.666    24390962.736
       208.000         140.000
  21628914.693    -3050779.82249  -2364197.46247  21628914.244    21628923.094
       239.000         201.000
  21131241.990   -19448380.95249 -15142077.49647  21131241.556    21131249.584
       242.000         209.000
  21871369.554   -20632753.52949 -16064289.90647  21871368.906    21871378.272
       234.000         193.000
  21452140.815   -23877490.79549 -18309801.51047  21452140.092    21452149.608
       235.000         196.000
  21703087.092   -18944823.91349 -14741471.42047  21703086.676    21703097.018
       232.000         189.000
  23901546.748    -8112847.91549  -6310111.07945  23901546.913    23901558.563
       217.000         152.000
  24219812.442    -6063309.90749  -4700736.52545  24219811.294    24219824.653
       202.000         140.000
  24283224.283    -6629531.09049  -5120677.52045  24283223.994    24283234.864
       210.000         140.000
 00  4 21  1 36 30.0000000  0  9G26G21G23G 3G17G29G 9G15G31
  24411211.499    -6195985.58549  -4572771.83445  24411211.840    24411224.525
       206.000         139.000
  21622561.737    -3084164.61449  -2390211.52247  21622561.042    21622569.981
       239.000         201.000
  21137105.622   -19417567.34449 -15118066.89347  21137105.287    21137113.155
       242.000         209.000
  21863576.978   -20673703.57649 -16096199.00047  21863576.641    21863585.274
       234.000         193.000
  21460881.667   -23831557.27649 -18274009.17747  21460881.261    21460890.404
       235.000         196.000
  21687297.076   -19027800.21549 -14806128.11047  21687296.517    21687306.846
       231.000         189.000
  23892810.951    -8158754.22249  -6345882.03545  23892809.792    23892823.358
       215.000         151.000
  24202229.377    -6155708.81649  -4772735.50345  24202228.646    24202241.256
       204.000         140.000
  24266559.266    -6717106.16549  -5188917.73345  24266558.081    24266568.587
       209.000         142.000
 00  4 21  1 37  0.0000000  0  9G26G21G23G 3G17G29G 9G15G31
  24431506.613    -6089334.10549  -4489666.82045  24431506.080    24431518.139
       211.000         139.000
  21616248.722    -3117339.48549  -2416062.01247  21616248.073    21616256.973
       239.000         201.000
  21142999.754   -19386593.33949 -15093931.30147  21142998.996    21143007.276
       242.000         209.000
  21855886.799   -20714115.45449 -16127688.73547  21855886.455    21855895.279
       235.000         193.000
  21469685.202   -23785294.36549 -18237960.17647  21469684.727    21469694.188
       235.000         195.000
  21671575.028   -19110419.48049 -14870506.57347  21671574.231    21671584.604
       231.000         190.000
  23884147.313    -8204280.77249  -6381357.06245  23884146.449    23884158.286
       216.000         150.000
  24184641.474    -6248133.51249  -4844754.55745  24184639.882    24184654.890
       203.000         140.000
  24249955.081    -6804361.40649  -5256908.72645  24249954.196    24249965.911
       210.000         143.000
 00  4 21  1 37 30.0000000  0  9G26G21G23G 3G17G29G 9G15G31
  24451836.208    -5982501.64249  -4406420.78445  24451836.656    24451848.186
       207.000         138.000
  21609973.637    -3150315.02549  -2441757.18047  21609973.057    21609981.857
       239.000         201.000
  21148922.498   -19355469.14249 -15069678.68647  21148922.206    21148930.039
       242.000         209.000
  21848300.433   -20753981.88849 -16158753.46247  21848300.177    21848309.106
       235.000         193.000
  21478551.893   -23738699.91549 -18201652.84147  21478551.448    21478560.812
       235.000         195.000
  21655918.602   -19192693.80749 -14934616.27247  21655918.320    21655928.410
       233.000         190.000
  23875555.307    -8249431.24949  -6416539.04145  23875555.987    23875567.886
       217.000         151.000
  24167048.519    -6340584.63349  -4916794.19645  24167047.011    24167061.351
       206.000         139.000
  24233410.488    -6891303.75149  -5324655.90345  24233410.569    24233421.308
       211.000         145.000
 00  4 21  1 38  0.0000000  0  9G26G21G23G 3G17G29G 9G15G31
  24472200.409    -5875487.36549  -4323033.05245  24472201.168    24472212.640
       211.000         138.000
  21603731.519    -3183117.22449  -2467317.27947  21603730.958    21603739.648
       239.000         201.000
  21154874.923   -19324188.94949 -15045304.51347  21154874.495    21154882.414
       241.000         208.000
  21840819.416   -20793294.76549 -16189386.83647  21840818.766    21840827.911
       235.000         193.000
  21487481.191   -23691776.39149 -18165089.08647  21487480.437    21487489.670
       236.000         195.000
  21640327.991   -19274622.37949 -14998456.54447  21640327.553    21640337.046
       232.000         191.000
  23867034.530    -8294207.76149  -6451429.61945  23867035.075    23867048.077
       219.000         153.000
  24149449.321    -6433068.74949  -4988859.55045  24149449.164    24149460.783
       208.000         139.000
  24216926.996    -6977924.89249  -5392152.78645  24216925.881    24216936.650
       213.000         146.000
 00  4 21  1 38 30.0000000  0  9G26G21G23G 3G17G29G 9G15G31
  24492599.654    -5768288.88349  -4239501.79845  24492599.406    24492611.889
       206.000         137.000
  21597519.636    -3215760.69649  -2492753.69647  21597519.049    21597528.150
       239.000         201.000
  21160857.219   -19292751.88149 -15020808.10047  21160856.764    21160864.801
       242.000         208.000
  21833441.889   -20832063.64849 -16219596.32347  21833441.623    21833450.569
       235.000         193.000
  21496471.832   -23644530.28449 -18128273.96347  21496471.303    21496480.885
       235.000         195.000
  21624803.289   -19356204.60949 -15062026.94547  21624802.561    21624812.704
       233.000         191.000
  23858587.583    -8338597.07549  -6486018.52245  23858586.204    23858599.845
       218.000         151.000
  24131843.676    -6525586.35349  -5060951.00445  24131842.713    24131855.855
       206.000         140.000
  24200505.103    -7064222.46349  -5459397.52945  24200504.090    24200515.897
       213.000         147.000
 00  4 21  1 39  0.0000000  0  9G26G21G23G 3G17G29G 9G15G31
  24513034.039    -5660905.57049  -4155826.51245  24513034.160    24513045.395
       212.000         137.000
  21591339.657    -3248236.34549  -2518059.33447  21591339.217    21591347.792
       239.000         201.000
  21166869.750   -19261155.90049 -14996187.86347  21166869.071    21166877.074
       242.000         208.000
  21826166.840   -20870294.24649 -16249386.36847  21826166.289    21826175.648
       235.000         193.000
  21505522.742   -23596967.60049 -18091212.15547  21505522.487    21505531.665
       235.000         195.000
  21609342.428   -19437451.23549 -15125335.83447  21609341.724    21609351.944
       232.000         191.000
  23850212.838    -8382606.01149  -6520311.01545  23850211.412    23850222.581
       213.000         149.000
  24114231.376    -6618138.65549  -5133069.51045  24114229.636    24114243.446
       211.000         140.000
  24184146.730    -7150186.20449  -5526382.14645  24184146.034    24184157.231
       213.000         147.000
 00  4 21  1 39 30.0000000  0  9G26G21G23G 3G17G29G 9G15G31
  24533501.633    -5553347.87849  -4072015.36345  24533502.699    24533512.644
       214.000         136.000
  21585193.437    -3280534.76149  -2543226.87347  21585192.812    21585201.544
       239.000         201.000
  21172916.256   -19229381.24249 -14971428.39947  21172915.765    21172923.895
       242.000         208.000
  21818995.808   -20907978.13849 -16278750.40347  21818995.434    21819004.113
       235.000         193.000
  21514631.873   -23549098.85849 -18053911.86347  21514631.231    21514641.047
       235.000         194.000
  21593947.081   -19518353.63849 -15188376.49747  21593946.632    21593956.601
       233.000         192.000
  23841910.359    -8426234.22349  -6554306.81045  23841911.748    23841921.649
       219.000         150.000
  24096612.424    -6710725.94549  -5205215.27045  24096610.893    24096625.725
       209.000         140.000
  24167854.078    -7235804.22349  -5593097.36345  24167852.614    24167863.991
       212.000         147.000
 00  4 21  1 40  0.0000000  0  9G26G21G23G 3G17G29G 9G15G31
  24554001.445    -5445620.89049  -3988072.26845  24554001.818    24554011.700
       212.000         137.000
  21579082.196    -3312649.37349  -2568251.18647  21579081.483    21579090.317
       239.000         201.000
  21178999.042   -19197415.87049 -14946520.32247  21178998.404    21179006.484
       241.000         208.000
  21811927.707   -20945121.19249 -16307693.01147  21811927.257    21811936.396
       235.000         193.000
  21523797.958   -23500930.87349 -18016378.38947  21523797.595    21523806.784
       235.000         194.000
  21578621.767   -19598888.00949 -15251130.38347  21578621.331    21578631.150
       233.000         192.000
  23833684.028    -8469462.98349  -6587991.36545  23833683.434    23833696.451
       217.000         150.000
  24078987.861    -6803342.70749  -5277384.00045  24078986.694    24079000.931
       210.000         140.000
  24151631.357    -7321054.43649  -5659525.97645  24151630.484    24151641.456
       212.000         146.000
 00  4 21  1 40 30.0000000  0  9G26G21G23G 3G17G29G 9G15G31
  24574532.740    -5337728.39349  -3904000.21945  24574531.786    24574543.125
       209.000         137.000
  21573008.905    -3344564.48249  -2593120.04347  21573008.377    21573017.148
       239.000         201.000
  21185115.683   -19165272.78549 -14921473.76847  21185115.250    21185123.365
       241.000         208.000
  21804961.086   -20981730.60149 -16336219.79047  21804960.680    21804969.479
       235.000         193.000
  21533020.741   -23452464.97349 -17978612.78047  21533020.170    21533029.486
       235.000         194.000
  21563368.908   -19679041.68849 -15313587.62447  21563368.281    21563377.847
       233.000         192.000
  23825534.543    -8512288.89149  -6621362.02245  23825532.467    23825545.379
       214.000         149.000
  24061358.433    -6895985.31649  -5349572.87745  24061356.709    24061370.598
       211.000         141.000
  24135477.505    -7405943.06749  -5725672.83945  24135476.227    24135488.415
       212.000         146.000
 00  4 21  1 41  0.0000000  0  9G26G21G23G 3G17G29G 9G15G31
  24595094.497    -5229675.86949  -3819803.46745  24595094.490    24595106.574
       213.000         137.000
  21566975.158    -3376271.88449  -2617827.04547  21566974.574    21566983.106
       239.000         201.000
  21191263.933   -19132963.55749 -14896297.75247  21191263.663    21191271.328
       241.000         208.000
  21798093.990   -21017817.27349 -16364339.24447  21798093.574    21798102.770
       236.000         193.000
  21542301.964   -23403691.70449 -17940607.65547  21542301.445    21542310.975
       235.000         194.000
  21548191.184   -19758800.31249 -15375737.03347  21548190.928    21548200.406
       233.000         193.000
  23817459.870    -8554720.31149  -6654425.28245  23817457.287    23817470.217
       212.000         149.000
  24043724.464    -6988651.77749  -5421780.35445  24043723.337    24043736.437
       213.000         142.000
  24119390.837    -7490478.57049  -5791544.54245  24119389.994    24119400.910
       212.000         146.000
 00  4 21  1 41 30.0000000  0  8G21G23G 3G17G29G 9G15G31
  21560980.618    -3407773.11849  -2642373.39647  21560980.104    21560988.719
       239.000         202.000
  21197442.548   -19100494.82249 -14870997.44747  21197441.936    21197450.050
       241.000         207.000
  21791325.459   -21053386.14749 -16392055.22147  21791325.189    21791334.096
       235.000         194.000
  21551644.053   -23354598.84849 -17902353.50847  21551643.248    21551652.972
       235.000         194.000
  21533090.731   -19838153.23349 -15437570.30647  21533090.472    21533099.957
       233.000         193.000
  23809464.251    -8596736.68049  -6687165.12845  23809462.392    23809473.753
       213.000         149.000
  24026085.686    -7081343.54649  -5494007.55745  24026084.598    24026097.932
       213.000         143.000
  24103369.473    -7574670.60749  -5857148.61845  24103368.575    24103380.163
       211.000         147.000
 00  4 21  1 42  0.0000000  0  8G21G23G 3G17G29G 9G15G31
  21555025.381    -3439067.99649  -2666758.95347  21555024.667    21555033.357
       239.000         202.000
  21203649.941   -19067874.61949 -14845579.11547  21203649.439    21203657.568
       241.000         207.000
  21784654.805   -21088440.49049 -16419370.26547  21784654.478    21784663.407
       236.000         194.000
  21561050.656   -23305166.91849 -17863835.15147  21561050.405    21561059.922
       234.000         194.000
  21518066.364   -19917106.06849 -15499091.83247  21518066.073    21518075.794
       233.000         193.000
  23801547.264    -8638340.19049  -6719583.26545  23801545.773    23801559.824
       212.000         150.000
  24008442.425    -7174059.21149  -5566253.41645  24008441.902    24008453.956
       212.000         142.000
  24087410.692    -7658534.26649  -5922496.80845  24087410.293    24087420.639
       210.000         147.000
 00  4 21  1 42 30.0000000  0  8G21G23G 3G17G29G 9G15G31
  21549110.563    -3470150.23349  -2690978.81647  21549109.642    21549118.729
       240.000         202.000
  21209885.306   -19035107.63949 -14820046.40847  21209884.672    21209892.934
       242.000         207.000
  21778084.781   -21122966.20349 -16446273.38947  21778084.826    21778092.949
       236.000         194.000
  21570523.881   -23255384.83749 -17825043.95647  21570523.098    21570532.653
       235.000         194.000
  21503115.066   -19995674.80749 -15560314.05547  21503114.554    21503124.274
       234.000         193.000
  23793704.779    -8679551.42449  -6751695.73545  23793702.153    23793717.058
       215.000         148.000
  23990794.628    -7266798.95049  -5638518.01545  23990792.940    23990806.246
       214.000         143.000
  24071512.346    -7742079.97649  -5987597.24445  24071511.969    24071521.664
       211.000         147.000
 00  4 21  1 43  0.0000000  0  8G21G23G 3G17G29G 9G15G31
  21543237.271    -3501014.25549  -2715028.64247  21543236.558    21543245.057
       239.000         202.000
  21216150.014   -19002186.27449 -14794393.39947  21216149.525    21216157.584
       241.000         207.000
  21771621.215   -21156932.31149 -16472740.46147  21771620.671    21771629.506
       236.000         194.000
  21580064.357   -23205249.48849 -17785977.49647  21580063.633    21580073.493
       234.000         193.000
  21488235.077   -20073869.17349 -15621244.56447  21488234.475    21488244.200
       234.000         194.000
  23785939.256    -8720359.33749  -6783493.92645  23785937.498    23785950.348
       214.000         149.000
  23973143.692    -7359555.05349  -5710795.38145  23973142.869    23973155.383
       213.000         145.000
  24055678.324    -7825287.76149  -6052434.36045  24055677.021    24055688.228
       209.000         148.000
 00  4 21  1 43 30.0000000  0  8G21G23G 3G17G29G 9G15G31
  21537404.742    -3531664.15949  -2738911.61547  21537404.065    21537412.567
       240.000         202.000
  21222445.579   -18969103.05149 -14768614.26247  21222445.017    21222453.114
       242.000         207.000
  21765269.924   -21190308.49049 -16498747.85047  21765269.627    21765278.304
       237.000         194.000
  21589671.308   -23154764.92649 -17746638.92647  21589670.392    21589680.507
       234.000         193.000
  21473423.565   -20151703.54649 -15681894.56147  21473422.959    21473432.339
       235.000         194.000
  23778252.025    -8760755.48349  -6814971.26345  23778249.410    23778263.366
       212.000         148.000
  23955489.419    -7452328.50449  -5783086.26045  23955488.600    23955500.650
       215.000         145.000
  24039911.344    -7908142.85749  -6116996.65245  24039910.936    24039922.002
       210.000         148.000
 00  4 21  1 44  0.0000000  0  8G21G23G 3G17G29G 9G15G31
  21531612.348    -3562103.24149  -2762630.31547  21531611.925    21531620.157
       240.000         202.000
  21228770.851   -18935863.49849 -14742713.31047  21228770.128    21228778.426
       241.000         207.000
  21759032.990   -21223083.74649 -16524286.99147  21759032.685    21759041.700
       236.000         194.000
  21599344.877   -23103929.99149 -17707027.34147  21599344.155    21599353.972
       234.000         193.000
  21458680.627   -20229177.52749 -15742263.73347  21458679.945    21458689.455
       234.000         194.000
  23770642.453    -8800743.15349  -6846130.29745  23770641.158    23770652.212
       214.000         149.000
  23937833.402    -7545110.80049  -5855384.02745  23937832.084    23937844.918
       213.000         145.000
  24024216.430    -7990619.61549  -6181264.14845  24024215.692    24024226.907
       210.000         149.000
 00  4 21  1 44 30.0000000  0  8G21G23G 3G17G29G 9G15G31
  21525856.788    -3592348.72049  -2786198.16347  21525856.150    21525864.766
       240.000         202.000
  21235122.051   -18902487.57249 -14716706.09247  21235121.531    21235129.810
       241.000         207.000
  21752908.751   -21255266.79649 -16549364.67647  21752908.525    21752917.254
       236.000         194.000
  21609081.856   -23052762.14749 -17667156.34047  21609081.474    21609091.025
       235.000         193.000
  21444006.584   -20306289.60349 -15802350.90547  21444005.884    21444015.876
       234.000         195.000
  23763113.059    -8840309.26149  -6876960.85945  23763111.570    23763124.921
       212.000         149.000
  23920174.365    -7637909.07749  -5927694.24545  23920173.648    23920186.080
       214.000         145.000
  24008597.108    -8072699.24849  -6245222.19545  24008596.355    24008607.882
       212.000         150.000
 00  4 21  1 45  0.0000000  0  8G21G23G 3G17G29G 9G15G31
  21520134.128    -3622421.28849  -2809631.26747  21520133.442    21520142.126
       240.000         202.000
  21241496.592   -18868989.29449 -14690603.53047  21241496.138    21241504.171
       241.000         207.000
  21746892.794   -21286880.82349 -16573998.96347  21746892.230    21746900.834
       236.000         195.000
  21618878.519   -23001280.59549 -17627040.89647  21618878.242    21618887.712
       234.000         192.000
  21429399.749   -20383048.32549 -15862162.73747  21429399.665    21429409.005
       234.000         195.000
  23755664.641    -8879450.33949  -6907460.24145  23755663.856    23755675.307
       212.000         148.000
  23902509.440    -7730738.18449  -6000028.47845  23902508.288    23902520.753
       214.000         145.000
  23993051.339    -8154392.82449  -6308879.42545  23993050.557    23993061.947
       212.000         150.000
 00  4 21  1 45 30.0000000  0  8G21G23G 3G17G29G 9G15G31
  21514442.344    -3652331.57349  -2832937.93047  21514441.852    21514450.092
       239.000         202.000
  21247894.497   -18835368.05749 -14664405.15847  21247894.009    21247901.946
       241.000         207.000
  21740980.838   -21317948.22149 -16598207.30847  21740980.682    21740989.157
       236.000         195.000
  21628736.428   -22949477.17249 -17586674.63347  21628736.018    21628745.377
       235.000         192.000
  21414860.005   -20459454.48749 -15921699.85147  21414859.401    21414868.663
       234.000         195.000
  23748294.521    -8918179.67649  -6937638.73345  23748293.548    23748305.101
       215.000         149.000
  23884837.360    -7823604.87249  -6072391.99545  23884836.332    23884848.559
       213.000         146.000
  23977577.202    -8235709.60549  -6372243.04145  23977575.690    23977588.206
       210.000         151.000
 00  4 21  1 46  0.0000000  0  8G21G23G 3G17G29G 9G15G31
  21508780.882    -3682082.47849  -2856120.40247  21508780.481    21508788.627
       240.000         203.000
  21254315.011   -18801628.05749 -14638114.24247  21254314.484    21254322.464
       241.000         206.000
  21735169.051   -21348489.35349 -16622005.57047  21735168.576    21735177.565
       236.000         195.000
  21638653.158   -22897364.60049 -17546067.46247  21638653.032    21638661.835
       235.000         192.000
  21400389.720   -20535495.81749 -15980952.68047  21400389.409    21400398.797
       235.000         196.000
  23741004.828    -8956486.19949  -6967487.79945  23741004.485    23741015.679
       215.000         148.000
  23867158.332    -7916508.32049  -6144784.14145  23867157.661    23867169.582
       213.000         146.000
  23962173.766    -8316654.69049  -6435317.04345  23962172.473    23962183.917
       210.000         150.000
 00  4 21  1 46 30.0000000  0  8G21G23G 3G17G29G 9G15G31
  21503150.792    -3711668.45049  -2879174.35447  21503150.199    21503158.590
       239.000         203.000
  21260759.147   -18767763.73049 -14611726.44547  21260758.643    21260766.522
       241.000         206.000
  21729458.071   -21378500.86549 -16645391.14847  21729457.410    21729466.238
       237.000         196.000
  21648627.727   -22844947.94749 -17505223.35647  21648627.247    21648636.636
       234.000         192.000
  21385989.190   -20611170.41549 -16039919.74347  21385988.698    21385997.752
       235.000         196.000
  23733796.769    -8994364.38449  -6997003.09245  23733795.435    23733807.894
       214.000         149.000
  23849471.969    -8009450.17249  -6217206.19245  23849471.045    23849483.806
       211.000         146.000
  23946836.662    -8397250.93849  -6498119.21445  23946835.661    23946846.826
       207.000         149.000
 00  4 21  1 47  0.0000000  0  8G21G23G 3G17G29G 9G15G31
  21497554.281    -3741078.21049  -2902090.99847  21497553.583    21497561.983
       239.000         203.000
  21267229.549   -18733761.61449 -14585231.28447  21267228.944    21267236.931
       241.000         206.000
  21723851.134   -21407965.46149 -16668350.54647  21723850.811    21723859.422
       236.000         196.000
  21658661.342   -22792221.16949 -17464137.57847  21658660.461    21658670.407
       234.000         192.000
  21371660.478   -20686467.66849 -16098592.76947  21371660.118    21371669.253
       235.000         196.000
  23726668.527    -9031822.88449  -7026191.37045  23726668.529    23726680.420
       213.000         149.000
  23831780.450    -8102418.78049  -6289649.06445  23831778.823    23831791.916
       212.000         147.000
  23931566.009    -8477498.26249  -6560649.48145  23931564.593    23931576.589
       207.000         148.000
 00  4 21  1 47 30.0000000  0  8G21G23G 3G17G29G 9G15G31
  21491992.012    -3770307.99149  -2924867.40047  21491991.264    21491999.979
       239.000         203.000
  21273728.325   -18699610.39849 -14558619.94047  21273728.114    21273735.894
       241.000         206.000
  21718349.501   -21436876.58449 -16690878.67647  21718348.990    21718357.951
       236.000         196.000
  21668754.178   -22739183.11549 -17422809.26347  21668753.784    21668763.558
       234.000         191.000
  21357407.906   -20761364.88449 -16156954.08147  21357407.235    21357416.689
       235.000         196.000
  23719621.735    -9068853.78249  -7055046.45845  23719620.798    23719632.989
       212.000         149.000
  23814085.683    -8195404.57649  -6362105.33145  23814084.472    23814097.653
       212.000         148.000
  23916365.159    -8557378.76849  -6622893.92745  23916363.976    23916376.107
       208.000         147.000
 00  4 21  1 48  0.0000000  0  8G21G23G 3G17G29G 9G15G31
  21486464.016    -3799357.64149  -2947503.44547  21486463.361    21486471.915
       240.000         203.000
  21280256.769   -18665303.27549 -14531887.11547  21280256.215    21280264.394
       241.000         206.000
  21712953.923   -21465230.43749 -16712972.56347  21712953.535    21712962.545
       236.000         196.000
  21678905.212   -22685839.44149 -17381242.81547  21678904.607    21678913.967
       234.000         191.000
  21343235.207   -20835842.19849 -16214988.20147  21343235.206    21343244.147
       235.000         197.000
  23712657.862    -9105447.84049  -7083561.13645  23712655.570    23712669.821
       212.000         149.000
  23796388.704    -8288401.78649  -6434570.47145  23796387.304    23796399.993
       212.000         149.000
  23901232.799    -8636899.47049  -6684858.00745  23901231.382    23901242.457
       209.000         148.000
 00  4 21  1 48 30.0000000  0  8G21G23G 3G17G29G 9G15G31
  21480971.615    -3828220.24549  -2969993.74347  21480971.073    21480979.502
       240.000         203.000
  21286814.711   -18630841.16549 -14505033.51947  21286814.175    21286822.356
       241.000         206.000
  21707666.889   -21493013.93549 -16734622.01547  21707666.335    21707675.169
       236.000         196.000
  21689118.897   -22632166.15849 -17339419.51347  21689118.146    21689128.002
       233.000         191.000
  21329144.223   -20909890.18549 -16272687.78047  21329143.941    21329153.014
       235.000         197.000
  23705773.934    -9141622.57449  -7111749.06445  23705771.496    23705784.944
       211.000         148.000
  23778690.572    -8381405.19749  -6507040.43645  23778688.576    23778701.787
       212.000         148.000
  23886169.690    -8716055.99749  -6746538.31545  23886168.250    23886179.505
       209.000         149.000
 00  4 21  1 49  0.0000000  0  8G21G23G 3G17G29G 9G15G31
  21475513.863    -3856900.69349  -2992342.09947  21475513.441    21475521.793
       240.000         203.000
  21293404.484   -18596211.70549 -14478049.52147  21293403.913    21293411.848
       240.000         206.000
  21702489.569   -21520220.68449 -16755822.05947  21702489.519    21702497.891
       237.000         196.000
  21699395.871   -22578160.33049 -17297337.08147  21699395.451    21699404.661
       234.000         191.000
  21315135.604   -20983505.60449 -16330050.29247  21315135.209    21315144.334
       236.000         197.000
  23698970.465    -9177373.55849  -7139606.80145  23698970.284    23698982.737
       215.000         148.000
  23760992.186    -8474410.08549  -6579511.54145  23760990.928    23761004.168
       212.000         149.000
  23871180.248    -8794825.68249  -6807917.19245  23871179.886    23871190.805
       212.000         151.000
 00  4 21  1 49 30.0000000  0  8G21G23G 3G17G29G 9G15G31
  21470091.322    -3885396.07749  -3014546.25247  21470090.795    21470099.174
       240.000         203.000
  21300026.442   -18561412.96249 -14450933.61747  21300025.789    21300033.988
       240.000         205.000
  21697420.604   -21546857.96749 -16776578.35547  21697420.269    21697429.015
       236.000         196.000
  21709736.615   -22523819.52549 -17254993.64447  21709736.222    21709745.718
       232.000         190.000
  21301209.214   -21056688.48649 -16387075.76647  21301208.680    21301217.990
       236.000         198.000
  23692252.322    -9212677.42749  -7167116.17345  23692253.045    23692264.488
       212.000         148.000
  23743293.173    -8567418.11749  -6651985.11745  23743292.021    23743304.855
       211.000         149.000
  23856264.720    -8873207.11349  -6868993.54945  23856263.772    23856274.957
       214.000         153.000
 00  4 21  1 50  0.0000000  0  8G21G23G 3G17G29G 9G15G31
  21464705.273    -3913699.84649  -3036601.09747  21464704.634    21464712.983
       241.000         204.000
  21306677.201   -18526462.78249 -14423699.71647  21306676.625    21306684.555
       241.000         205.000
  21692463.417   -21572908.14249 -16796877.16547  21692463.140    21692471.927
       236.000         196.000
  21720142.569   -22469135.97949 -17212383.13247  21720142.049    21720151.933
       233.000         190.000
  21287362.669   -21129451.99949 -16443774.46447  21287362.316    21287371.148
       236.000         198.000
  23685620.208    -9247528.27449  -7194272.54845  23685619.357    23685631.815
       207.000         148.000
  23725593.927    -8660427.64749  -6724459.84445  23725592.934    23725604.747
       210.000         149.000
  23841421.946    -8951205.91349  -6929771.74445  23841421.437    23841432.140
       215.000         154.000
 00  4 21  1 50 30.0000000  0  8G21G23G 3G17G29G 9G15G31
  21459357.841    -3941800.67549  -3058497.80747  21459357.236    21459365.536
       240.000         204.000
  21313352.853   -18491382.10249 -14396364.12347  21313352.403    21313360.116
       241.000         205.000
  21687619.449   -21598363.26149 -16816712.29547  21687618.974    21687628.135
       236.000         196.000
  21730611.615   -22414120.70549 -17169514.12247  21730611.011    21730620.433
       232.000         190.000
  21273591.345   -21201820.08249 -16500165.02947  21273591.019    21273600.051
       236.000         198.000
  23679073.472    -9281930.81449  -7221079.57445  23679074.198    23679084.779
       212.000         149.000
  23707893.734    -8753442.40649  -6796938.65145  23707892.438    23707904.815
       212.000         150.000
  23826657.671    -9028792.54049  -6990228.75345  23826656.869    23826668.104
       216.000         155.000
 00  4 21  1 51  0.0000000  0  8G21G23G 3G17G29G 9G15G31
  21454048.709    -3969700.15949  -3080237.62347  21454048.182    21454056.343
       241.000         204.000
  21320051.238   -18456181.85149 -14368935.36447  21320050.666    21320058.620
       240.000         205.000
  21682887.033   -21623232.29749 -16836090.73847  21682886.990    21682895.379
       237.000         196.000
  21741140.996   -22358788.55249 -17126398.18947  21741140.352    21741149.870
       233.000         190.000
  21259892.625   -21273806.98049 -16556258.57347  21259892.033    21259901.187
       236.000         198.000
  23672614.225    -9315874.53549  -7247529.08845  23672614.510    23672624.858
       209.000         149.000
  23690191.297    -8846468.47849  -6869426.26845  23690189.813    23690201.889
       210.000         150.000
  23811972.764    -9105962.13649  -7050360.80145  23811972.285    23811982.897
       215.000         156.000
 00  4 21  1 51 30.0000000  0  8G21G23G 3G17G29G 9G15G31
  21448778.116    -3997397.23749  -3101819.72647  21448777.530    21448785.749
       240.000         204.000
  21326768.457   -18420882.65449 -14341429.50047  21326768.056    21326776.089
       240.000         205.000
  21678264.358   -21647524.36549 -16855019.59547  21678263.560    21678272.528
       236.000         196.000
  21751731.449   -22303135.58449 -17083032.27947  21751730.970    21751740.689
       232.000         189.000
  21246266.264   -21345413.36449 -16612055.60947  21246265.506    21246274.666
       236.000         199.000
  23666241.406    -9349362.98649  -7273623.81045  23666241.972    23666253.071
       212.000         149.000
  23672486.372    -8939507.72049  -6941924.17545  23672485.090    23672497.147
       210.000         150.000
  23797364.447    -9182728.90049  -7110178.94545  23797364.058    23797374.620
       216.000         157.000
 00  4 21  1 52  0.0000000  0  8G21G23G 3G17G29G 9G15G31
  21443544.511    -4024899.93049  -3123250.36047  21443543.963    21443552.199
       240.000         204.000
  21333503.811   -18385488.04049 -14313849.28547  21333503.193    21333511.456
       240.000         205.000
  21673752.142   -21671236.15749 -16873496.29047  21673751.684    21673760.622
       237.000         196.000
  21762382.409   -22247164.61049 -17039418.55947  21762382.086    21762391.437
       232.000         189.000
  21232711.661   -21416642.69149 -16667558.83847  21232711.170    21232720.369
       236.000         199.000
  23659951.296    -9382417.31849  -7299380.28445  23659949.987    23659961.066
       212.000         150.000
  23654779.039    -9032559.44749  -7014431.80945  23654778.088    23654789.428
       210.000         150.000
  23782831.941    -9259097.56649  -7169686.88345  23782831.678    23782842.077
       216.000         158.000
 00  4 21  1 52 30.0000000  0  8G21G23G 3G17G29G 9G15G31
  21438346.916    -4052213.40449  -3144533.54847  21438346.312    21438354.766
       241.000         204.000
  21340261.759   -18349974.97049 -14286176.77047  21340261.145    21340269.070
       241.000         205.000
  21669346.337   -21694388.62849 -16891537.15347  21669346.054    21669354.716
       237.000         196.000
  21773094.778   -22190870.85049 -16995553.33347  21773094.510    21773104.033
       233.000         189.000
  21219231.075   -21487483.09849 -16722759.01247  21219230.762    21219239.769
       238.000         199.000
  23653745.932    -9415026.60749  -7324789.99245  23653745.813    23653757.686
       212.000         151.000
  23637070.317    -9125618.24249  -7086944.95945  23637069.197    23637081.270
       209.000         151.000
  23768376.611    -9335060.50149  -7228878.65945  23768376.106    23768386.429
       217.000         158.000
 00  4 21  1 53  0.0000000  0  8G21G23G 3G17G29G 9G15G31
  21433181.970    -4079355.11149  -3165682.88847  21433181.337    21433189.559
       240.000         204.000
  21347044.893   -18314329.21349 -14258400.86447  21347044.279    21347052.287
       240.000         205.000
  21665043.594   -21716999.52649 -16909156.00647  21665043.373    21665052.152
       236.000         196.000
  21783870.505   -22134244.30749 -16951428.80147  21783869.921    21783879.832
       232.000         189.000
  21205829.222   -21557909.86749 -16777636.87847  21205829.200    21205837.805
       237.000         199.000
  23647628.517    -9447172.76849  -7349838.82045  23647628.098    23647639.167
       214.000         150.000
  23619360.782    -9218681.31649  -7159461.45345  23619359.228    23619372.647
       207.000         150.000
  23753994.121    -9410640.95349  -7287772.39545  23753993.413    23754003.666
       217.000         158.000
 00  4 21  1 53 30.0000000  0  8G21G23G 3G17G29G 9G15G31
  21428048.377    -4106332.15149  -3186703.91547  21428047.691    21428056.287
       240.000         204.000
  21353856.297   -18278535.04649 -14230509.31047  21353855.623    21353863.712
       240.000         205.000
  21660844.610   -21739065.35049 -16926350.12747  21660844.210    21660852.838
       236.000         196.000
  21794710.777   -22077278.58849 -16907039.97347  21794710.596    21794719.801
       232.000         188.000
  21192507.994   -21627912.91049 -16832184.56247  21192507.502    21192516.331
       237.000         200.000
  23641598.385    -9478861.32649  -7374531.07245  23641597.533    23641610.103
       212.000         151.000
  23601651.560    -9311742.61149  -7231976.56045  23601650.278    23601662.767
       210.000         150.000
  23739684.201    -9485839.87949  -7346368.83345  23739683.269    23739694.148
       217.000         159.000
 00  4 21  1 54  0.0000000  0  8G21G23G 3G17G29G 9G15G31
  21422947.544    -4133136.97549  -3207590.74947  21422946.872    21422955.227
       240.000         204.000
  21360698.012   -18242581.60649 -14202493.65447  21360697.577    21360705.493
       240.000         205.000
  21656750.121   -21760581.85449 -16943116.21147  21656749.794    21656758.673
       236.000         196.000
  21805616.486   -22019969.06049 -16862383.24847  21805615.786    21805626.188
       231.000         188.000
  21179269.631   -21697480.32849 -16886392.80647  21179269.237    21179278.010
       237.000         200.000
  23635655.396    -9510091.38149  -7398866.05945  23635654.687    23635667.379
       211.000         152.000
  23583944.160    -9404794.80749  -7304484.59245  23583943.396    23583954.508
       210.000         151.000
  23725450.131    -9560640.11749  -7404654.61445  23725448.794    23725460.583
       217.000         158.000
 00  4 21  1 54 30.0000000  0  8G21G23G 3G17G29G 9G15G31
  21417880.467    -4159764.47049  -3228339.40347  21417879.900    21417888.427
       241.000         204.000
  21367569.741   -18206470.44649 -14174355.09147  21367569.300    21367577.180
       240.000         205.000
  21652759.864   -21781550.79149 -16959455.62447  21652759.646    21652768.650
       237.000         196.000
  21816588.306   -21962311.91549 -16817455.65047  21816587.801    21816597.343
       232.000         188.000
  21166116.264   -21766601.09949 -16940253.01347  21166115.843    21166124.452
       237.000         200.000
  23629800.728    -9540856.36849  -7422838.63845  23629799.140    23629811.483
       212.000         152.000
  23566238.878    -9497835.92749  -7376983.97945  23566238.343    23566250.122
       212.000         153.000
  23711293.995    -9635030.58149  -7462621.08845  23711292.684    23711303.673
       218.000         157.000
 00  4 21  1 55  0.0000000  0  8G21G23G 3G17G29G 9G15G31
  21412847.878    -4186210.89149  -3248946.95947  21412847.134    21412855.647
       240.000         204.000
  21374470.135   -18170208.66449 -14146099.16447  21374469.533    21374477.594
       240.000         205.000
  21648877.783   -21801951.32149 -16975352.12847  21648877.544    21648886.270
       237.000         196.000
  21827626.623   -21904305.26749 -16772255.71647  21827626.339    21827635.976
       232.000         188.000
  21153048.522   -21835272.08949 -16993762.74447  21153048.040    21153056.906
       237.000         200.000
  23624030.401    -9571179.15249  -7446466.65645  23624030.324    23624041.399
       213.000         152.000
  23548536.092    -9590864.50549  -7449473.59745  23548534.699    23548546.726
       213.000         154.000
  23697217.019    -9709004.91349  -7520263.31745  23697216.408    23697226.309
       216.000         157.000
 00  4 21  1 55 30.0000000  0  8G21G23G 3G17G29G 9G15G31
  21407851.156    -4212468.56749  -3269407.43547  21407850.374    21407858.730
       240.000         204.000
  21381398.878   -18133797.91049 -14117727.15447  21381398.366    21381406.265
       240.000         205.000
  21645107.683   -21821763.18249 -16990789.92947  21645107.174    21645115.988
       237.000         197.000
  21838732.255   -21845945.02149 -16726780.22546  21838731.371    21838741.175
       232.000         187.000
  21140065.731   -21903496.54649 -17046924.52747  21140065.227    21140073.799
       237.000         200.000
  23618343.448    -9601064.12949  -7469753.52345  23618342.871    23618354.905
       212.000         152.000
  23530836.758    -9683874.71449  -7521948.89745  23530835.731    23530847.483
       215.000         155.000
  23683221.008    -9782553.86349  -7577574.06645  23683220.148    23683230.855
       215.000         156.000
 00  4 21  1 56  0.0000000  0  8G21G23G 3G17G29G 9G15G31
  21402890.620    -4238536.13249  -3289719.77747  21402890.187    21402898.037
       241.000         204.000
  21388355.859   -18097238.89549 -14089239.62347  21388355.530    21388363.368
       240.000         205.000
  21641450.433   -21840982.22749 -17005765.79747  21641450.216    21641458.600
       237.000         197.000
  21849903.458   -21787240.18649 -16681036.23846  21849902.897    21849912.580
       232.000         187.000
  21127168.298   -21971272.56549 -17099736.88347  21127168.006    21127176.563
       237.000         201.000
  23612743.823    -9630489.58649  -7492682.31945  23612743.348    23612754.567
       214.000         153.000
  23513141.296    -9776864.74249  -7594408.47645  23513140.332    23513152.127
       217.000         157.000
  23669307.410    -9855669.34649  -7634547.06345  23669305.821    23669317.046
       213.000         155.000
 00  4 21  1 56 30.0000000  0  8G21G23G 3G17G29G 9G15G31
  21397964.550    -4264422.86949  -3309891.21447  21397964.148    21397972.207
       241.000         205.000
  21395340.263   -18060535.72049 -14060639.75647  21395339.705    21395347.818
       240.000         205.000
  21637906.646   -21859604.81049 -17020276.88947  21637906.519    21637915.117
       237.000         197.000
  21861138.063   -21728202.07349 -16635032.56946  21861137.380    21861147.437
       231.000         187.000
  21114353.751   -22038612.83749 -17152209.69647  21114353.437    21114362.197
       237.000         201.000
  23607234.519    -9659440.95249  -7515241.70745  23607234.002    23607244.985
       214.000         153.000
  23495449.459    -9869835.68949  -7666853.18545  23495448.260    23495460.172
       218.000         158.000
  23655477.073    -9928347.23549  -7691179.08045  23655476.095    23655486.563
       214.000         155.000
 00  4 21  1 57  0.0000000  0  8G21G23G 3G17G29G 9G15G31
  21393071.709    -4290134.68149  -3329926.34347  21393071.205    21393079.338
       241.000         205.000
  21402351.137   -18023693.33549 -14031931.41147  21402350.711    21402358.741
       240.000         205.000
  21634477.270   -21877626.45149 -17034319.71547  21634476.953    21634485.793
       237.000         197.000
  21872434.683   -21668838.10549 -16588774.98946  21872434.189    21872443.951
       231.000         187.000
  21101620.025   -22105528.46449 -17204351.61347  21101619.543    21101628.029
       237.000         201.000
  23601817.182    -9687908.68649  -7537424.21445  23601817.322    23601828.011
       216.000         153.000
  23477761.418    -9962786.60349  -7739282.29245  23477760.115    23477771.483
       219.000         159.000
  23641728.544   -10000595.64549  -7747476.43845  23641727.493    23641738.408
       213.000         154.000
 00  4 21  1 57 30.0000000  0  8G21G23G 3G17G29G 9G15G31
  21388210.236    -4315681.64849  -3349833.02147  21388209.651    21388217.755
       241.000         205.000
  21409386.604   -17986721.70149 -14003122.35347  21409386.030    21409394.338
       241.000         204.000
  21631160.411   -21895056.65849 -17047901.68747  21631160.020    21631168.698
       237.000         197.000
  21883790.267   -21609164.32349 -16542275.99246  21883789.967    21883799.244
       231.000         186.000
  21088965.876   -22172025.93649 -17256167.69647  21088965.513    21088974.163
       238.000         201.000
  23596497.965    -9715861.30549  -7559205.36445  23596497.655    23596509.120
       214.000         154.000
  23460076.857   -10055719.20649  -7811697.11145  23460075.058    23460087.531
       218.000         159.000
  23628059.747   -10072425.15249  -7803447.38045  23628058.965    23628069.913
       214.000         154.000
 00  4 21  1 58  0.0000000  0  8G21G23G 3G17G29G 9G15G31
  21383378.063    -4341074.81349  -3369619.85147  21383377.386    21383385.860
       241.000         205.000
  21416444.567   -17949631.92849 -13974221.23747  21416444.164    21416452.041
       240.000         204.000
  21627953.890   -21911906.96349 -17061031.78847  21627953.859    21627962.368
       237.000         197.000
  21895203.187   -21549189.21049 -16495542.17846  21895202.886    21895212.348
       230.000         186.000
  21076389.064   -22238117.06049 -17307667.15047  21076388.770    21076397.242
       237.000         201.000
  23591276.634    -9743298.62349  -7580584.95145  23591276.199    23591288.351
       213.000         154.000
  23442394.403   -10148640.19549  -7884102.88445  23442393.119    23442403.845
       218.000         159.000
  23614470.613   -10143836.28449  -7859092.32445  23614470.452    23614480.419
       215.000         155.000
 00  4 21  1 58 30.0000000  0  8G21G23G 3G17G29G 9G15G31
  21378574.730    -4366316.29849  -3389288.48347  21378574.021    21378582.362
       241.000         205.000
  21423521.047   -17912444.81749 -13945244.27447  21423520.525    21423528.231
       240.000         204.000
  21624855.409   -21928189.53949 -17073719.50747  21624855.144    21624863.649
       237.000         197.000
  21906673.121   -21488914.47149 -16448574.89746  21906672.826    21906682.454
       231.000         186.000
  21063890.240   -22303798.28149 -17358847.19447  21063889.643    21063898.043
       238.000         201.000
  23586150.163    -9770237.75749  -7601576.35445  23586150.858    23586161.570
       215.000         155.000
  23424712.786   -10241556.76949  -7956505.21345  23424711.660    23424722.983
       216.000         158.000
  23600959.094   -10214839.63849  -7914419.52245  23600958.386    23600967.723
       216.000         156.000
 00  4 21  1 59  0.0000000  0  8G21G23G 3G17G29G 9G15G31
  21373801.143    -4391401.50049  -3408835.34147  21373800.576    21373808.830
       241.000         205.000
  21430612.871   -17875176.91349 -13916204.36047  21430612.506    21430620.284
       240.000         204.000
  21621862.924   -21943915.22949 -17085973.29347  21621862.646    21621871.448
       237.000         197.000
  21918200.484   -21428337.89549 -16401372.41146  21918200.176    21918209.906
       231.000         186.000
  21051471.596   -22369058.10149 -17409698.87547  21051471.310    21051479.902
       238.000         202.000
  23581117.020    -9796686.60849  -7622185.73545  23581115.813    23581127.399
       213.000         155.000
  23407030.195   -10334478.31349  -8028911.41445  23407028.671    23407040.530
       214.000         157.000
  23587523.088   -10285446.28649  -7969437.61245  23587522.318    23587533.034
       216.000         156.000
 00  4 21  1 59 30.0000000  0  8G21G23G 3G17G29G 9G15G31
  21369057.172    -4416330.96249  -3428260.84447  21369056.630    21369064.436
       241.000         205.000
  21437719.594   -17837830.97949 -13887103.64347  21437719.086    21437726.954
       240.000         204.000
  21618974.377   -21959094.56849 -17097801.34747  21618974.236    21618982.788
       237.000         197.000
  21929786.123   -21367455.11749 -16353931.32046  21929785.176    21929795.680
       230.000         185.000
  21039133.740   -22433893.42949 -17460219.78147  21039133.141    21039141.586
       238.000         202.000
  23576175.479    -9822654.13749  -7642420.04245  23576176.972    23576185.739
       214.000         155.000
  23389345.809   -10427409.17649  -8101324.88345  23389344.963    23389356.077
       213.000         155.000
  23574164.037   -10355648.37549  -8024140.47045  23574163.656    23574172.833
       217.000         157.000
 00  4 21  2  0  0.0000000  0  8G21G23G 3G17G29G 9G15G31
  21364346.541    -4441085.20249  -3447549.80847  21364345.811    21364354.147
       241.000         205.000
  21444840.461   -17800410.47349 -13857944.81747  21444840.026    21444848.207
       240.000         204.000
  21616189.674   -21973728.28249 -17109204.24547  21616189.194    21616198.054
       237.000         197.000
  21941432.698   -21306252.15349 -16306240.74046  21941432.352    21941441.854
       230.000         185.000
  21026876.878   -22498303.11749 -17510409.02247  21026876.516    21026884.883
       239.000         202.000
  23571321.278    -9848162.76149  -7662296.76245  23571319.465    23571330.910
       213.000         156.000
  23371659.487   -10520350.00049  -8173746.12845  23371658.318    23371669.724
       213.000         154.000
  23560885.310   -10425428.77149  -8078514.73745  23560884.109    23560895.177
       215.000         157.000
 00  4 21  2  0 30.0000000  0  8G21G23G 3G17G29G 9G15G31
  21359670.069    -4465660.00249  -3466698.94947  21359669.648    21359677.430
       241.000         205.000
  21451975.083   -17762917.99049 -13828729.89947  21451974.367    21451982.566
       240.000         204.000
  21613511.080   -21987804.28549 -17120172.55947  21613510.878    21613519.225
       237.000         197.000
  21953141.477   -21244722.28849 -16258295.43946  21953141.376    21953150.840
       229.000         185.000
  21014702.164   -22562281.09549 -17560261.86747  21014701.915    21014709.980
       239.000         202.000
  23566555.803    -9873205.02049  -7681810.08845  23566555.583    23566565.959
       215.000         156.000
  23353972.041   -10613297.33149  -8246172.45145  23353971.732    23353982.236
       214.000         154.000
  23547687.700   -10494782.44949  -8132556.49345  23547687.006    23547697.227
       216.000         157.000
 00  4 21  2  1  0.0000000  0  8G21G23G 3G17G29G 9G15G31
  21355023.803    -4490076.13749  -3485724.45747  21355023.165    21355031.368
       242.000         206.000
  21459125.995   -17725339.78849 -13799448.19147  21459125.437    21459133.487
       240.000         203.000
  21610940.667   -22001311.92449 -17130698.00047  21610940.427    21610949.095
       237.000         197.000
  21964914.613   -21182854.15349 -16210086.55346  21964914.646    21964923.471
       231.000         185.000
  21002606.349   -22625844.63049 -17609791.77347  21002606.098    21002614.324
       239.000         203.000
  23561880.121    -9897775.49349  -7700955.79445  23561879.420    23561890.298
       215.000         157.000
  23336284.084   -10706247.39649  -8318600.92045  23336282.418    23336294.419
       216.000         154.000
  23534570.455   -10563713.56449  -8186269.00345  23534569.587    23534579.616
       215.000         156.000
 00  4 21  2  1 30.0000000  0  8G21G23G 3G17G29G 9G15G31
  21350406.785    -4514338.41749  -3504630.08347  21350406.091    21350414.546
       242.000         206.000
  21466296.165   -17687660.27849 -13770087.53847  21466295.573    21466303.616
       240.000         203.000
  21608479.272   -22014246.77949 -17140777.11347  21608478.831    21608487.718
       237.000         197.000
  21976752.052   -21120648.19349 -16161614.42346  21976751.442    21976761.534
       230.000         184.000
  20990587.978   -22689001.16949 -17659004.54147  20990587.569    20990596.010
       239.000         203.000
  23557294.337    -9921873.75349  -7719733.53245  23557293.915    23557305.707
       216.000         157.000
  23318597.478   -10799190.81249  -8391024.22845  23318596.851    23318608.060
       216.000         154.000
  23521535.212   -10632214.03149  -8239645.93345  23521533.981    23521545.215
       216.000         157.000
 00  4 21  2  2  0.0000000  0  8G21G23G 3G17G29G 9G15G31
  21345818.422    -4538450.31449  -3523418.53047  21345817.648    21345825.981
       242.000         206.000
  21473486.278   -17649875.98049 -13740645.23847  21473486.035    21473493.852
       240.000         203.000
  21606127.621   -22026604.74749 -17150406.70447  21606127.379    21606135.993
       237.000         197.000
  21988652.520   -21058110.77349 -16112884.01246  21988652.153    21988661.907
       230.000         184.000
  20978647.350   -22751748.80049 -17707898.67747  20978646.985    20978655.283
       239.000         203.000
  23552800.267    -9945490.22449  -7738135.86045  23552799.846    23552810.853
       216.000         157.000
  23300912.936   -10892123.39649  -8463439.10645  23300912.124    23300923.068
       216.000         154.000
  23508583.229   -10700276.63549  -8292681.68445  23508582.377    23508592.791
       216.000         157.000
 00  4 21  2  2 30.0000000  0  8G21G23G 3G17G29G 9G15G31
  21341255.038    -4562430.87849  -3542104.64047  21341254.537    21341262.678
       242.000         206.000
  21480699.681   -17611969.53349 -13711107.75247  21480699.281    21480707.457
       240.000         203.000
  21603886.106   -22038383.79149 -17159585.18147  21603886.041    21603894.418
       237.000         197.000
  22000615.291   -20995246.29949 -16063898.74346  22000614.472    22000624.597
       230.000         184.000
  20966784.860   -22814086.26849 -17756473.20847  20966784.317    20966792.615
       240.000         203.000
  23548398.718    -9968619.94049  -7756158.90645  23548397.753    23548409.345
       214.000         157.000
  23283231.443   -10985040.06549  -8535841.59645  23283230.125    23283241.585
       217.000         155.000
  23495713.951   -10767904.60349  -8345378.75045  23495713.156    23495723.741
       216.000         157.000
 00  4 21  2  3  0.0000000  0  8G21G23G 3G17G29G 9G15G31
  21336721.011    -4586257.29049  -3560670.63847  21336720.356    21336728.377
       242.000         206.000
  21487938.510   -17573929.22349 -13681465.95847  21487938.070    21487945.883
       240.000         203.000
  21601752.991   -22049593.37349 -17168319.92247  21601752.718    21601761.654
       237.000         197.000
  22012638.871   -20932062.09449 -16014664.33346  22012638.218    22012648.212
       230.000         184.000
  20955002.124   -22876004.39949 -17804720.98847  20955001.724    20955010.034
       239.000         203.000
  23544088.191    -9991271.22549  -7773809.13545  23544087.158    23544097.793
       214.000         157.000
  23265554.308   -11077933.74349  -8608226.19745  23265552.953    23265563.808
       215.000         155.000
  23482930.097   -10835083.71549  -8397726.05945  23482929.316    23482940.301
       216.000         158.000
 00  4 21  2  3 30.0000000  0  8G21G23G 3G17G29G 9G15G31
  21332222.857    -4609895.11649  -3579089.68647  21332222.180    21332230.263
       242.000         206.000
  21495203.366   -17535752.06149 -13651717.52247  21495202.611    21495210.805
       240.000         203.000
  21599729.274   -22060228.17949 -17176606.78547  21599728.999    21599737.815
       237.000         198.000
  22024722.489   -20868562.32649 -15965184.03246  22024722.282    22024731.987
       230.000         183.000
  20943302.823   -22937484.30549 -17852627.29047  20943302.563    20943310.565
       240.000         204.000
  23539869.879   -10013437.79749  -7791081.68045  23539870.906    23539880.440
       216.000         157.000
  23247884.042   -11170791.20949  -8680582.56145  23247883.155    23247893.605
       216.000         155.000
  23470238.814   -10901776.49449  -8449694.40445  23470237.753    23470248.259
       216.000         159.000
 00  4 21  2  4  0.0000000  0  8G21G23G 3G17G29G 9G15G31
  21327761.213    -4633341.08249  -3597359.22947  21327760.549    21327768.731
       242.000         206.000
  21502492.690   -17497446.50249 -13621869.03347  21502492.244    21502500.258
       240.000         203.000
  21597816.266   -22070281.19849 -17184440.30447  21597815.993    21597824.632
       237.000         198.000
  22036868.402   -20804735.25149 -15915448.70646  22036867.864    22036877.805
       230.000         183.000
  20931689.520   -22998512.32649 -17900181.47747  20931689.443    20931697.417
       240.000         204.000
  23535744.831   -10035114.99149  -7807972.88745  23535745.043    23535756.195
       218.000         158.000
  23230220.716   -11263612.15949  -8752910.48645  23230220.103    23230231.392
       217.000         156.000
  23457641.043   -10967977.80649  -8501279.78545  23457640.653    23457650.546
       216.000         159.000
 00  4 21  2  4 30.0000000  0  8G21G23G 3G17G29G 9G15G31
  21323336.507    -4656592.91649  -3615477.49747  21323335.762    21323343.894
       241.000         206.000
  21509804.947   -17459020.37049 -13591926.59147  21509804.632    21509812.327
       240.000         203.000
  21596014.484   -22079749.67649 -17191818.33947  21596014.390    21596023.066
       237.000         198.000
  22049077.294   -20740577.28649 -15865455.51946  22049077.002    22049086.858
       230.000         183.000
  20920165.159   -23059072.67949 -17947371.25047  20920164.791    20920172.805
       240.000         204.000
  23531711.920   -10056308.30349  -7824487.05845  23531710.945    23531721.317
       215.000         158.000
  23212564.553   -11356395.63249  -8825209.20845  23212562.657    23212574.284
       216.000         157.000
  23445135.002   -11033697.53549  -8552489.90345  23445134.331    23445144.056
       216.000         160.000
 00  4 21  2  5  0.0000000  0  8G21G23G 3G17G29G 9G15G31
  21318949.853    -4679644.81749  -3633439.97547  21318949.259    21318957.232
       242.000         206.000
  21517137.789   -17420486.15849 -13561899.92647  21517137.166    21517145.416
       240.000         203.000
  21594324.180   -22088632.31949 -17198739.87447  21594323.741    21594332.369
       237.000         198.000
  22061348.157   -20676093.91849 -15815208.77346  22061347.537    22061357.308
       229.000         183.000
  20908731.767   -23119155.29549 -17994188.76047  20908731.366    20908739.829
       240.000         204.000
  23527773.302   -10077005.41549  -7840614.57645  23527772.542    23527782.799
       216.000         158.000
  23194915.610   -11449141.00549  -8897478.23745  23194914.415    23194925.768
       216.000         158.000
  23432720.141   -11098938.11849  -8603326.65445  23432719.446    23432729.813
       217.000         160.000
 00  4 21  2  5 30.0000000  0  8G21G23G 3G17G29G 9G15G31
  21314597.788    -4702514.91649  -3651260.78847  21314597.231    21314605.162
       242.000         206.000
  21524491.035   -17381844.48749 -13531789.52847  21524490.475    21524498.457
       240.000         203.000
  21592745.941   -22096925.78049 -17205202.30247  21592745.483    21592754.620
       237.000         198.000
  22073681.940   -20611279.70549 -15764704.21846  22073680.939    22073691.316
       229.000         182.000
  20897389.292   -23178760.16149 -18040634.00447  20897388.959    20897397.139
       240.000         205.000
  23523931.281   -10097194.44149  -7856346.17645  23523932.171    23523942.088
       218.000         158.000
  23177273.503   -11541850.54149  -8969719.34645  23177272.738    23177283.671
       217.000         159.000
  23420393.823   -11163713.06549  -8653800.57145  23420393.689    23420402.791
       216.000         160.000
 00  4 21  2  6  0.0000000  0  8G21G23G 3G17G29G 9G15G31
  21310277.321    -4725219.01049  -3668952.25547  21310276.922    21310284.761
       242.000         206.000
  21531864.942   -17343094.18249 -13501594.47747  21531864.560    21531872.504
       240.000         202.000
  21591280.034   -22104629.25449 -17211205.00247  21591279.588    21591288.475
       237.000         198.000
  22086078.129   -20546137.38049 -15713943.99646  22086078.196    22086087.395
       229.000         182.000
  20886137.541   -23237887.96449 -18086707.50947  20886137.088    20886144.807
       241.000         205.000
  23520185.846   -10116876.04449  -7871682.38345  23520185.964    23520195.227
       217.000         158.000
  23159637.525   -11634527.69349  -9041935.20945  23159636.577    23159647.465
       218.000         160.000
  23408151.642   -11228045.98149  -8703930.04745  23408150.764    23408161.324
       216.000         160.000
 00  4 21  2  6 30.0000000  0  8G21G23G 3G17G29G 9G15G31
  21305989.509    -4747751.43749  -3686509.95047  21305988.961    21305997.019
       242.000         207.000
  21539263.167   -17304216.37049 -13471300.06947  21539262.599    21539270.721
       240.000         202.000
  21589927.466   -22111736.85349 -17216743.38247  21589927.194    21589935.980
       237.000         198.000
  22098535.025   -20480676.21049 -15662935.30846  22098534.543    22098543.966
       229.000         182.000
  20874975.206   -23296545.92249 -18132414.90147  20874974.676    20874982.894
       240.000         205.000
  23516539.440   -10136037.70249  -7886613.44745  23516538.599    23516549.391
       217.000         158.000
  23142010.786   -11727156.33549  -9114113.27345  23142009.170    23142020.886
       217.000         160.000
  23395994.423   -11291932.52549  -8753711.70045  23395993.521    23396004.706
       215.000         160.000
 00  4 21  2  7  0.0000000  0  8G21G23G 3G17G29G 9G15G31
  21301737.065    -4770098.10349  -3703922.89347  21301736.345    21301744.200
       242.000         206.000
  21546688.136   -17265197.82249 -13440896.00247  21546687.349    21546695.542
       239.000         202.000
  21588689.642   -22118241.39649 -17221811.84447  21588689.471    21588698.059
       237.000         198.000
  22111054.067   -20414888.47549 -15611672.15746  22111053.456    22111063.339
       228.000         182.000
  20863898.178   -23354755.81449 -18177773.15247  20863897.794    20863905.655
       241.000         205.000
  23512995.791   -10154659.74749  -7901124.02645  23512994.033    23513005.913
       213.000         158.000
  23124395.133   -11819726.47549  -9186245.75045  23124394.115    23124405.403
       217.000         160.000
  23383924.239   -11355360.97149  -8803136.38045  23383924.116    23383934.347
       216.000         160.000
 00  4 21  2  7 30.0000000  0  8G21G23G 3G17G29G 9G15G31
  21297519.766    -4792259.90749  -3721191.79647  21297519.284    21297527.372
       242.000         207.000
  21554139.648   -17226039.79049 -13410383.24547  21554139.230    21554147.045
       239.000         202.000
  21587566.418   -22124144.17449 -17226411.40047  21587566.059    21587574.903
       237.000         198.000
  22123638.909   -20348754.52949 -15560139.23146  22123638.684    22123648.233
       227.000         181.000
  20852907.138   -23412513.64049 -18222779.14847  20852906.803    20852914.823
       241.000         206.000
  23509554.239   -10172743.90549  -7915215.48945  23509553.495    23509564.274
       216.000         158.000
  23106792.244   -11912229.81849  -9258326.15145  23106791.141    23106802.129
       217.000         160.000
  23371942.433   -11418325.51249  -8852199.57745  23371942.221    23371951.781
       216.000         160.000
 00  4 21  2  8  0.0000000  0  8G21G23G 3G17G29G 9G15G31
  21293335.345    -4814249.09049  -3738326.19147  21293334.721    21293342.447
       242.000         207.000
  21561615.263   -17186755.08049 -13379771.78347  21561614.705    21561622.666
       239.000         202.000
  21586556.574   -22129450.91549 -17230546.51347  21586556.238    21586564.617
       238.000         198.000
  22136288.452   -20282280.70349 -15508341.47546  22136287.797    22136297.373
       227.000         181.000
  20842001.443   -23469823.04449 -18267435.72247  20842001.043    20842008.948
       241.000         206.000
  23506214.857   -10190292.89549  -7928889.93945  23506213.657    23506225.029
       214.000         159.000
  23089201.502   -12004669.11249  -9330356.64545  23089200.189    23089210.676
       216.000         160.000
  23360048.298   -11480829.18349  -8900903.65545  23360047.086    23360058.645
       216.000         162.000
 00  4 21  2  8 30.0000000  0  8G21G23G 3G17G29G 9G15G31
  21289181.733    -4836076.30549  -3755334.36347  21289181.157    21289189.044
       242.000         207.000
  21569111.821   -17147360.59349 -13349074.77747  21569111.255    21569119.521
       239.000         201.000
  21585656.764   -22134179.34749 -17234230.99047  21585656.411    21585665.262
       238.000         198.000
  22149003.403   -20215463.44949 -15456276.12046  22149002.774    22149012.586
       228.000         181.000
  20831181.355   -23526682.75549 -18311741.88547  20831181.143    20831188.877
       241.000         206.000
  23502977.055   -10207306.22349  -7942146.97745  23502976.198    23502986.799
       216.000         159.000
  23071620.748   -12097056.09349  -9402346.36345  23071620.000    23071630.720
       216.000         160.000
  23348241.455   -11542874.38449  -8949250.48046  23348241.499    23348251.313
       218.000         163.000
 00  4 21  2  9  0.0000000  0  8G21G23G 3G17G29G 9G15G31
  21285055.002    -4857762.21049  -3772232.43147  21285054.363    21285062.238
       242.000         207.000
  21576626.919   -17107868.40649 -13318301.64447  21576626.332    21576634.262
       239.000         201.000
  21584863.158   -22138349.97549 -17237480.82047  21584863.070    21584871.306
       237.000         198.000
  22161783.759   -20148302.32449 -15403942.82546  22161783.646    22161793.552
       228.000         180.000
  20820449.052   -23583080.95549 -18355688.43647  20820448.753    20820456.407
       241.000         206.000
  23499838.627   -10223798.46849  -7954997.99345  23499839.350    23499848.707
       218.000         159.000
  23054046.406   -12189409.34549  -9474309.79245  23054045.087    23054056.339
       217.000         160.000
  23336520.813   -11604466.71449  -8997244.41946  23336520.363    23336530.068
       219.000         165.000
 00  4 21  2  9 30.0000000  0  8G21G23G 3G17G29G 9G15G31
  21280951.881    -4879324.04849  -3789033.82047  21280951.224    21280959.134
       242.000         207.000
  21584158.913   -17068287.49449 -13287459.37247  21584158.408    21584166.404
       239.000         201.000
  21584172.807   -22141977.87049 -17240307.74147  21584172.858    21584180.915
       238.000         198.000
  22174627.817   -20080806.50949 -15351348.71646  22174627.295    22174637.129
       227.000         180.000
  20809808.019   -23638999.59649 -18399261.30347  20809807.560    20809815.524
       241.000         206.000
  23496795.852   -10239788.56649  -7967457.71445  23496795.197    23496805.331
       215.000         159.000
  23036476.103   -12281741.59249  -9546256.84845  23036475.600    23036486.039
       218.000         161.000
  23324885.863   -11665608.67149  -9044887.41746  23324885.658    23324895.104
       221.000         166.000
 00  4 21  2 10  0.0000000  0  8G21G23G 3G17G29G 9G15G31
  21276873.776    -4900754.45549  -3805732.79647  21276873.147    21276880.979
       242.000         207.000
  21591710.750   -17028602.41749 -13256535.93847  21591710.210    21591718.379
       238.000         201.000
  21583588.325   -22145049.51049 -17242701.21447  21583588.023    21583596.475
       238.000         198.000
  22187532.336   -20012992.80049 -15298506.89446  22187531.621    22187541.663
       228.000         180.000
  20799257.323   -23694443.39849 -18442464.16747  20799257.024    20799264.816
       241.000         207.000
  23493849.246   -10255272.50649  -7979523.03845  23493849.317    23493860.184
       214.000         160.000
  23018909.922   -12374052.32449  -9618187.13146  23018908.871    23018919.495
       220.000         164.000
  23313338.274   -11726291.61949  -9092172.74146  23313337.742    23313347.522
       221.000         167.000
 00  4 21  2 10 30.0000000  0  8G21G23G 3G17G29G 9G15G31
  21272823.299    -4922039.75549  -3822318.70347  21272822.591    21272830.487
       242.000         207.000
  21599284.321   -16988802.97649 -13225523.39247  21599283.507    21599291.633
       239.000         201.000
  21583111.877   -22147553.03649 -17244652.00947  21583111.593    21583120.258
       238.000         197.000
  22200498.345   -19944856.10249 -15245413.39146  22200498.095    22200507.893
       227.000         180.000
  20788797.366   -23749410.53949 -18485295.60847  20788796.965    20788804.860
       241.000         207.000
  23490998.828   -10270250.97449  -7991194.46345  23490998.650    23491008.360
       218.000         160.000
  23001349.660   -12466331.94949  -9690093.17846  23001348.828    23001358.926
       220.000         165.000
  23301881.285   -11786498.41949  -9139087.05146  23301880.394    23301890.820
       221.000         168.000
 00  4 21  2 11  0.0000000  0  8G21G23G 3G17G29G 9G15G31
  21268804.990    -4943156.02549  -3838772.89947  21268804.263    21268812.275
       242.000         207.000
  21606880.500   -16948884.86049 -13194418.37147  21606879.888    21606888.164
       239.000         200.000
  21582747.524   -22149467.68049 -17246143.93447  21582747.105    21582756.093
       237.000         197.000
  22213524.967   -19876400.94349 -15192071.73646  22213524.737    22213534.398
       227.000         179.000
  20778426.934   -23803907.04149 -18527760.31847  20778426.485    20778434.214
       240.000         207.000
  23488246.855   -10284713.30749  -8002463.69545  23488246.225    23488257.121
       218.000         160.000
  22983798.685   -12558562.40749  -9761960.91546  22983797.328    22983808.137
       222.000         166.000
  23290517.210   -11846216.75249  -9185620.73246  23290516.761    23290526.910
       221.000         168.000
 00  4 21  2 11 30.0000000  0  8G21G23G 3G17G29G 9G15G31
  21264821.713    -4964087.98149  -3855083.47447  21264821.041    21264829.018
       242.000         207.000
  21614497.612   -16908856.59849 -13163227.52447  21614496.925    21614505.118
       238.000         200.000
  21582498.491   -22150776.26349 -17247163.60447  21582498.217    21582506.749
       237.000         197.000
  22226612.261   -19807626.83549 -15138481.55746  22226611.817    22226622.231
       225.000         179.000
  20768142.934   -23857949.52249 -18569871.24447  20768142.554    20768150.249
       240.000         207.000
  23485595.904   -10298644.10449  -8013318.79145  23485594.951    23485604.944
       216.000         160.000
  22966259.689   -12650730.11449  -9833779.75046  22966259.020    22966268.688
       222.000         167.000
  23279246.930   -11905442.35549  -9231770.47646  23279245.913    23279256.127
       222.000         168.000
 00  4 21  2 12  0.0000000  0  8G21G23G 3G17G29G 9G15G31
  21260870.574    -4984851.40449  -3871262.73347  21260870.046    21260877.796
       242.000         207.000
  21622132.889   -16868732.91549 -13131962.33147  21622132.339    21622140.618
       238.000         200.000
  21582365.545   -22151475.08649 -17247708.13347  21582365.050    21582374.009
       238.000         197.000
  22239759.369   -19738538.45049 -15084646.47846  22239758.376    22239768.832
       226.000         179.000
  20757942.347   -23911553.47049 -18611640.46047  20757942.086    20757949.336
       241.000         207.000
  23483045.699   -10312044.91149  -8023760.88245  23483045.456    23483056.411
       217.000         160.000
  22948732.773   -12742834.07649  -9905548.91146  22948731.264    22948741.991
       222.000         167.000
  23268070.228   -11964176.06549  -9277536.92546  23268068.541    23268079.159
       221.000         167.000
 00  4 21  2 12 30.0000000  0  8G21G23G 3G17G29G 9G15G31
  21256949.892    -5005454.57049  -3887317.10947  21256949.330    21256956.971
       242.000         207.000
  21629780.783   -16828543.07149 -13100645.57547  21629780.315    21629788.236
       238.000         200.000
  21582345.792   -22151578.95449 -17247789.06247  21582345.593    21582354.257
       237.000         197.000
  22252967.566   -19669129.07749 -15030561.29746  22252967.381    22252976.614
       227.000         178.000
  20747823.748   -23964726.60949 -18653073.97947  20747823.461    20747831.177
       241.000         207.000
  23480596.992   -10324913.00949  -8033787.88245  23480596.901    23480606.453
       218.000         161.000
  22931217.174   -12834878.62449  -9977271.77146  22931216.099    22931226.261
       222.000         167.000
  23256985.795   -12022424.79149  -9322925.46346  23256984.764    23256994.839
       220.000         167.000
 00  4 21  2 13  0.0000000  0  8G21G23G 3G17G29G 9G15G31
  21253057.665    -5025908.01749  -3903254.82847  21253056.855    21253064.680
       242.000         207.000
  21637438.074   -16788303.76149 -13069290.27047  21637437.434    21637445.315
       238.000         200.000
  21582436.959   -22151099.79949 -17247415.68447  21582436.730    21582445.206
       237.000         197.000
  22266232.938   -19599419.07549 -14976241.85446  22266232.238    22266242.394
       225.000         178.000
  20737785.076   -24017479.74049 -18694180.21747  20737784.760    20737792.205
       241.000         207.000
  23478246.966   -10337261.81649  -8043410.22445  23478246.678    23478256.420
       218.000         161.000
  22913710.424   -12926876.59049 -10048958.33146  22913709.059    22913720.615
       222.000         167.000
  23245991.072   -12080201.98249  -9367946.57046  23245990.236    23246000.436
       220.000         167.000
 00  4 21  2 13 30.0000000  0  8G21G23G 3G17G29G 9G15G31
  21249189.539    -5046235.03849  -3919094.03347  21249188.933    21249196.845
       243.000         207.000
  21645105.998   -16748008.57349 -13037891.43147  21645105.495    21645113.504
       239.000         200.000
  21582636.641   -22150050.44549 -17246597.99847  21582636.212    21582644.622
       237.000         197.000
  22279554.412   -19529414.46749 -14921692.85346  22279554.026    22279564.378
       227.000         178.000
  20727828.345   -24069802.40249 -18734951.02347  20727827.993    20727835.455
       241.000         208.000
  23475991.479   -10349113.31549  -8052645.08445  23475990.470    23476001.572
       215.000         161.000
  22896210.331   -13018839.37049 -10120617.46946  22896209.724    22896219.274
       222.000         168.000
  23235087.062   -12137502.33449  -9412596.11546  23235085.825    23235096.779
       221.000         167.000
 00  4 21  2 14  0.0000000  0  8G21G23G 3G17G29G 9G15G31
  21245346.572    -5066429.84449  -3934830.21647  21245346.013    21245353.686
       243.000         207.000
  21652784.720   -16707656.79049 -13006448.48947  21652783.960    21652792.228
       239.000         200.000
  21582944.670   -22148431.67849 -17245336.61647  21582944.578    21582953.188
       237.000         197.000
  22292928.824   -19459131.45549 -14866926.92546  22292927.947    22292938.402
       226.000         177.000
  20717956.937   -24121676.71549 -18775372.47347  20717956.667    20717964.358
       241.000         208.000
  23473830.395   -10360468.62749  -8061493.30045  23473830.076    23473840.403
       217.000         161.000
  22878716.382   -13110770.11449 -10192251.65646  22878715.515    22878726.157
       221.000         168.000
  23224275.561   -12194316.81449  -9456867.06346  23224274.979    23224284.442
       220.000         166.000
 00  4 21  2 14 30.0000000  0  8G21G23G 3G17G29G 9G15G31
  21241534.744    -5086460.90749  -3950438.80547  21241534.182    21241542.014
       243.000         207.000
  21660476.892   -16667233.98149 -12974950.20647  21660476.244    21660484.631
       238.000         200.000
  21583359.744   -22146250.42349 -17243636.93147  21583359.521    21583368.102
       237.000         197.000
  22306356.424   -19388569.00949 -14811943.23946  22306356.581    22306366.063
       226.000         177.000
  20708173.951   -24173086.20449 -18815431.71947  20708173.510    20708181.261
       241.000         208.000
  23471766.152   -10371315.75449  -8069945.51445  23471765.975    23471776.132
       218.000         161.000
  22861229.772   -13202661.92549 -10263855.50346  22861228.591    22861239.283
       222.000         169.000
  23213557.695   -12250639.24849  -9500754.59646  23213557.189    23213567.361
       220.000         166.000
 00  4 21  2 15  0.0000000  0  8G21G23G 3G17G29G 9G15G31
  21237759.235    -5106301.12749  -3965898.68947  21237758.626    21237766.482
       242.000         207.000
  21668188.206   -16626710.79749 -12943373.70947  21668187.626    21668195.439
       238.000         199.000
  21583883.408   -22143498.35249 -17241492.45947  21583883.199    21583891.783
       237.000         197.000
  22319839.013   -19317717.92149 -14756734.64846  22319838.397    22319848.083
       228.000         177.000
  20698486.752   -24223992.40949 -18855098.79547  20698486.316    20698493.977
       241.000         208.000
  23469801.879   -10381638.13949  -8077988.86745  23469801.405    23469811.804
       216.000         162.000
  22843754.517   -13294494.30749 -10335413.03346  22843753.059    22843764.015
       222.000         169.000
  23202938.237   -12306444.74649  -9544239.31546  23202936.921    23202946.894
       220.000         167.000
 00  4 21  2 15 30.0000000  0  8G21G23G 3G17G29G 9G15G31
  21234015.719    -5125973.31749  -3981227.64347  21234015.087    21234022.888
       242.000         207.000
  21675913.336   -16586115.10449 -12911740.71447  21675912.948    21675920.510
       238.000         199.000
  21584508.349   -22140214.27349 -17238933.43547  21584507.726    21584516.647
       237.000         197.000
                   -887154.46349   -703334.24743
       226.000          74.000
  20688892.310   -24274411.15349 -18894386.03547  20688892.088    20688899.653
       241.000         208.000
  23467936.647   -10391438.81449  -8085625.65745  23467937.535    23467946.434
       218.000         161.000
  22826286.152   -13386290.60249 -10406942.44846  22826285.052    22826295.359
       222.000         170.000
  23192411.376   -12361763.36949  -9587344.65046  23192410.608    23192420.533
       221.000         167.000
 00  4 21  2 16  0.0000000  0  7G21G23G 3G29G 9G15G31
  21230310.027    -5145446.71749  -3996401.69547  21230309.533    21230317.385
       243.000         207.000
  21683654.572   -16545434.67649 -12880041.68347  21683653.949    21683661.955
       238.000         199.000
  21585236.855   -22136385.97749 -17235950.34447  21585236.492    21585245.044
       237.000         197.000
  20679391.546   -24324337.68049 -18933289.72747  20679391.245    20679399.103
       241.000         208.000
  23466177.619   -10400683.32249  -8092829.08745  23466177.154    23466187.413
       219.000         162.000
  22808829.624   -13478024.70949 -10478423.40446  22808827.717    22808838.476
       222.000         170.000
  23181979.426   -12416583.27549  -9630061.37346  23181979.330    23181989.077
       220.000         168.000
 00  4 21  2 16 30.0000000  0  8G21G23G 3G17G29G 9G15G31
  21226642.092    -5164721.74749  -4011421.17147  21226641.392    21226649.213
       243.000         207.000
  21691417.448   -16504640.41149 -12848253.95347  21691416.805    21691425.156
       239.000         199.000
  21586071.912   -22131997.56849 -17232530.80447  21586071.773    21586080.476
       237.000         197.000
                   -824220.26349   -653773.74445                  22360642.135
       226.000         162.000
  20669985.689   -24373765.32249 -18971804.67947  20669985.287    20669992.940
       241.000         209.000
  23464525.824   -10409363.75749  -8099592.98445  23464524.877    23464535.020
       219.000         162.000
  22791389.177   -13569674.26349 -10549838.49046  22791387.890    22791398.488
       222.000         169.000
  23171645.057   -12470890.50049  -9672378.60546  23171644.704    23171654.334
       220.000         168.000
 00  4 21  2 17  0.0000000  0  8G21G23G 3G17G29G 9G15G31
  21223013.306    -5183791.21749  -4026280.47247  21223012.794    21223020.556
       243.000         207.000
  21699209.384   -16463693.67249 -12816347.40647  21699208.860    21699216.596
       238.000         199.000
  21587024.161   -22126993.36149 -17228631.42147  21587023.974    21587032.667
       237.000         197.000
  22374371.882     -752018.31449   -597512.53646  22374371.695    22374381.787
       227.000         173.000
  20660680.687   -24422663.10049 -19009906.75047  20660680.209    20660687.944
       242.000         209.000
  23462987.291   -10417449.80049  -8105893.71545  23462986.912    23462996.259
       217.000         162.000
  22773972.102   -13661200.83249 -10621157.74346  22773971.478    22773981.325
       222.000         168.000
  23161413.902   -12524655.25849  -9714273.12646  23161413.507    23161422.616
       221.000         169.000
 00  4 21  2 17 30.0000000  0  7G21G23G 3G29G 9G15G31
  21219413.186    -5202709.80749  -4041022.20147  21219412.736    21219420.370
       242.000         207.000
  21707025.699   -16422618.78349 -12784341.00647  21707024.959    21707033.227
       238.000         199.000
  21588093.726   -22121372.96649 -17224251.88947  21588093.364    21588101.928
       237.000         197.000
  20651466.850   -24471081.60249 -19047635.36147  20651466.477    20651474.200
       241.000         209.000
  23461553.119   -10424986.38749  -8111766.29345  23461552.165    23461561.928
       216.000         162.000
  22756573.050   -13752632.82849 -10692403.31246  22756572.003    22756581.073
       222.000         168.000
  23151280.098   -12577908.39449  -9755768.98946  23151279.413    23151289.673
       221.000         168.000
 00  4 21  2 18  0.0000000  0  8G21G23G 3G17G29G 9G15G31
  21215837.673    -5221499.05949  -4055663.14847  21215837.112    21215844.991
       242.000         207.000
  21714865.617   -16381419.68249 -12752237.81447  21714865.372    21714873.025
       238.000         198.000
  21589280.056   -22115138.68949 -17219394.00847  21589279.613    21589288.263
       237.000         197.000
                   -767001.88749   -609314.50846                  22402078.234
       225.000         165.000
  20642340.828   -24519038.96049 -19085004.64147  20642340.495    20642348.094
       241.000         209.000
  23460215.682   -10432013.33449  -8117241.76545  23460215.661    23460224.406
       219.000         162.000
  22739190.351   -13843978.76849 -10763581.83146  22739189.707    22739199.432
       221.000         167.000
  23141243.217   -12630652.01649  -9796867.82046  23141242.511    23141252.212
       221.000         168.000
 00  4 21  2 18 30.0000000  0  8G21G23G 3G17G29G 9G15G31
  21212284.611    -5240170.41949  -4070212.23447  21212283.971    21212291.633
       243.000         208.000
  21722726.340   -16340111.14149 -12720049.35147  21722725.870    21722733.863
       238.000         198.000
  21590583.618   -22108288.39149 -17214056.11747  21590583.260    21590591.923
       237.000         197.000
  22416020.155     -693686.61149   -552185.77346  22416020.422    22416030.212
       225.000         172.000
  20633304.612   -24566524.27849 -19122006.09547  20633304.181    20633311.632
       241.000         209.000
  23458974.554   -10438535.15149  -8122323.62645  23458973.890    23458984.567
       217.000         162.000
  22721823.302   -13935242.56249 -10834696.34746  22721822.430    22721832.329
       220.000         167.000
  23131301.201   -12682897.25649  -9837578.29946  23131300.224    23131310.846
       222.000         168.000
 00  4 21  2 19  0.0000000  0  8G21G23G 3G17G29G 9G15G31
  21208755.265    -5258717.01249  -4084664.10147  21208754.665    21208762.704
       243.000         208.000
  21730603.818   -16298714.75749 -12687792.43047  21730603.216    21730611.180
       237.000         198.000
  21591999.876   -22100845.84849 -17208256.73847  21591999.630    21592008.220
       237.000         197.000
  22430034.610     -620041.87349   -494800.32246  22430034.220    22430044.921
       225.000         174.000
  20624356.733   -24613545.29049 -19158645.75747  20624356.515    20624363.881
       242.000         209.000
  23457829.511   -10444551.73249  -8127011.79945  23457828.773    23457839.281
       218.000         162.000
  22704470.003   -14026434.05249 -10905754.51646  22704469.303    22704479.132
       221.000         167.000
  23121453.317   -12734647.94249  -9877903.42346  23121453.001    23121462.068
       221.000         168.000
 00  4 21  2 19 30.0000000  0  8G21G23G 3G17G29G 9G15G31
  21205253.170    -5277120.68549  -4099004.60347  21205252.549    21205260.453
       243.000         208.000
  21738497.120   -16257235.18149 -12655470.68647  21738496.632    21738504.661
       238.000         198.000
  21593524.554   -22092833.64049 -17202013.46347  21593524.284    21593533.153
       237.000         197.000
  22444109.795     -546081.78949   -437169.13046  22444109.147    22444119.034
       226.000         174.000
  20615497.276   -24660101.63149 -19194923.33847  20615496.958    20615504.320
       241.000         210.000
  23456782.833   -10450052.13749  -8131297.75945  23456781.628    23456792.207
       217.000         162.000
  22687131.949   -14117545.60749 -10976750.40946  22687131.136    22687141.783
       222.000         168.000
  23111702.580   -12785888.02749  -9917830.67746  23111701.112    23111711.407
       221.000         168.000
 00  4 21  2 20  0.0000000  0  8G21G23G 3G17G29G 9G15G31
  21201779.108    -5295377.02249  -4113230.29747  21201778.374    21201786.071
       243.000         208.000
  21746401.433   -16215697.69949 -12623103.82947  21746400.750    21746408.934
       237.000         198.000
  21595147.733   -22084303.73749 -17195366.78947  21595147.121    21595155.881
       237.000         197.000
  22458235.809     -471848.05849   -379324.70846  22458234.348    22458244.239
       225.000         174.000
  20606725.120   -24706199.27049 -19230843.48847  20606724.611    20606732.222
       241.000         210.000
  23455835.872   -10455027.93849  -8135174.94445  23455835.873    23455845.872
       216.000         162.000
  22669806.195   -14208592.69049 -11047696.06646  22669805.320    22669815.268
       221.000         168.000
  23102044.836   -12836639.53049  -9957377.22446  23102044.228    23102054.088
       222.000         168.000
 00  4 21  2 20 30.0000000  0  8G21G23G 3G17G29G 9G15G31
  21198331.990    -5313491.57949  -4127345.51647  21198331.421    21198339.391
       243.000         208.000
  21754316.297   -16174104.71149 -12590693.71047  21754315.811    21754324.110
       237.000         198.000
  21596868.534   -22075260.72049 -17188320.28447  21596868.289    21596876.794
       237.000         197.000
  22472412.104     -397350.51949   -321274.73346  22472411.833    22472421.512
       225.000         173.000
  20598039.978   -24751839.63749 -19266407.32247  20598039.804    20598047.174
       241.000         210.000
  23454994.431   -10459450.16349  -8138620.76045  23454994.055    23455003.723
       218.000         162.000
  22652492.640   -14299575.18149 -11118591.37246  22652491.856    22652500.845
       222.000         169.000
  23092478.486   -12886910.84849  -9996549.60646  23092477.550    23092488.085
       222.000         168.000
 00  4 21  2 21  0.0000000  0  8G21G23G 3G17G29G 9G15G31
  21194913.952    -5331453.38149  -4141341.71047  21194913.307    21194921.063
       243.000         208.000
  21762248.511   -16132420.74749 -12558212.70447  21762247.749    21762256.103
       237.000         197.000
  21598690.513   -22065686.19049 -17180859.61147  21598690.308    21598699.159
       238.000         197.000
  22486639.258     -322586.06049   -263016.76746  22486638.574    22486648.934
       225.000         173.000
  20589444.353   -24797009.55449 -19301604.57847  20589443.885    20589451.297
       242.000         210.000
  23454260.645   -10463305.52949  -8141624.87645  23454260.373    23454270.017
       217.000         162.000
  22635194.328   -14390477.96349 -11189424.59146  22635193.412    22635203.114
       223.000         169.000
  23083008.456   -12936675.70949 -10035327.33646  23083007.377    23083016.723
       221.000         167.000
 00  4 21  2 21 30.0000000  0  8G21G23G 3G17G29G 9G15G31
  21191528.100    -5349245.90349  -4155205.99547  21191527.541    21191535.087
       243.000         208.000
  21770203.702   -16090615.88749 -12525637.49747  21770203.402    21770211.204
       238.000         197.000
  21600621.202   -22055540.40149 -17172953.80347  21600620.881    21600629.215
       237.000         197.000
  22500921.854     -247530.34249   -204531.84746  22500921.436    22500930.548
       225.000         172.000
  20580943.669   -24841680.68449 -19336413.16747  20580943.120    20580950.523
       242.000         210.000
  23453641.671   -10466558.52049  -8144159.60045  23453641.182    23453649.960
       218.000         162.000
  22617916.414   -14481273.53549 -11260174.25946  22617915.683    22617925.437
       224.000         169.000
  23073637.611   -12985919.13049 -10073698.77146  23073636.254    23073646.774
       221.000         167.000
 00  4 21  2 22  0.0000000  0  8G21G23G 3G17G29G 9G15G31
  21188173.563    -5366874.07949  -4168942.21747  21188173.073    21188180.732
       242.000         208.000
  21778182.735   -16048685.86649 -12492964.75847  21778182.168    21778190.258
       238.000         197.000
  21602664.001   -22044805.38549 -17164588.85747  21602663.757    21602672.151
       237.000         197.000
  22515261.588     -172174.57449   -145813.12046  22515260.420    22515271.677
       223.000         172.000
  20572538.736   -24885848.48749 -19370829.55547  20572538.378    20572545.633
       242.000         210.000
  23453138.590   -10469202.51249  -8146219.76945  23453138.250    23453148.285
       218.000         162.000
  22600658.326   -14571964.78649 -11330842.63846  22600657.171    22600667.280
       224.000         169.000
  23064364.394   -13034649.89049 -10111670.71546  23064363.523    23064373.854
       219.000         166.000
 00  4 21  2 22 30.0000000  0  8G21G23G 3G17G29G 9G15G31
  21184848.235    -5384348.84449  -4182558.90347  21184847.535    21184855.514
       243.000         208.000
  21786184.898   -16006634.38149 -12460197.37547  21786184.378    21786192.323
       238.000         197.000
  21604820.675   -22033472.16549 -17155757.78147  21604820.494    21604828.987
       237.000         196.000
  22529659.950      -96510.93049    -86854.48546  22529659.182    22529669.561
       223.000         172.000
  20564229.316   -24929514.57949 -19404855.00147  20564228.911    20564236.308
       242.000         210.000
  23452746.634   -10471261.82549  -8147824.35445  23452745.702    23452755.401
       220.000         162.000
  22583418.381   -14662561.00049 -11401436.95746  22583417.036    22583426.899
       224.000         170.000
  23055189.421   -13082864.28249 -10149240.30046  23055188.525    23055197.624
       219.000         166.000
 00  4 21  2 23  0.0000000  0  8G21G23G 3G17G29G 9G15G31
  21181553.739    -5401661.28949  -4196049.09847  21181553.356    21181560.831
       243.000         208.000
  21794206.914   -15964478.51849 -12427348.65047  21794206.285    21794214.140
       238.000         197.000
  21607089.639   -22021548.54049 -17146466.65347  21607089.293    21607097.912
       237.000         196.000
  22544118.826      -20529.12949    -27647.93846  22544117.842    22544128.412
       224.000         172.000
  20556015.748   -24972676.75749 -19438487.78047  20556015.407    20556022.718
       243.000         211.000
  23452461.665   -10472759.18049  -8148991.03646  23452460.479    23452470.526
       218.000         163.000
  22566196.332   -14753062.90649 -11471957.77846  22566194.798    22566206.650
       225.000         170.000
  23046114.584   -13130552.46149 -10186399.84346  23046113.448    23046123.311
       219.000         166.000
 00  4 21  2 23 30.0000000  0  8G21G23G 3G17G29G 9G15G31
  21178288.608    -5418819.51849  -4209419.12347  21178287.956    21178295.719
       243.000         208.000
  21802243.497   -15922245.77849 -12394440.02747  21802242.941    21802250.877
       238.000         197.000
  21609468.207   -22009049.22249 -17136726.93047  21609467.937    21609476.431
       237.000         196.000
  22558641.090       55785.72449     31818.12146  22558640.838    22558650.828
       224.000         171.000
  20547895.314   -25015349.87349 -19471739.47847  20547894.958    20547902.077
       242.000         211.000
  23452283.210   -10473695.97049  -8149720.94746  23452282.523    23452291.835
       217.000         163.000
  22548991.904   -14843472.26249 -11542406.48346  22548990.789    22549000.466
       226.000         171.000
  23037140.687   -13177710.25249 -10223146.09946  23037139.910    23037150.043
       221.000         166.000
 00  4 21  2 24  0.0000000  0  8G21G23G 3G17G29G 9G15G31
  21175050.063    -5435838.10549  -4222680.34047  21175049.388    21175057.196
       242.000         208.000
  21810290.566   -15879958.31549 -12361488.76247  21810290.210    21810297.593
       237.000         197.000
  21611953.682   -21995988.00549 -17126549.36347  21611953.486    21611961.785
       237.000         196.000
  22573225.045      132424.88149     91536.90746  22573223.852    22573234.863
       222.000         171.000
  20539867.191   -25057537.62549 -19504612.97047  20539866.846    20539873.874
       242.000         211.000
  23452202.431   -10474119.33049  -8150050.77545  23452202.088    23452211.811
       216.000         162.000
  22531801.653   -14933807.10649 -11612797.11446  22531800.029    22531809.512
       227.000         172.000
  23028267.179   -13224340.24849 -10259481.08446  23028266.383    23028276.135
       220.000         166.000
 00  4 21  2 24 30.0000000  0  8G21G23G 3G17G29G 9G15G31
  21171839.064    -5452711.91549  -4235828.73947  21171838.491    21171846.196
       243.000         208.000
  21818345.862   -15837627.48149 -12328503.70047  21818345.304    21818353.211
       237.000         197.000
  21614544.186   -21982374.82249 -17115941.69347  21614543.663    21614552.271
       237.000         196.000
  22587871.456      209392.11049    151511.31046  22587870.752    22587880.817
       224.000         171.000
  20531932.041   -25099236.64849 -19537105.63747  20531931.520    20531938.698
       242.000         211.000
  23452216.423   -10474045.91749  -8149993.50446  23452216.149    23452225.933
       219.000         163.000
  22514626.441   -15024062.99749 -11683126.23346  22514625.489    22514634.597
       227.000         173.000
  23019495.309   -13270436.46049 -10295400.12946  23019494.875    23019504.634
       220.000         166.000
 00  4 21  2 25  0.0000000  0  8G21G23G 3G17G29G 9G15G31
  21168653.916    -5469449.84049  -4248871.26047  21168653.466    21168660.935
       244.000         208.000
  21826408.894   -15795255.91949 -12295486.90347  21826408.102    21826416.414
       237.000         197.000
  21617239.549   -21968210.45549 -17104904.52947  21617239.157    21617247.999
       237.000         196.000
  22602579.690      286684.38049    211739.00646  22602579.230    22602589.686
       225.000         171.000
  20524086.801   -25140463.30249 -19569230.22347  20524086.551    20524093.543
       242.000         211.000
  23452325.921   -10473470.36449  -8149544.93546  23452324.883    23452335.867
       217.000         163.000
  22497467.025   -15114235.93749 -11753390.71946  22497466.118    22497475.642
       227.000         174.000
  23010824.606   -13316000.92049 -10330904.83746  23010824.578    23010833.838
       221.000         166.000
 00  4 21  2 25 30.0000000  0  8G21G23G 3G17G29G 9G15G31
  21165493.422    -5486058.22249  -4261812.83547  21165492.724    21165500.541
       243.000         208.000
  21834483.376   -15752824.09249 -12262423.14147  21834482.592    21834490.724
       237.000         197.000
  21620040.607   -21953490.97449 -17093434.81247  21620040.387    21620048.965
       237.000         196.000
  22617347.182      364288.02849    272209.32146  22617346.977    22617356.873
       224.000         171.000
  20516329.756   -25181226.47949 -19600993.65847  20516329.271    20516336.606
       242.000         211.000
  23452531.002   -10472392.32249  -8148704.83346  23452530.901    23452540.464
       218.000         163.000
  22480321.864   -15204333.68549 -11823596.60546  22480320.988    22480331.103
       228.000         174.000
  23002251.308   -13361053.76449 -10366010.87546  23002250.513    23002260.409
       221.000         167.000
 00  4 21  2 26  0.0000000  0  8G21G23G 3G17G29G 9G15G31
  21162362.886    -5502509.27549  -4274631.81747  21162362.202    21162370.027
       244.000         208.000
  21842575.136   -15710301.79749 -12229288.87847  21842574.290    21842582.326
       237.000         196.000
  21622948.394   -21938210.27349 -17081527.78147  21622948.314    21622957.023
       237.000         196.000
  22632173.185      442198.90849    332919.05046  22632172.403    22632182.385
       224.000         170.000
  20508665.561   -25221501.67849 -19632376.85247  20508665.286    20508672.245
       242.000         211.000
  23452835.861   -10470790.22149  -8147456.37245  23452835.370    23452845.030
       218.000         162.000
  22463193.905   -15294341.12349 -11893732.13446  22463192.735    22463202.666
       227.000         175.000
  22993773.682   -13405603.87849 -10400725.17746  22993773.282    22993782.536
       220.000         167.000
 00  4 21  2 26 30.0000000  0  8G21G23G 3G17G29G 9G15G31
  21159266.948    -5518778.38449  -4287309.01847  21159266.425    21159274.082
       243.000         208.000
  21850688.316   -15667666.70049 -12196066.71847  21850687.754    21850695.853
       237.000         196.000
  21625963.886   -21922363.91549 -17069179.98647  21625963.627    21625972.244
       237.000         196.000
  22647058.528      520421.85449    393871.94146  22647058.268    22647068.436
       223.000         170.000
  20501095.254   -25261283.60249 -19663375.67347  20501094.957    20501102.028
       242.000         211.000
  23453252.805   -10468598.48649  -8145748.47245  23453251.962    23453262.030
       219.000         162.000
  22446088.952   -15384227.68649 -11963773.47146  22446087.717    22446097.734
       227.000         175.000
  22985395.545   -13449631.10649 -10435032.03746  22985394.832    22985403.706
       222.000         168.000
 00  4 21  2 27  0.0000000  0  8G21G23G 3G17G29G 9G15G31
  21156205.504    -5534866.42349  -4299845.12847  21156205.004    21156212.766
       244.000         208.000
  21858824.388   -15624911.19449 -12162750.73547  21858823.701    21858831.648
       237.000         196.000
  21629087.882   -21905947.11449 -17056387.68147  21629087.464    21629096.360
       236.000         196.000
  22662003.242      598956.38249    455067.62646  22662002.232    22662013.179
       222.000         170.000
  20493619.050   -25300570.97749 -19693989.14147  20493618.643    20493625.835
       242.000         211.000
  23453785.916   -10465796.50649  -8143565.04746  23453785.322    23453795.584
       218.000         163.000
  22429008.181   -15473986.96449 -12033715.63246  22429006.622    22429016.697
       227.000         176.000
  22977117.989   -13493129.64449 -10468926.93346  22977117.263    22977127.039
       222.000         168.000
 00  4 21  2 27 30.0000000  0  8G21G23G 3G17G29G 9G15G31
  21153179.849    -5550766.17649  -4312234.51747  21153179.199    21153186.953
       243.000         208.000
  21866980.989   -15582047.91449 -12129350.76647  21866980.245    21866988.145
       236.000         196.000
  21632320.194   -21888961.29649 -17043151.99047  21632319.977    21632328.665
       237.000         195.000
  22677006.401      677798.44349    516502.91146  22677006.095    22677015.194
       222.000         170.000
  20486240.223   -25339346.62349 -19724203.85547  20486239.821    20486246.876
       242.000         211.000
  23454436.453   -10462378.01349  -8140901.23545  23454435.842    23454445.013
       218.000         162.000
  22411952.631   -15563613.90049 -12103554.68646  22411951.579    22411961.346
       227.000         176.000
  22968941.012   -13536100.00849 -10502410.27146  22968940.723    22968949.756
       223.000         169.000
 00  4 21  2 28  0.0000000  0  8G21G23G 3G17G29G 9G15G31
  21150188.946    -5566483.29149  -4324481.59347  21150188.199    21150195.969
       243.000         208.000
  21875153.105   -15539103.14049 -12095887.30247  21875152.647    21875160.231
       237.000         196.000
  21635659.939   -21871410.93649 -17029476.39547  21635659.515    21635667.918
       236.000         195.000
  22692067.626      756945.54549    578175.92146  22692066.829    22692078.393
       221.000         169.000
  20478958.486   -25377612.32749 -19754021.21347  20478958.162    20478965.089
       242.000         211.000
  23455204.986   -10458339.76949  -8137754.48845  23455204.660    23455214.094
       219.000         162.000
  22394924.274   -15653097.99749 -12173282.43846  22394923.907    22394932.668
       227.000         177.000
  22960869.395   -13578516.48149 -10535462.00346  22960869.141    22960878.079
       223.000         169.000
 00  4 21  2 28 30.0000000  0  8G21G23G 3G17G29G 9G15G31
  21147227.157    -5582047.53249  -4336609.55047  21147226.610    21147234.446
       243.000         208.000
  21883335.978   -15496101.72649 -12062379.69447  21883335.452    21883343.449
       237.000         195.000
  21639106.535   -21853298.88549 -17015363.11947  21639106.438    21639114.614
       236.000         195.000
  22707186.036      836393.26449    640083.17946  22707184.943    22707196.165
       221.000         169.000
  20471769.301   -25415391.37349 -19783459.35847  20471769.019    20471775.933
       242.000         211.000
  23456085.182   -10453714.56249  -8134150.37345  23456084.491    23456094.810
       218.000         162.000
  22377919.901   -15742456.12749 -12242912.05046  22377919.379    22377927.732
       226.000         177.000
  22952903.846   -13620375.36449 -10568079.25446  22952903.206    22952912.511
       222.000         170.000
 00  4 21  2 29  0.0000000  0  8G21G23G 3G17G29G 9G15G31
  21144289.203    -5597486.50949  -4348639.89747  21144288.524    21144296.218
       243.000         208.000
  21891529.407   -15453045.02349 -12028829.00847  21891528.840    21891536.712
       236.000         195.000
  21642658.690   -21834632.04549 -17000817.53947  21642658.469    21642667.248
       237.000         195.000
  22722362.205      916144.42949    702226.88246  22722361.786    22722372.202
       221.000         169.000
  20464671.039   -25452692.53949 -19812525.12747  20464670.713    20464677.821
       242.000         211.000
  23457066.729   -10448555.76349  -8130130.47845  23457066.011    23457075.963
       216.000         162.000
  22360935.396   -15831709.82649 -12312460.28846  22360934.097    22360943.951
       226.000         177.000
  22945040.386   -13661697.83649 -10600278.53146  22945040.429    22945049.506
       223.000         170.000
 00  4 21  2 29 30.0000000  0  8G21G23G 3G17G29G 9G15G31
  21141374.325    -5612804.22649  -4360575.75147  21141373.672    21141381.490
       244.000         208.000
  21899733.959   -15409929.81149 -11995232.72147  21899733.320    21899741.243
       236.000         195.000
  21646315.433   -21815415.81449 -16985843.86547  21646315.188    21646323.261
       236.000         195.000
  22737595.487      996195.37249    764604.19746  22737594.181    22737605.466
       220.000         169.000
  20457661.275   -25489528.84049 -19841228.66847  20457660.966    20457667.996
       242.000         211.000
  23458148.137   -10442871.45249  -8125701.08645  23458147.392    23458156.779
       217.000         162.000
  22343969.768   -15920864.22949 -12381931.16446  22343968.812    22343978.517
       225.000         177.000
  22937278.702   -13702485.78349 -10632061.30046  22937278.532    22937287.301
       224.000         171.000
 00  4 21  2 30  0.0000000  0  8G21G23G 3G17G29G 9G15G31
  21138480.217    -5628012.80949  -4372426.56347  21138479.385    21138487.162
       243.000         209.000
  21907952.276   -15366742.11849 -11961579.96447  21907951.891    21907959.726
       235.000         195.000
  21650074.067   -21795664.12149 -16970452.95247  21650073.686    21650082.467
       236.000         195.000
  22752886.183     1076548.36249    827216.86746  22752885.035    22752896.334
       220.000         169.000
  20450737.960   -25525910.68449 -19869578.08847  20450737.649    20450744.552
       241.000         211.000
  23459327.904   -10436671.73749  -8120870.09445  23459327.825    23459337.008
       218.000         161.000
  22327021.771   -16009926.12049 -12451329.96446  22327019.656    22327030.097
       225.000         177.000
  22929618.551   -13742739.98749 -10663428.15846  22929618.236    22929626.411
       224.000         171.000
 00  4 21  2 30 30.0000000  0  8G21G23G 3G17G29G 9G15G31
  21135606.877    -5643112.10749  -4384192.21747  21135606.294    21135613.927
       244.000         209.000
  21916187.058   -15323467.92549 -11927859.79847  21916186.410    21916194.321
       236.000         195.000
  21653934.499   -21775377.48149 -16954645.19847  21653934.023    21653942.765
       236.000         195.000
  22768235.964     1157211.93149    890071.53246  22768235.159    22768246.617
       221.000         168.000
  20443902.024   -25561833.47849 -19897569.80147  20443901.571    20443908.739
       242.000         212.000
  23460605.729   -10429956.60949  -8115637.48045  23460604.911    23460615.546
       217.000         161.000
  22310090.598   -16098899.46049 -12520659.76546  22310089.536    22310099.229
       225.000         177.000
  22922057.065   -13782475.71549 -10694391.01646  22922055.881    22922065.296
       223.000         171.000
 00  4 21  2 31  0.0000000  0  8G21G23G 3G17G29G 9G15G31
  21132754.872    -5658099.33449  -4395870.54347  21132754.399    21132762.074
       244.000         209.000
  21924437.881   -15280109.59449 -11894074.07447  21924437.298    21924445.404
       236.000         195.000
  21657896.102   -21754559.12049 -16938423.11947  21657895.871    21657904.764
       236.000         195.000
  22783644.109     1238181.94649    953164.99846  22783644.551    22783653.701
       221.000         168.000
  20437154.707   -25597290.53949 -19925198.60947  20437154.292    20437161.348
       242.000         212.000
  23461984.394   -10422711.07549  -8109991.57045  23461984.586    23461993.705
       217.000         161.000
  22293178.076   -16187774.96049 -12589913.34146  22293176.355    22293186.357
       225.000         177.000
  22914595.282   -13821687.14849 -10724945.32946  22914594.077    22914604.390
       223.000         171.000
 00  4 21  2 31 30.0000000  0  8G21G23G 3G17G29G 9G15G31
  21129925.199    -5672969.35149  -4407457.53247  21129924.867    21129932.260
       244.000         209.000
  21932701.369   -15236684.74749 -11860236.52047  21932700.807    21932708.536
       236.000         194.000
  21661957.731   -21733215.12849 -16921791.45547  21661957.129    21661966.012
       236.000         195.000
  22799108.303     1319446.54049   1016487.99946  22799107.756    22799118.173
       221.000         168.000
  20430495.553   -25632284.39449 -19952466.47747  20430495.003    20430502.229
       242.000         212.000
  23463466.844   -10414919.70049  -8103920.31545  23463466.790    23463476.112
       215.000         161.000
  22276285.288   -16276546.69549 -12659086.07246  22276284.579    22276293.814
       225.000         177.000
  22907234.572   -13860367.62549 -10755085.92546  22907233.542    22907243.203
       223.000         171.000
 00  4 21  2 32  0.0000000  0  8G21G23G 3G17G29G 9G15G31
  21127118.227    -5687719.82549  -4418951.37247  21127117.701    21127125.455
       244.000         209.000
  21940976.040   -15193200.94849 -11826353.02947  21940975.409    21940983.473
       236.000         194.000
  21666119.731   -21711343.77349 -16904748.86047  21666119.298    21666127.942
       236.000         195.000
  22814626.531     1400995.03949   1080032.22246  22814625.733    22814636.675
       220.000         168.000
  20423928.661   -25666793.23049 -19979356.40747  20423928.528    20423935.466
       242.000         212.000
  23465053.301   -10406582.18149  -8097423.50645  23465052.872    23465062.458
       217.000         161.000
  22259413.702   -16365207.27649 -12728172.18946  22259413.039    22259422.738
       226.000         177.000
  22899973.435   -13898524.97449 -10784818.87846  22899973.198    22899982.196
       224.000         172.000
 00  4 21  2 32 30.0000000  0  8G21G23G 3G17G29G 9G15G31
  21124336.017    -5702340.50449  -4430344.07447  21124335.327    21124343.181
       244.000         209.000
  21949261.218   -15149662.03449 -11792426.58847  21949260.683    21949268.740
       236.000         194.000
  21670384.359   -21688932.94249 -16887285.89847  21670384.115    21670392.798
       236.000         195.000
  22830198.522     1482826.25149   1143796.74546  22830197.763    22830208.487
       218.000         168.000
  20417456.393   -25700804.84749 -20005858.89547  20417456.219    20417463.109
       242.000         212.000
  23466745.333   -10397690.05449  -8090494.52345  23466745.260    23466754.790
       215.000         161.000
  22242566.139   -16453741.52849 -12797159.87546  22242565.542    22242574.964
       226.000         178.000
  22892813.363   -13936151.31749 -10814138.07046  22892812.805    22892822.025
       224.000         172.000
 00  4 21  2 33  0.0000000  0  8G21G23G 3G17G29G 9G15G31
  21121580.751    -5716819.24449  -4441626.17947  21121580.204    21121587.740
       244.000         209.000
  21957557.917   -15106062.50849 -11758452.92047  21957557.559    21957565.272
       236.000         194.000
  21674752.129   -21665980.33849 -16869400.76647  21674752.061    21674760.351
       236.000         195.000
  22845822.969     1564932.98049   1207775.95246  22845822.976    22845833.663
       222.000         168.000
  20411080.027   -25734312.44349 -20031968.63847  20411079.574    20411086.524
       242.000         212.000
  23468544.458   -10388235.78249  -8083127.51945  23468544.255    23468553.587
       216.000         161.000
  22225744.568   -16542139.21249 -12866041.15646  22225743.168    22225752.674
       227.000         178.000
  22885754.770   -13973244.31549 -10843041.66446  22885753.562    22885763.608
       223.000         172.000
 00  4 21  2 33 30.0000000  0  8G21G23G 3G17G29G 9G15G31
  21118854.475    -5731145.93649  -4452789.80447  21118853.952    21118861.533
       244.000         209.000
  21965869.728   -15062383.57249 -11724417.37247  21965869.275    21965877.106
       236.000         194.000
  21679225.001   -21642475.44949 -16851085.28647  21679224.725    21679233.680
       236.000         195.000
  22861501.580     1647324.28549   1271976.90146  22861501.372    22861511.634
       221.000         167.000
  20404802.874   -25767298.70849 -20057672.15347  20404802.339    20404809.434
       242.000         212.000
  23470452.459   -10378209.34249  -8075314.65345  23470452.374    23470461.552
       217.000         161.000
  22208950.694   -16630391.35149 -12934809.01146  22208949.724    22208959.219
       227.000         178.000
  22878798.049   -14009801.91049 -10871528.06746  22878797.208    22878806.985
       224.000         172.000
 00  4 21  2 34  0.0000000  0  8G21G23G 3G17G29G 9G15G31
  21116158.852    -5745311.32349  -4463827.73347  21116158.218    21116165.805
       243.000         209.000
  21974199.786   -15018608.78949 -11690307.14647  21974199.248    21974207.278
       235.000         194.000
  21683804.681   -21618408.98849 -16832332.22047  21683804.295    21683813.055
       236.000         195.000
  22877236.248     1730010.26249   1336407.48446  22877236.069    22877245.804
       219.000         166.000
  20398625.972   -25799758.29849 -20082965.26947  20398625.745    20398632.540
       242.000         212.000
  23472470.257   -10367605.12449  -8067051.57945  23472470.966    23472479.693
       217.000         161.000
  22192186.254   -16718489.05349 -13003456.53246  22192185.210    22192195.102
       227.000         179.000
  22871946.087   -14045809.24749 -10899585.70346  22871945.512    22871954.234
       224.000         172.000
 00  4 21  2 34 30.0000000  0  8G21G23G 3G17G29G 9G15G31
  21113493.701    -5759316.72149  -4474740.99347  21113493.153    21113500.646
       244.000         209.000
  21982549.338   -14974731.35649 -11656116.92447  21982548.678    21982556.738
       235.000         193.000
  21688492.286   -21593775.33649 -16813137.17847  21688491.939    21688500.707
       236.000         194.000
  22893028.796     1813000.67849   1401075.28646  22893028.416    22893039.370
       221.000         165.000
  20392544.962   -25831714.00649 -20107865.74947  20392544.605    20392551.618
       242.000         212.000
  23474598.643   -10356420.68949  -8058336.38445  23474597.934    23474608.106
       217.000         161.000
  22175450.530   -16806435.66549 -13071986.30546  22175450.165    22175458.853
       228.000         179.000
  22865200.685   -14081256.09249 -10927206.59246  22865199.252    22865209.507
       224.000         172.000
 00  4 21  2 35  0.0000000  0  8G21G23G 3G17G29G 9G15G31
  21110858.587    -5773164.20949  -4485531.20447  21110858.007    21110865.342
       244.000         209.000
  21990918.356   -14930751.64849 -11621847.00747  21990917.325    21990925.644
       236.000         193.000
  21693286.154   -21568583.29949 -16793507.03047  21693285.831    21693294.597
       236.000         194.000
  22908878.233     1896289.78649   1465975.84446  22908877.214    22908887.500
       218.000         165.000
  20386557.864   -25863176.15649 -20132381.64147  20386557.450    20386564.511
       242.000         212.000
  23476836.499   -10344660.89649  -8049172.85445  23476835.885    23476846.096
       216.000         160.000
  22158741.736   -16894240.87449 -13140405.89546  22158741.562    22158750.598
       229.000         180.000
  22858560.128   -14116152.09049 -10954398.23446  22858559.029    22858568.645
       223.000         172.000
 00  4 21  2 35 30.0000000  0  8G21G23G 3G17G29G 9G15G31
  21108252.967    -5786856.61649  -4496200.57447  21108252.091    21108260.004
       243.000         209.000
  21999305.612   -14886676.20649 -11587502.49947  21999304.648    21999313.208
       235.000         193.000
  21698185.881   -21542835.07349 -16773443.49047  21698185.549    21698194.200
       236.000         194.000
  22924785.451     1979882.50749   1531112.94246  22924785.761    22924795.936
       222.000         165.000
  20380663.533   -25894150.80249 -20156517.65947  20380663.141    20380670.066
       242.000         212.000
  23479182.196   -10332334.55049  -8039567.89045  23479181.851    23479191.146
       216.000         160.000
  22142058.815   -16981909.95649 -13208719.39846  22142058.202    22142067.337
       229.000         180.000
  22852026.051   -14150488.79849 -10981154.08246  22852025.172    22852034.392
       225.000         173.000
 00  4 21  2 36  0.0000000  0  8G21G23G 3G17G29G 9G15G31
  21105678.542    -5800385.02549  -4506742.15347  21105677.953    21105685.363
       244.000         209.000
  22007709.825   -14842511.79449 -11553088.65947  22007709.450    22007717.050
       235.000         193.000
  21703190.724   -21516534.54949 -16752949.58847  21703190.374    21703199.134
       236.000         194.000
  22940748.616     2063769.05549   1596479.01946  22940747.371    22940758.751
       220.000         165.000
  20374859.250   -25924652.22049 -20180284.92847  20374858.919    20374865.820
       242.000         212.000
  23481634.109   -10319449.36849  -8029527.44445  23481633.523    23481643.190
       215.000         160.000
  22125402.105   -17069441.41949 -13276925.66046  22125401.104    22125410.688
       229.000         180.000
  22845598.263   -14184266.97349 -11007474.70446  22845597.142    22845607.233
       224.000         173.000
 00  4 21  2 36 30.0000000  0  8G21G23G 3G17G29G 9G15G31
  21103136.797    -5813741.94549  -4517150.10647  21103136.133    21103143.585
       244.000         209.000
  22016130.730   -14798259.63249 -11518606.45647  22016130.230    22016138.022
       235.000         193.000
  21708300.359   -21489683.43849 -16732026.65747  21708300.157    21708309.002
       236.000         194.000
  22956767.634     2147949.23249   1662073.89346  22956767.261    22956777.603
       222.000         165.000
  20369146.245   -25954674.12049 -20203678.54347  20369145.894    20369152.671
       243.000         212.000
  23484192.174   -10306006.76049  -8019052.64545  23484191.233    23484200.825
       216.000         160.000
  22108771.901   -17156833.41249 -13345023.22746  22108771.226    22108780.283
       230.000         180.000
  22839274.299   -14217499.28649 -11033369.97446  22839273.860    22839282.723
       224.000         173.000
 00  4 21  2 37  0.0000000  0  8G21G23G 3G17G29G 9G15G31
  21100629.236    -5826918.98749  -4527417.89447  21100628.489    21100636.216
       243.000         209.000
  22024569.544   -14753913.41449 -11484050.95947  22024568.728    22024576.982
       235.000         193.000
  21713514.446   -21462283.36249 -16710675.96147  21713514.597    21713522.885
       236.000         194.000
  22972842.479     2232422.98749   1727897.52946  22972841.233    22972851.914
       218.000         164.000
  20363529.420   -25984190.33149 -20226678.12247  20363529.132    20363535.829
       242.000         212.000
  23486855.975   -10292007.89649  -8008144.41345  23486855.188    23486865.385
       216.000         159.000
  22092170.791   -17244072.74149 -13413001.82646  22092170.189    22092179.355
       229.000         181.000
  22833056.756   -14250172.72449 -11058829.76746  22833056.014    22833064.740
       224.000         174.000
 00  4 21  2 37 30.0000000  0  8G21G23G 3G17G29G 9G15G31
  21098156.376    -5839913.83849  -4537543.71847  21098155.891    21098163.358
       244.000         209.000
  22033025.199   -14709478.56249 -11449426.39747  22033024.674    22033032.425
       235.000         192.000
  21718834.548   -21434325.93149 -16688890.96647  21718834.474    21718842.715
       236.000         194.000
  22988975.175     2317200.84149   1793958.12146  22988974.834    22988985.623
       218.000         164.000
  20358009.997   -26013194.85049 -20249278.97647  20358009.593    20358016.312
       242.000         212.000
  23489627.208   -10277444.68449  -7996796.41545  23489626.620    23489635.855
       217.000         159.000
  22075600.522   -17331149.70949 -13480853.90446  22075599.041    22075608.721
       230.000         181.000
  22826948.671   -14282270.87249 -11083841.27846  22826947.623    22826956.718
       226.000         174.000
 00  4 21  2 38  0.0000000  0  8G21G23G 3G17G29G 9G15G31
  21095716.815    -5852733.72849  -4547533.20747  21095716.150    21095723.630
       244.000         209.000
  22041495.142   -14664968.84149 -11414743.49747  22041494.381    22041502.762
       235.000         192.000
  21724260.212   -21405814.04649 -16666673.92647  21724259.878    21724268.479
       235.000         194.000
  23005165.005     2402278.77649   1860252.52446  23005165.545    23005175.455
       218.000         163.000
  20352587.009   -26041692.61749 -20271484.95948  20352586.767    20352593.503
       242.000         213.000
  23492507.116   -10262310.06549  -7985003.17445  23492507.505    23492516.150
       215.000         159.000
  22059061.488   -17418062.71549 -13548578.20346  22059060.390    22059069.663
       230.000         182.000
  22820949.668   -14313795.71049 -11108406.05046  22820949.166    22820958.400
       225.000         175.000
 00  4 21  2 38 30.0000000  0  8G21G23G 3G17G29G 9G15G31
  21093306.058    -5865402.19749  -4557404.70147  21093305.399    21093312.961
       244.000         209.000
  22049977.469   -14620393.82249 -11380009.71947  22049976.739    22049984.719
       234.000         192.000
  21729788.628   -21376762.17649 -16644036.11847  21729788.351    21729797.259
       236.000         194.000
  23021411.341     2487653.59649   1926778.30445  23021409.590    23021421.415
       217.000         162.000
  20347262.188   -26069674.60649 -20293289.04148  20347261.854    20347268.500
       243.000         213.000
  23495496.037   -10246602.94249  -7972763.82145  23495495.567    23495505.356
       217.000         159.000
  22042553.001   -17504814.95649 -13616177.21746  22042551.749    22042560.992
       230.000         182.000
  22815059.436   -14344748.84649 -11132525.34046  22815058.544    22815068.434
       225.000         175.000
 00  4 21  2 39  0.0000000  0  8G21G23G 3G17G29G 9G15G31
  21090922.006    -5877930.35849  -4567166.86547  21090921.239    21090928.980
       244.000         209.000
  22058470.204   -14575764.10349 -11345233.31547  22058469.799    22058477.536
       234.000         192.000
  21735416.729   -21347186.35249 -16620990.04047  21735416.684    21735424.837
       236.000         194.000
  23037712.320     2573315.54749   1993527.80745  23037712.843    23037722.101
       218.000         161.000
  20342033.962   -26097148.86949 -20314697.49248  20342033.623    20342040.451
       242.000         213.000
  23498594.522   -10230320.04249  -7960075.82245  23498594.791    23498604.040
       215.000         159.000
  22026074.968   -17591407.03049 -13683651.42246  22026073.776    22026083.059
       230.000         182.000
  22809279.993   -14375119.86649 -11156191.02846  22809279.444    22809289.245
       224.000         175.000
 00  4 21  2 39 30.0000000  0  8G21G23G 3G17G29G 9G15G31
  21088562.628    -5890328.76349  -4576827.92147  21088562.202    21088569.487
       244.000         209.000
  22066970.978   -14531091.99049 -11310423.87847  22066970.384    22066978.043
       235.000         192.000
  21741140.219   -21317109.22149 -16597553.33547  21741140.172    21741148.614
       235.000         193.000
  23054068.647     2659268.37349   2060503.95745  23054068.471    23054079.131
       217.000         160.000
  20336899.162   -26124132.08649 -20335723.30848  20336898.868    20336905.590
       242.000         213.000
  23501803.331   -10213457.14349  -7946935.85745  23501802.151    23501812.319
       213.000         159.000
  22009626.341   -17677844.61849 -13751005.24546  22009624.914    22009633.983
       230.000         182.000
  22803609.298   -14404919.40649 -11179411.40446  22803608.570    22803617.946
       225.000         175.000
 00  4 21  2 40  0.0000000  0  8G21G23G 3G17G29G 9G15G31
  21086227.517    -5902599.65549  -4586389.61147  21086227.059    21086234.379
       244.000         209.000
  22075483.751   -14486357.17649 -11275565.58447  22075483.201    22075491.211
       234.000         191.000
  21746956.598   -21286544.02449 -16573736.31847  21746956.235    21746965.363
       235.000         193.000
  23070477.950     2745499.49549   2127696.97245  23070477.221    23070488.063
       216.000         160.000
  20331858.801   -26150619.11749 -20356362.48948  20331858.277    20331865.009
       242.000         213.000
  23505121.283   -10196021.04049  -7933349.25945  23505121.093    23505130.113
       214.000         159.000
  21993208.043   -17764122.69649 -13818234.76546  21993207.020    21993216.271
       230.000         183.000
  22798044.728   -14434161.16049 -11202197.14446  22798044.482    22798053.057
       225.000         175.000
 00  4 21  2 40 30.0000000  0  8G21G23G 3G17G29G 9G15G31
  21083918.253    -5914734.76449  -4595845.50247  21083917.608    21083924.747
       244.000         209.000
  22084012.870   -14441536.40449 -11240640.31047  22084012.446    22084020.299
       234.000         191.000
  21752865.781   -21255490.97949 -16549539.16547  21752865.505    21752873.863
       235.000         193.000
  23086941.483     2832015.80449   2195112.18045  23086941.673    23086951.695
       216.000         160.000
  20326914.754   -26176599.95149 -20376607.23248  20326914.340    20326920.949
       242.000         213.000
  23508547.536   -10178016.16549  -7919319.45045  23508547.062    23508557.351
       215.000         159.000
  21976821.875   -17850232.15049 -13885332.88346  21976820.604    21976829.515
       230.000         183.000
  22792587.031   -14462841.58049 -11224545.47346  22792586.461    22792595.255
       224.000         175.000
